GFSSW_925_spd_000.txt.gz
Wind_Speed
8 9 9 9 7 6 4 4 4 4 3 2 1 0 3 6 9 5 8 8 10 13 14 13 15 8 13 1 8 11 7 8 8 10 6 6 8 7 1 7 2 8 10 12 15
7 7 7 9 8 4 5 5 6 7 6 4 3 3 6 9 10 11 10 11 12 14 16 16 1 7 1 1 6 7 6 14 8 7 10 5 2 7 4 7 9 6 4 4 9
6 6 6 5 3 3 3 5 5 7 6 6 6 5 8 10 2 10 10 11 11 12 11 15 11 1 6 4 7 13 12 4 6 9 9 10 9 4 7 9 12 6 9 5 6
4 3 1 2 5 4 4 6 6 6 6 7 6 8 9 7 3 5 9 8 6 8 13 17 6 4 6 6 4 8 6 7 9 5 6 8 10 8 8 8 6 4 4 5 6
5 3 3 4 5 6 5 5 6 6 7 8 10 12 3 4 7 4 7 8 6 11 7 5 5 8 7 3 2 5 3 2 2 3 3 7 10 7 8 10 3 4 2 6 6
6 3 4 6 6 5 5 5 5 6 8 10 11 8 5 6 3 4 5 6 7 8 8 11 7 6 4 6 8 3 4 1 2 4 6 8 12 10 10 6 4 6 8 8 8
6 3 7 8 8 6 4 4 5 7 8 5 3 3 0 5 2 4 2 5 5 9 9 9 7 7 6 2 3 4 9 13 9 2 9 8 16 16 8 9 7 9 10 10 11
5 5 8 8 7 6 4 4 5 5 4 2 5 1 3 2 4 6 8 4 4 5 7 7 3 2 5 1 6 12 7 7 5 3 3 5 13 6 8 9 11 11 11 11 13
7 6 7 7 5 4 4 6 5 3 2 5 6 8 7 3 1 7 5 7 6 4 4 5 7 4 4 10 10 3 10 11 8 6 1 6 15 15 14 11 12 12 11 10 13
7 6 4 3 4 5 5 6 6 4 5 7 13 2 2 3 4 8 7 7 8 9 10 5 5 8 9 10 9 11 10 11 12 8 9 12 15 14 14 15 12 8 9 9 6
5 5 5 4 3 1 1 4 5 4 8 10 8 6 5 1 6 9 11 8 6 7 5 6 7 8 9 8 9 11 13 15 14 8 15 16 17 15 5 8 8 7 7 6 5
4 2 4 3 2 4 6 5 6 5 3 3 4 5 2 5 4 12 16 5 5 7 7 8 4 6 6 7 9 15 15 12 13 17 15 19 19 13 8 6 6 4 6 6 5
5 0 1 1 2 3 5 6 5 8 5 2 2 4 3 7 4 10 11 8 5 5 5 6 6 6 7 7 10 14 8 13 17 18 15 12 12 10 6 11 7 6 4 4 4
8 3 2 2 2 3 3 5 7 6 4 4 3 3 3 3 0 4 8 5 3 5 7 5 3 6 8 6 10 11 13 16 17 14 10 15 7 4 12 11 10 7 5 4 5
9 5 3 2 3 1 1 3 6 2 2 2 4 4 3 5 7 4 4 4 5 7 4 4 6 8 10 7 9 10 16 19 19 15 9 5 5 10 8 9 11 9 6 6 4
12 5 4 2 1 1 1 2 3 3 0 4 1 2 3 4 4 5 3 2 2 5 3 4 1 3 7 11 14 12 17 19 3 1 3 5 2 10 6 4 5 4 5 7 6
13 9 6 3 3 0 1 3 3 2 2 5 2 2 2 5 2 5 4 11 10 6 5 8 6 4 4 13 11 16 14 4 4 2 3 12 9 11 17 2 4 7 7 5 3
6 9 9 6 2 0 2 3 2 4 3 3 2 1 3 7 5 5 8 4 15 14 10 6 3 3 7 5 7 13 7 2 4 4 9 17 6 6 4 6 6 4 1 7 4
3 2 5 8 3 1 3 1 3 6 5 6 2 4 6 3 3 4 6 7 7 12 8 6 2 8 3 3 5 6 5 5 4 1 1 5 12 15 6 7 8 7 8 6 5
5 2 7 6 2 3 1 3 3 4 4 2 3 2 5 6 6 6 6 7 4 6 8 4 7 9 2 9 13 7 6 3 1 3 5 8 15 10 11 16 20 14 10 10 8
3 2 6 3 2 3 1 3 5 4 6 6 5 2 3 5 5 5 4 8 8 9 11 8 3 8 13 2 10 3 6 4 7 5 4 6 6 12 22 21 10 13 14 13 6
4 1 5 1 2 2 2 3 3 4 2 4 4 6 5 5 5 5 5 6 7 9 8 6 3 5 18 17 3 5 9 8 2 8 9 10 13 18 9 4 21 17 11 10 9
3 4 2 1 1 1 5 4 5 1 5 3 3 4 3 4 3 4 5 4 7 7 7 9 2 5 8 6 2 14 19 18 14 2 8 6 9 12 21 22 18 15 13 13 11
1 2 3 3 3 6 5 4 3 3 3 2 2 2 2 4 1 4 7 4 1 6 6 1 6 6 8 15 18 18 22 24 19 12 15 14 27 21 19 19 16 12 13 13 14
2 2 3 1 1 4 3 1 4 2 1 2 1 1 3 3 6 4 5 9 7 4 2 2 5 11 17 19 20 23 24 24 23 20 18 23 22 22 19 20 12 13 14 17 18
4 3 1 2 2 2 2 2 3 4 3 3 4 5 4 4 4 11 13 11 8 11 5 3 4 3 9 19 20 20 23 26 25 21 21 20 21 16 18 14 16 19 20 19 15
2 1 2 3 3 2 2 2 1 4 3 3 7 9 6 8 9 10 12 14 16 17 15 14 3 2 7 10 12 11 15 15 13 17 17 15 21 20 16 15 15 20 19 13 17

GFSSW_925_spd_003.txt.gz
Wind_Speed
12 11 11 11 10 7 5 4 5 5 3 2 3 5 9 11 10 6 5 8 10 12 15 20 23 23 20 5 4 2 4 3 6 7 4 3 6 3 1 2 2 5 8 8 15
10 11 11 10 8 5 3 3 4 5 3 2 2 4 7 13 11 5 9 11 11 12 15 11 9 15 2 3 5 6 5 5 4 5 6 6 7 2 4 6 1 5 10 22 21
8 8 7 4 2 2 3 4 5 4 3 1 1 2 7 13 3 3 9 8 9 13 15 20 20 9 3 2 5 4 4 5 6 8 7 7 7 5 0 3 5 5 7 12 16
5 3 0 2 3 4 6 7 6 4 3 3 6 5 10 8 4 4 8 7 10 15 19 20 8 4 5 3 3 6 6 5 4 5 4 4 5 7 3 3 7 7 10 7 7
5 3 3 4 5 7 7 5 4 3 2 6 9 7 7 3 3 6 10 12 17 19 17 9 8 6 5 3 6 4 4 1 7 7 7 3 7 6 6 8 6 5 6 3 6
6 3 5 7 7 7 5 5 4 1 3 7 7 7 2 0 2 1 7 13 14 19 15 12 5 6 5 3 2 3 5 2 6 6 6 5 6 2 10 6 9 8 8 6 5
6 5 6 8 8 8 6 3 2 2 4 6 6 5 1 3 0 5 5 4 8 8 5 8 11 5 6 1 1 6 5 7 6 8 4 3 8 5 15 8 9 10 9 9 9
7 6 7 8 9 7 5 3 2 3 5 7 7 0 1 2 1 6 11 4 4 8 5 6 9 5 1 4 3 3 2 2 10 8 5 7 8 7 8 10 11 10 9 9 10
8 8 8 9 7 5 4 4 3 4 6 8 3 2 3 2 3 6 3 7 16 14 14 11 7 4 2 3 4 6 4 7 8 7 3 4 7 9 11 9 10 10 9 9 8
9 9 6 5 4 3 2 3 5 5 6 9 10 3 2 2 2 7 7 13 11 11 8 4 3 2 5 7 3 6 6 6 4 4 6 7 7 8 9 4 7 5 3 4 5
7 8 7 6 4 4 2 4 5 3 5 3 3 4 6 6 8 6 14 11 9 5 4 4 6 3 4 4 3 6 7 5 5 10 10 8 10 11 1 9 10 9 8 8 8
4 5 6 5 4 4 5 1 3 0 3 0 5 5 2 4 4 10 16 7 5 5 4 7 4 3 5 9 7 7 6 6 4 11 8 10 15 8 7 6 8 9 8 9 8
3 2 2 2 2 3 6 5 3 5 1 2 1 3 3 4 2 5 5 6 4 6 7 3 2 5 6 6 8 5 5 6 7 10 11 4 9 7 4 8 8 7 6 6 8
4 2 4 3 2 2 2 2 5 4 3 4 5 1 2 2 1 2 3 2 4 3 5 2 2 6 7 3 6 5 7 9 11 7 3 4 4 5 6 7 7 7 7 8 6
7 4 5 2 2 2 3 4 8 2 4 1 3 1 4 5 5 1 1 0 3 5 3 4 2 4 5 4 4 7 5 12 14 9 2 7 2 5 6 4 6 7 7 7 7
10 5 4 2 1 0 3 4 3 6 2 2 1 2 1 3 1 7 3 4 1 5 3 5 4 4 1 7 5 7 7 11 5 3 3 6 5 5 3 4 5 6 6 7 7
10 8 3 1 1 2 2 3 4 5 2 3 3 4 3 4 4 3 7 13 6 6 6 7 4 3 2 5 7 12 6 4 6 4 4 12 6 8 9 6 9 8 6 6 5
5 6 9 4 1 1 2 5 3 6 6 2 3 3 3 5 1 5 5 4 9 7 3 4 6 6 7 3 4 5 3 4 2 1 5 9 3 5 9 11 6 5 5 7 8
3 2 2 7 2 2 4 4 5 3 5 6 2 3 3 1 2 4 6 5 5 7 5 6 4 8 3 1 3 6 4 2 2 2 3 4 7 9 7 11 8 12 6 7 5
3 2 5 5 3 3 4 0 4 6 7 4 4 5 5 6 7 5 5 5 2 7 5 4 5 5 6 3 4 4 0 5 3 2 3 4 6 6 10 14 10 3 6 6 2
2 3 7 4 4 4 3 3 5 4 5 6 7 5 6 5 5 4 5 5 7 8 8 6 3 8 6 1 4 2 4 2 2 1 3 3 5 5 13 9 12 16 10 9 6
4 3 6 5 3 2 2 4 1 1 2 3 6 6 5 6 5 6 4 4 4 5 4 3 2 3 9 15 9 6 7 6 3 5 4 3 8 13 9 9 22 10 7 6 6
2 2 2 2 3 2 2 4 5 7 6 6 3 5 3 3 3 6 2 3 4 3 3 2 3 3 8 6 7 6 15 12 6 0 7 4 9 8 15 15 6 8 7 7 9
2 3 4 4 1 6 4 4 4 3 3 3 2 2 4 6 6 4 5 5 5 2 6 6 2 5 5 6 5 10 19 21 11 2 8 9 17 14 12 7 8 7 7 7 6
2 1 4 1 5 6 6 4 6 4 2 1 1 1 4 3 5 3 6 7 6 7 4 6 5 6 8 7 10 14 19 20 15 17 12 23 18 12 8 6 5 8 11 9 6
2 3 4 2 6 7 5 5 6 5 5 3 4 8 8 3 2 4 5 5 4 4 5 2 6 2 6 11 10 8 20 21 19 14 10 14 19 8 6 11 13 12 13 9 8
4 2 4 6 3 4 3 3 5 5 3 2 4 3 5 1 2 2 2 5 8 9 6 5 3 2 15 4 5 7 13 4 6 14 13 8 4 15 18 18 13 12 5 6 11

GFSSW_925_spd_006.txt.gz
Wind_Speed
10 10 9 9 10 8 7 3 5 6 6 3 1 4 10 15 7 7 4 7 9 13 17 20 12 14 5 2 3 4 5 3 3 4 2 6 4 4 3 3 2 1 6 3 23
8 8 8 8 9 4 2 6 6 6 6 4 2 6 12 17 4 7 9 10 11 15 16 14 8 12 4 0 5 6 4 1 3 5 1 3 3 1 3 5 5 4 5 18 21
5 5 6 4 2 2 4 6 6 6 4 1 3 8 12 13 3 5 11 12 15 19 17 16 12 3 5 5 4 2 2 3 3 2 2 2 4 4 4 3 4 10 8 9 14
4 2 1 1 3 6 7 7 6 4 1 1 4 9 16 5 3 6 13 17 20 21 17 16 8 6 5 5 3 4 3 4 3 1 2 2 1 4 2 5 6 11 13 9 9
4 3 3 5 7 8 9 6 4 1 2 3 7 10 7 5 1 7 14 18 18 21 15 6 8 5 4 2 3 3 2 3 5 5 4 1 3 5 4 4 6 10 10 10 8
4 4 6 9 9 8 7 5 4 3 2 4 6 9 4 3 4 6 12 14 16 18 14 11 4 5 2 4 3 2 3 4 7 5 4 4 3 2 8 4 7 9 11 10 9
6 6 7 7 8 7 7 8 7 5 3 3 5 8 2 4 5 11 7 6 9 14 5 8 7 8 4 4 3 2 4 7 7 3 4 4 3 5 8 8 11 10 9 9 9
7 7 7 7 7 8 9 8 6 3 2 3 6 4 4 3 5 8 11 3 9 13 14 10 6 3 1 2 6 3 4 4 6 7 3 4 7 9 5 9 12 11 8 8 9
8 8 8 8 8 8 8 6 4 3 5 6 3 1 6 3 3 6 11 8 16 14 14 12 4 0 5 4 5 6 4 4 9 5 4 3 7 8 5 9 10 8 8 7 5
9 8 8 9 9 8 6 4 4 6 4 2 1 2 4 1 3 10 13 11 4 7 9 2 4 3 5 5 1 4 5 6 1 6 5 5 8 9 7 7 11 7 7 6 7
9 9 9 9 8 8 6 2 6 4 2 2 1 3 2 8 2 6 15 10 4 1 3 4 6 2 4 2 4 1 3 3 4 3 7 6 8 13 5 5 8 8 9 8 7
7 8 8 8 8 7 6 5 3 1 3 3 3 3 3 2 2 7 11 4 4 3 5 7 3 2 5 5 4 6 3 4 6 6 3 9 11 7 6 3 7 10 9 9 6
4 5 6 5 5 5 9 4 2 3 2 3 1 1 5 2 2 5 3 3 1 5 4 5 2 2 5 6 7 3 2 4 6 7 3 5 6 6 3 4 5 4 6 6 8
3 4 4 3 3 3 3 2 2 1 4 2 2 3 3 3 2 4 2 2 5 2 2 1 3 4 6 2 3 4 4 4 6 4 2 4 3 4 3 2 2 4 6 6 7
5 4 5 3 2 2 0 3 3 2 5 3 1 2 3 3 3 4 5 3 2 4 5 4 2 4 4 3 3 7 7 8 4 4 3 9 3 6 4 4 6 4 6 5 4
6 4 6 4 2 1 2 3 1 6 1 2 1 1 1 4 5 4 7 7 2 4 3 3 1 3 1 4 1 6 6 5 4 3 3 3 1 4 5 5 5 3 3 6 4
7 5 4 3 2 0 2 3 4 5 2 2 1 2 3 4 5 5 5 11 5 6 7 6 4 4 2 5 7 8 6 4 5 5 4 5 4 2 1 7 8 8 5 3 6
5 6 8 3 1 1 2 5 6 4 3 1 1 1 2 2 2 5 4 5 7 6 3 5 7 7 6 2 2 4 5 4 1 0 5 7 1 3 5 2 4 6 8 6 1
2 2 4 4 2 1 5 5 5 4 3 4 3 3 3 5 3 5 4 3 6 7 4 5 4 5 4 4 2 4 4 1 5 2 3 5 5 8 4 8 6 2 3 6 8
1 1 5 4 3 3 5 3 2 2 3 4 3 4 3 5 4 3 4 5 3 6 3 3 4 2 6 4 3 3 1 5 4 2 3 5 6 5 7 13 14 5 3 7 6
2 3 7 5 1 5 4 2 2 1 3 4 4 4 4 3 4 3 3 2 3 5 6 2 2 7 4 3 2 5 4 3 1 4 3 2 6 4 11 10 11 5 5 5 5
3 3 7 7 4 1 2 2 1 3 5 4 5 4 3 4 4 3 2 3 2 0 2 3 4 3 5 8 2 2 3 5 3 5 3 3 10 14 7 14 7 6 4 5 4
3 1 5 4 3 2 2 4 4 4 5 4 3 3 3 3 3 3 2 3 3 2 3 0 2 3 7 6 8 4 8 4 3 2 6 3 6 10 18 7 6 7 6 6 1
3 3 4 4 1 6 4 2 3 4 4 4 2 4 5 4 4 1 6 4 2 1 5 6 3 6 5 5 3 9 15 11 3 2 5 13 16 19 12 7 4 4 6 3 2
3 2 4 2 5 5 4 1 4 2 2 3 5 6 3 2 4 2 3 5 5 2 1 4 5 4 7 8 5 16 17 16 11 14 6 10 10 12 4 2 5 5 6 6 6
3 3 4 1 2 5 5 3 2 4 3 3 5 2 6 3 3 2 1 0 5 3 2 2 4 4 11 7 8 17 15 13 13 14 9 9 14 2 6 6 7 6 10 10 7
3 3 4 4 2 4 2 2 2 5 2 5 5 3 4 1 5 5 5 5 7 6 3 2 3 2 6 5 5 10 8 6 5 7 7 6 6 3 6 8 11 15 14 9 8

GFSSW_925_spd_009.txt.gz
Wind_Speed
11 12 12 12 11 8 6 6 7 6 1 3 1 5 10 14 4 4 2 6 8 15 17 19 7 11 2 4 3 4 5 3 1 1 4 5 2 5 2 5 1 3 5 4 20
9 10 11 11 8 5 6 6 6 1 2 0 2 6 13 13 4 5 11 13 15 17 17 12 8 10 4 3 3 6 5 6 2 2 3 4 3 2 4 3 4 2 4 14 22
7 8 9 6 5 6 5 6 2 2 0 0 2 9 14 6 2 5 14 19 19 14 12 11 2 1 5 5 5 2 4 4 4 4 5 2 1 1 6 2 5 8 7 8 11
3 3 3 4 6 6 7 5 3 1 2 1 5 11 10 3 4 6 14 17 17 19 19 11 7 5 5 5 5 6 1 4 2 5 3 2 1 1 2 6 9 12 11 8 8
1 1 4 7 8 8 8 6 3 3 2 4 8 12 6 4 1 9 15 16 15 19 19 6 9 4 5 3 2 4 2 2 2 1 2 2 4 3 5 6 4 6 8 10 9
3 5 7 9 9 9 7 5 4 3 5 6 10 11 2 5 7 13 15 14 17 20 18 11 3 1 3 2 3 1 3 5 3 4 2 2 3 1 6 2 8 9 11 9 9
5 7 8 9 9 8 7 6 5 6 7 10 9 8 3 3 8 11 13 7 13 15 6 7 2 6 2 4 5 3 5 6 2 3 5 5 5 6 3 3 9 10 8 9 10
8 9 9 10 9 8 8 7 8 9 9 8 9 4 2 4 7 11 14 9 13 15 10 9 8 3 3 2 7 5 5 6 7 1 4 4 9 11 2 5 11 10 9 9 10
8 9 9 9 9 9 9 9 10 8 6 6 4 4 3 6 6 12 16 11 17 8 14 6 4 3 6 4 5 7 1 3 5 5 4 3 8 10 5 6 11 8 9 7 4
7 8 9 10 9 8 7 7 8 5 5 4 4 4 7 5 6 10 16 9 3 7 7 8 5 4 5 6 1 3 3 4 3 6 7 5 9 10 7 6 9 5 5 2 3
8 10 10 10 9 7 5 3 5 6 6 1 2 3 3 7 4 9 14 9 5 7 5 4 6 2 2 1 4 1 2 2 4 3 7 5 9 12 8 4 5 6 8 7 6
7 9 9 9 10 9 10 7 3 2 3 3 1 2 1 2 5 7 12 5 5 3 3 6 2 1 4 5 4 2 2 4 5 5 3 7 9 8 7 4 4 9 7 8 6
6 7 7 7 7 14 14 7 3 1 4 5 2 1 3 3 3 5 5 1 4 4 4 5 1 4 3 5 6 4 2 3 5 7 1 6 6 6 5 5 6 5 5 5 7
5 6 6 5 5 4 5 3 1 0 5 6 5 4 3 1 5 3 6 2 7 2 1 1 2 3 5 3 1 4 2 2 6 4 2 4 3 5 4 2 3 6 4 4 6
4 5 5 3 6 3 2 1 2 2 5 4 2 2 1 3 1 9 8 3 2 3 5 2 3 6 6 4 2 6 7 4 2 3 2 8 4 6 5 2 0 2 4 5 4
6 5 6 5 5 3 1 2 2 6 0 2 1 1 3 5 5 4 8 7 3 4 5 4 2 3 2 3 4 8 4 5 4 2 2 1 2 6 4 4 1 3 4 2 5
7 7 5 4 2 1 1 3 5 6 2 1 1 3 3 4 6 4 5 11 5 5 6 6 4 5 3 5 6 8 6 4 5 5 4 1 2 6 4 4 2 1 3 6 5
7 8 8 5 2 1 2 5 6 3 1 3 3 3 4 5 5 6 3 5 6 5 3 4 6 5 6 1 2 3 3 4 3 1 5 6 3 4 1 4 6 1 2 4 6
5 7 5 6 2 2 5 5 6 6 2 2 3 4 5 5 3 4 4 3 3 5 3 4 4 4 1 3 1 3 4 2 6 2 3 4 5 5 5 6 5 5 7 6 7
3 4 6 5 3 3 5 2 1 1 1 2 3 1 2 5 4 4 3 3 3 6 2 3 4 3 6 2 5 5 2 4 4 3 3 5 6 5 4 8 14 7 6 5 5
3 4 6 6 2 5 4 4 2 3 2 3 2 3 2 1 3 2 0 2 2 3 6 2 2 6 3 5 1 5 4 5 3 3 3 3 6 5 6 7 11 5 5 3 0
4 3 8 4 4 1 2 2 2 5 7 5 4 3 3 3 4 3 2 2 1 1 2 2 3 3 3 7 4 4 5 4 3 4 3 2 7 3 2 6 5 2 6 6 3
3 1 4 3 3 2 1 4 3 4 5 3 3 3 4 2 3 2 2 4 4 3 1 2 2 3 7 6 4 3 3 3 4 3 6 3 5 3 15 7 3 5 6 6 6
3 3 4 4 0 5 4 2 3 3 3 5 4 5 4 5 6 2 5 5 7 3 6 5 2 6 5 6 5 10 5 3 5 3 4 11 18 16 10 4 7 7 7 7 8
3 1 3 1 4 3 3 2 3 2 2 6 5 4 3 2 3 2 3 5 3 3 3 3 2 3 6 7 6 14 13 16 9 11 6 9 10 13 6 5 7 7 7 9 12
4 4 3 2 2 3 4 1 4 2 2 2 6 1 4 3 4 2 1 1 4 3 3 2 3 3 4 6 10 15 14 11 14 11 8 10 10 5 2 5 6 9 11 11 10
2 3 4 5 2 4 2 1 2 4 5 4 7 4 2 4 4 4 5 4 5 4 4 2 4 2 5 6 9 7 7 4 3 5 5 5 7 2 6 8 8 10 9 10 12

GFSSW_925_spd_012.txt.gz
Wind_Speed
12 12 11 10 9 8 7 6 5 4 5 2 2 6 11 10 5 5 2 6 11 15 15 11 3 4 6 4 5 3 5 2 2 3 2 3 2 2 2 4 2 5 6 4 24
11 11 10 10 9 7 8 5 3 6 2 0 3 8 11 6 4 3 11 16 16 9 5 8 4 4 5 3 4 5 5 3 3 3 0 2 1 1 3 3 2 1 3 10 25
8 8 9 8 8 6 4 5 6 3 1 1 4 9 7 3 3 4 15 16 17 15 10 7 6 4 6 4 5 1 4 3 2 2 1 3 3 0 8 2 6 8 6 8 11
6 6 5 6 5 5 7 8 6 4 1 2 5 8 6 2 4 5 16 15 17 19 15 16 8 6 5 5 3 6 4 4 1 3 4 2 2 2 5 7 7 8 9 9 8
4 3 3 5 8 9 10 8 6 3 1 2 7 9 3 4 0 11 13 13 14 18 20 5 8 2 4 3 3 4 2 5 3 6 3 2 3 3 7 9 2 8 8 10 9
2 3 6 9 11 11 10 7 5 3 2 4 10 6 2 7 8 14 15 12 16 17 13 11 3 1 5 3 4 1 1 2 3 2 1 2 2 2 5 2 2 7 11 10 9
5 7 9 10 11 10 8 6 5 5 5 9 10 5 4 1 11 14 16 12 14 12 4 4 2 5 2 3 4 4 4 6 7 5 2 3 5 6 4 3 5 7 8 8 11
7 8 9 9 10 9 8 8 7 6 7 8 9 4 1 9 8 14 18 12 11 7 6 4 4 5 5 2 7 6 6 5 6 3 3 3 8 11 2 2 9 8 8 8 8
7 9 9 11 11 10 9 8 6 7 7 6 4 5 3 8 10 13 16 8 8 13 12 8 7 4 7 5 5 7 1 2 7 4 5 3 8 9 4 7 10 6 7 6 5
8 9 11 11 9 8 7 7 8 6 5 7 7 6 7 5 7 9 16 7 5 3 5 8 6 5 5 6 1 2 2 3 2 5 7 5 7 9 7 7 8 6 6 6 3
9 9 10 9 7 6 6 2 5 6 10 4 2 3 3 8 3 10 11 4 5 9 5 6 7 3 3 1 1 1 1 3 3 2 5 3 6 9 9 7 7 3 5 7 5
7 8 10 11 8 9 7 6 3 2 4 3 2 2 2 3 7 12 11 6 6 3 2 6 4 1 6 5 4 3 2 4 5 3 0 5 8 6 8 5 5 6 6 6 5
5 6 7 8 9 16 15 7 3 1 5 5 3 2 3 4 4 8 6 2 5 5 5 5 1 4 4 5 6 4 2 3 5 6 1 6 4 6 4 5 7 7 3 2 5
5 5 4 5 5 6 5 4 4 2 5 7 5 3 4 2 4 4 9 3 7 3 2 3 3 5 5 4 2 3 2 2 5 2 1 4 2 5 6 3 6 5 2 2 3
5 5 4 2 9 4 3 3 3 3 5 4 5 2 4 6 2 10 7 4 4 4 4 1 3 5 6 2 1 7 4 2 1 3 3 8 4 6 6 4 2 2 6 4 6
5 7 6 6 7 6 3 3 3 7 0 2 2 4 4 7 5 6 8 8 3 5 6 2 3 3 2 3 2 6 4 5 4 2 3 3 3 5 3 4 4 4 3 5 5
6 8 6 5 3 3 3 4 5 6 3 2 2 3 5 6 5 6 6 9 4 4 6 6 3 5 3 5 6 9 6 3 5 5 3 3 1 5 6 4 2 0 5 7 8
8 8 10 8 5 3 3 5 6 3 1 1 2 4 4 3 4 6 3 5 6 5 3 4 5 5 6 1 2 3 4 4 2 1 4 5 3 3 3 5 8 7 6 7 8
9 10 5 6 4 3 5 5 6 5 1 2 3 4 3 3 4 4 4 2 3 4 3 4 3 5 1 2 1 2 4 2 5 2 3 3 5 5 3 7 7 8 7 6 6
5 5 5 4 3 4 5 3 1 4 1 2 3 1 2 5 3 4 2 1 2 4 1 1 2 1 4 1 5 6 4 4 3 2 3 5 5 4 6 8 8 6 6 7 6
3 4 4 4 3 5 4 4 2 2 2 3 2 3 3 2 3 2 1 2 1 2 5 2 2 6 1 5 1 4 3 5 4 3 3 3 6 5 4 4 5 4 5 6 7
4 3 5 2 4 1 2 1 0 3 6 4 5 3 3 3 4 2 2 2 5 2 3 2 4 3 4 1 1 2 3 4 4 3 1 3 6 4 7 2 5 1 5 6 6
3 1 3 1 3 2 1 3 3 3 5 3 3 4 4 3 4 3 3 2 5 3 2 1 2 4 8 5 5 4 1 4 5 3 6 3 6 0 8 9 2 4 6 7 8
3 2 4 4 1 6 4 2 3 4 4 6 3 5 5 5 6 2 2 3 5 3 6 5 2 5 5 7 5 5 4 4 5 3 4 11 17 19 15 9 6 7 7 8 8
3 1 2 0 4 4 4 2 3 3 3 5 4 4 4 3 3 2 2 4 3 4 3 3 2 4 6 9 8 11 11 8 8 8 6 15 8 12 11 8 6 7 7 10 10
4 4 3 2 2 4 4 1 3 2 3 2 6 2 3 4 4 3 3 2 5 2 2 3 3 0 4 4 5 7 11 11 9 7 11 14 15 9 4 3 5 9 11 11 10
2 3 4 4 2 4 2 3 4 5 5 3 8 4 3 4 4 1 4 1 1 1 2 0 3 2 5 4 9 6 4 4 3 6 5 6 9 2 3 8 10 12 8 10 6

GFSSW_925_spd_015.txt.gz
Wind_Speed
13 13 12 12 12 11 8 5 5 4 2 0 1 5 8 4 1 1 2 7 9 11 5 3 4 6 4 4 3 2 4 3 4 5 3 0 3 1 1 4 1 2 4 1 20
11 11 12 12 11 10 7 6 6 5 2 2 1 6 6 2 3 3 12 14 11 7 4 6 3 4 4 3 3 4 3 3 2 3 3 2 2 2 3 2 2 2 2 6 21
10 10 10 10 10 8 6 8 8 6 5 2 3 7 3 2 1 4 18 13 12 8 10 8 7 3 5 3 4 2 4 4 2 3 3 2 2 1 6 1 4 6 8 14 19
8 8 9 9 8 8 9 10 8 6 5 3 4 5 3 1 4 6 12 9 15 14 9 6 6 5 5 5 3 6 2 3 4 4 3 3 2 1 4 3 3 3 12 17 15
7 7 6 7 10 10 12 10 8 6 5 1 4 3 2 5 2 10 7 12 15 18 17 4 5 4 4 3 3 5 2 2 2 6 2 4 2 1 6 8 2 5 13 15 16
4 5 7 10 12 13 11 10 8 7 4 3 4 5 3 8 4 9 8 10 13 12 10 8 2 2 5 3 3 2 3 2 4 2 2 1 1 0 1 2 5 7 12 14 16
4 6 9 11 12 11 10 9 9 7 4 4 4 6 6 1 3 8 12 6 8 7 3 3 4 3 2 3 1 2 4 2 9 5 3 2 2 3 4 2 3 6 8 12 15
7 8 9 10 10 11 11 11 10 7 4 5 7 5 3 7 5 14 15 6 6 5 5 4 9 7 4 2 5 5 4 4 4 7 3 1 5 6 5 5 8 5 7 10 12
8 9 10 11 11 12 12 10 8 6 6 4 3 3 1 6 7 10 11 3 4 9 10 8 7 5 5 3 4 8 3 3 4 3 5 5 5 5 12 9 11 5 5 8 10
9 9 10 10 11 11 9 8 8 4 4 5 4 4 6 4 6 9 4 6 6 1 4 9 6 4 5 5 1 0 1 1 3 5 6 3 7 11 11 4 4 4 1 5 6
9 9 8 7 7 8 8 2 4 5 10 4 2 4 2 7 3 12 8 3 6 8 4 6 8 4 2 1 3 3 2 3 3 2 5 3 6 8 10 9 9 6 5 6 5
8 9 8 8 12 10 6 6 3 3 5 2 2 2 1 2 5 17 10 5 6 4 2 6 4 1 4 4 2 1 2 1 3 1 1 5 5 4 10 7 5 6 7 6 5
7 7 7 9 11 11 13 8 4 3 5 4 2 2 2 5 4 8 6 2 5 5 5 5 1 2 1 4 5 1 2 2 3 7 1 4 2 7 5 6 7 7 5 3 5
5 5 5 6 5 5 4 5 2 3 5 8 5 3 4 2 5 5 8 2 6 3 3 5 3 3 3 3 2 3 2 4 4 1 1 4 3 5 6 4 5 3 4 5 6
6 4 4 3 10 3 3 2 3 2 5 4 6 3 4 7 2 13 7 7 4 3 2 0 2 4 5 2 1 3 2 1 1 3 2 5 1 4 4 6 6 8 5 5 7
6 7 7 6 7 6 3 2 1 6 1 2 3 4 5 8 6 7 7 8 2 4 5 2 2 3 2 2 1 4 2 3 3 2 1 1 2 4 5 5 5 5 10 8 8
7 7 5 4 4 4 2 3 5 5 3 1 3 4 5 5 5 6 7 9 4 3 5 5 3 4 3 4 3 8 3 1 2 2 1 2 1 4 9 8 6 8 9 10 9
9 9 9 9 5 4 2 5 6 3 2 1 3 4 4 3 4 6 3 5 5 4 3 3 1 4 5 2 2 4 2 2 1 2 4 2 4 6 8 7 8 8 7 7 8
11 9 5 5 4 3 5 5 6 5 2 4 3 4 2 2 4 4 4 2 3 4 3 2 2 3 4 2 1 1 5 1 5 1 1 3 1 3 7 9 8 7 8 8 6
5 5 4 3 3 4 5 3 1 4 2 2 3 1 3 3 3 3 2 2 1 4 0 1 2 2 3 1 6 3 4 1 3 2 2 4 4 3 3 5 5 5 4 5 5
3 4 3 1 3 5 4 3 3 2 1 3 3 3 3 3 3 2 1 3 3 2 4 1 1 2 0 4 1 2 2 5 4 1 1 3 5 4 6 0 5 3 1 3 6
4 3 4 4 4 1 3 5 2 1 5 4 4 4 3 3 3 3 3 1 4 1 2 1 2 2 2 2 1 2 3 3 2 2 1 1 7 2 7 2 5 4 1 4 7
3 1 4 2 3 1 1 3 3 2 4 3 3 3 3 3 4 2 3 1 5 2 1 2 2 3 2 2 2 2 2 4 4 2 7 3 6 0 5 10 7 7 6 9 11
3 2 4 4 1 6 5 2 4 3 4 5 4 4 4 4 5 3 2 1 3 2 6 4 2 4 4 4 2 5 4 4 4 3 5 12 19 21 18 13 10 6 7 12 12
3 1 1 1 3 4 4 3 4 3 3 4 4 3 5 3 2 2 1 2 2 1 3 2 3 3 5 9 5 8 13 10 12 12 7 13 15 18 14 10 4 9 11 13 14
4 4 3 2 2 4 4 1 4 3 2 2 6 2 3 4 4 4 3 2 3 2 2 2 2 1 4 6 5 9 12 11 12 14 13 18 19 14 6 3 7 12 12 13 10
3 3 4 4 2 4 2 4 5 5 4 2 8 5 4 4 4 2 2 3 2 3 2 1 3 1 3 5 9 6 3 4 3 6 4 5 7 1 4 7 12 15 11 7 5

GFSSW_925_spd_018.txt.gz
Wind_Speed
16 15 16 14 14 14 11 7 6 6 5 4 2 4 7 3 1 1 5 7 7 9 4 3 3 5 4 3 2 2 6 8 8 8 9 7 6 4 1 7 3 3 3 7 21
15 14 14 13 14 12 9 7 7 7 6 5 2 5 5 2 2 6 11 10 7 1 5 9 10 7 5 3 2 2 6 5 3 5 10 7 3 6 5 6 5 7 6 11 21
13 13 12 13 12 10 7 9 9 8 7 3 3 4 3 1 2 8 11 12 11 5 4 5 9 4 7 4 2 2 8 9 7 6 5 7 6 3 4 6 7 7 10 16 20
12 11 10 10 10 9 10 10 10 9 6 2 2 3 1 1 3 6 8 8 11 5 3 6 5 5 4 7 6 11 8 5 6 5 4 5 4 4 5 7 4 2 10 17 17
10 9 9 9 10 11 11 11 11 8 5 3 2 3 2 5 5 7 6 9 7 6 5 6 7 6 8 11 12 13 9 6 4 6 3 1 3 2 4 3 3 6 10 13 12
8 8 8 9 10 12 13 12 11 8 6 2 2 6 4 8 2 7 3 5 7 5 7 2 3 6 8 6 2 6 7 5 4 5 2 4 2 3 6 3 5 7 10 12 12
5 6 8 10 13 14 13 13 10 9 5 2 6 6 4 5 2 6 2 1 3 4 4 5 3 3 4 9 4 9 10 6 6 3 2 4 8 6 4 0 2 6 8 11 13
6 8 11 13 13 14 13 12 11 8 4 4 7 3 5 2 3 6 3 2 2 3 5 4 8 7 2 7 5 4 4 6 7 2 2 6 8 7 4 6 7 7 6 12 15
9 10 10 12 13 13 12 11 9 5 4 4 2 2 6 3 2 6 4 2 3 5 5 4 3 4 5 6 7 2 2 2 6 4 4 3 3 4 8 9 11 9 8 11 14
9 9 10 11 12 13 12 9 8 5 3 6 3 6 2 4 5 5 2 2 2 4 5 1 2 4 3 4 1 2 2 2 3 4 5 4 4 5 9 7 2 3 5 8 11
10 10 9 11 11 10 9 4 5 4 8 5 6 5 2 2 3 7 2 2 3 3 2 5 2 6 8 7 5 1 2 3 1 3 9 1 3 8 9 8 7 5 5 7 9
8 7 6 8 10 10 5 1 4 5 9 5 3 2 2 3 6 12 8 1 1 4 2 4 7 5 5 5 1 2 3 1 1 1 5 3 3 7 10 10 9 9 10 10 11
8 7 8 10 10 5 5 5 5 2 6 6 3 3 3 7 7 11 9 3 7 6 4 3 6 3 0 4 4 1 2 4 5 6 3 3 6 5 6 10 10 12 12 12 11
7 6 6 8 5 7 4 4 3 2 3 3 2 4 2 1 5 9 8 3 3 8 7 7 3 2 2 4 6 2 2 9 7 6 3 2 4 6 4 9 9 8 9 9 9
7 5 7 5 9 3 4 4 5 1 3 1 4 4 6 3 1 11 6 5 6 5 4 4 4 3 4 4 5 5 7 6 3 5 4 3 6 7 4 7 7 10 9 9 8
9 9 10 6 5 7 5 5 2 2 3 3 1 4 7 10 5 4 5 8 1 7 10 6 2 3 5 2 2 5 4 1 1 2 4 1 5 6 2 3 5 7 10 10 9
10 8 4 4 4 5 5 3 4 2 1 6 6 5 7 6 7 10 13 11 4 2 2 3 4 2 6 4 4 8 3 2 2 4 1 1 5 8 6 6 7 9 10 10 9
11 10 7 8 6 5 1 2 3 2 1 3 5 8 4 3 6 6 4 9 13 6 3 3 4 8 9 5 6 6 5 3 3 2 2 3 3 7 8 8 9 8 7 7 7
14 9 5 4 4 4 3 2 3 4 4 7 8 5 4 4 2 3 7 5 8 10 4 3 3 4 7 5 4 3 3 2 2 1 3 1 3 8 9 4 6 7 6 5 2
5 5 4 2 3 2 1 2 2 1 2 3 4 1 4 4 3 2 2 3 2 6 4 2 2 2 1 3 7 4 3 2 2 3 3 1 4 6 13 11 3 8 6 3 2
3 4 2 3 2 1 2 3 4 2 1 2 4 4 4 4 4 3 3 3 2 3 4 3 2 2 3 3 3 2 2 2 2 2 3 4 5 4 2 1 4 10 4 5 5
3 3 3 5 3 1 4 4 2 4 2 4 4 5 4 3 3 3 4 3 2 2 2 4 1 2 1 2 2 1 2 1 2 2 2 4 7 3 2 5 4 8 3 4 7
2 3 4 1 3 3 4 4 3 3 3 3 3 2 2 4 4 5 3 2 1 0 2 1 0 2 3 5 4 5 4 2 1 1 9 4 4 3 3 8 8 8 4 6 11
2 3 2 2 1 9 10 6 5 4 4 5 5 6 7 5 3 6 5 2 1 2 3 1 2 4 5 7 5 6 9 7 9 4 7 12 17 17 12 13 11 4 7 12 12
2 2 2 3 3 8 5 6 11 5 3 2 4 3 5 4 4 4 3 4 2 3 1 2 3 4 8 12 13 11 14 13 15 15 10 14 16 14 14 13 9 5 12 16 14
2 3 2 3 5 9 1 6 9 6 2 4 7 7 4 5 2 5 4 3 2 3 2 1 1 3 4 8 9 12 15 14 13 14 15 16 16 8 8 6 5 13 16 15 9
2 2 1 1 3 3 3 6 8 8 5 3 13 10 8 8 6 7 5 5 3 1 2 1 1 1 4 9 12 6 2 5 5 4 8 9 10 8 6 8 13 16 14 7 6

GFSSW_925_spd_021.txt.gz
Wind_Speed
18 18 17 17 17 16 15 10 9 8 7 7 6 7 7 9 7 8 3 9 5 10 9 7 7 9 10 4 5 6 6 8 6 8 8 7 8 1 3 8 2 3 10 21 20
17 17 16 16 16 15 12 9 8 8 8 7 6 6 7 7 9 3 6 8 7 5 8 11 10 11 6 4 5 9 3 11 6 5 9 8 5 6 8 8 9 8 7 21 19
16 16 15 15 13 12 10 10 9 10 9 7 7 5 6 5 11 12 7 9 7 4 6 5 8 9 6 8 5 4 9 8 5 1 8 8 4 3 4 7 9 12 12 17 17
15 14 13 13 12 12 11 10 10 10 9 6 5 4 4 4 2 8 7 10 7 3 6 7 11 7 10 7 5 5 8 5 6 4 0 5 7 4 5 11 6 6 13 14 15
13 13 12 11 11 11 10 11 11 11 8 7 2 4 2 9 7 5 7 8 1 5 10 4 3 2 2 6 7 10 8 10 8 6 1 3 5 2 6 9 6 5 10 12 13
11 12 11 10 10 10 11 12 12 10 8 3 4 4 7 5 1 4 7 5 4 4 2 4 4 5 5 9 3 7 9 7 7 5 4 7 6 8 7 6 8 9 10 12 11
9 9 10 10 10 12 13 13 12 10 5 3 5 3 11 6 1 4 5 5 5 6 1 3 1 6 9 5 5 8 9 10 8 8 4 8 9 11 7 4 7 10 10 10 11
7 8 9 10 12 14 14 13 10 7 3 3 6 4 1 1 4 3 4 3 2 3 6 5 1 2 4 7 7 11 9 11 8 7 4 10 12 11 7 5 9 10 8 9 11
6 8 9 11 13 13 12 11 7 3 3 4 3 9 4 3 6 2 3 1 2 3 4 2 5 3 5 12 11 9 10 1 8 2 2 8 5 12 2 7 10 13 13 10 10
7 8 9 11 11 11 10 7 5 4 4 3 8 8 4 1 2 2 2 3 5 7 8 7 6 10 11 10 7 6 3 4 6 7 5 9 10 5 4 6 7 8 8 8 9
7 8 9 10 11 11 9 5 6 5 11 5 9 3 7 3 4 3 2 6 8 8 10 5 11 4 10 6 7 5 5 4 4 5 6 4 6 5 4 3 4 4 4 4 6
7 7 8 9 9 9 5 6 6 6 9 6 6 7 3 3 8 6 4 9 9 9 4 9 5 4 2 3 3 3 5 1 0 3 6 3 4 5 7 7 8 9 10 10 12
6 6 8 9 10 6 5 3 2 3 6 5 3 4 3 3 4 6 7 4 4 4 5 9 9 2 3 2 7 3 7 6 9 7 10 8 8 11 8 12 11 13 13 12 11
7 5 10 12 6 7 4 0 2 4 4 6 4 4 3 1 4 6 3 4 1 3 7 6 4 0 1 2 8 9 4 8 10 8 7 12 4 8 12 10 10 10 10 9 9
6 5 8 6 5 4 4 1 1 3 3 4 4 2 3 2 2 5 4 4 3 7 5 5 3 0 1 5 6 5 7 8 8 9 10 11 9 10 11 9 9 8 9 8 8
7 7 9 4 1 4 3 2 2 4 3 6 4 7 9 8 5 4 4 6 5 4 6 8 2 4 6 5 4 7 8 6 6 5 5 2 7 13 8 8 6 8 8 7 8
10 7 4 1 3 5 4 4 5 4 3 7 9 5 7 8 8 7 5 5 0 5 5 6 4 4 6 10 5 8 7 4 3 4 2 5 6 9 8 7 7 6 7 7 7
11 7 4 3 3 4 4 6 6 3 6 4 8 10 5 7 4 4 6 9 10 5 2 3 7 6 6 5 6 5 6 3 4 3 4 6 6 7 10 9 8 5 5 5 4
12 6 4 1 2 3 7 6 3 7 7 11 12 9 8 5 2 4 9 7 7 9 3 3 4 5 4 5 6 3 4 3 2 1 3 4 6 9 11 9 4 3 3 5 4
9 9 5 2 3 5 5 3 2 2 3 13 7 4 7 7 5 3 2 2 4 7 6 3 2 1 3 4 3 6 3 4 1 3 4 2 7 4 12 9 8 4 8 7 4
9 6 3 4 3 6 5 3 4 5 2 3 3 5 6 5 4 3 3 5 2 4 4 5 3 4 3 2 8 1 1 3 4 3 4 4 4 8 5 3 5 8 9 10 7
4 5 2 4 6 4 5 6 1 8 4 2 2 4 6 5 3 3 5 5 2 3 4 5 2 2 4 4 3 4 4 5 3 4 3 4 7 7 6 2 4 9 8 5 8
3 5 2 4 4 3 5 6 3 8 3 4 3 2 4 6 4 6 6 4 3 4 6 5 1 3 4 6 5 4 1 2 2 3 10 7 6 1 4 5 6 10 7 6 9
3 3 4 5 3 10 10 10 7 3 4 3 6 6 8 6 4 7 7 4 2 4 3 2 2 3 5 9 9 8 10 9 9 7 10 11 16 15 10 11 13 12 5 10 12
2 2 2 7 5 9 9 10 10 5 3 6 4 4 8 4 7 5 7 6 3 4 1 3 2 5 9 12 12 12 13 13 14 15 14 17 17 16 13 11 11 9 10 14 16
2 3 2 2 6 10 4 10 12 5 8 7 7 8 6 7 3 6 5 3 2 4 1 2 0 4 4 6 9 13 16 17 16 10 14 13 16 8 8 10 10 15 16 15 16
2 1 3 2 7 8 7 9 9 9 3 2 11 8 9 9 10 10 7 5 3 1 3 1 1 3 4 10 13 5 2 1 4 7 8 11 11 12 10 13 15 12 14 12 12

GFSSW_925_spd_024.txt.gz
Wind_Speed
20 19 18 18 18 17 15 12 11 10 11 12 11 10 11 16 13 9 10 2 5 6 10 10 11 13 12 15 13 19 4 7 7 10 10 6 5 5 7 7 7 5 13 21 21
19 18 17 17 18 16 14 11 10 10 11 11 11 10 12 15 12 16 6 5 5 8 7 11 10 12 10 12 6 8 9 15 11 9 11 8 7 7 6 9 8 9 21 24 20
19 18 17 16 16 16 12 11 11 10 11 11 10 10 12 9 8 8 4 6 5 6 10 16 8 13 16 6 8 4 10 10 8 9 9 7 9 4 7 9 13 13 14 17 18
17 17 16 15 14 15 14 11 10 11 11 10 8 10 11 2 1 7 3 6 3 6 14 12 11 16 6 9 3 4 6 9 11 4 4 7 10 2 1 11 7 15 13 17 13
14 15 15 14 14 13 11 10 11 11 11 8 8 11 3 7 1 6 7 5 4 7 14 11 13 7 8 6 7 8 8 10 9 6 4 6 4 3 2 9 4 10 11 13 11
13 13 13 13 12 11 9 11 12 11 9 7 7 8 4 12 3 1 5 8 2 10 4 5 6 7 4 6 7 9 9 10 8 6 4 5 7 6 9 13 9 7 11 11 13
11 12 12 12 11 10 12 13 12 10 8 6 7 2 9 5 2 3 3 4 6 10 9 5 8 7 5 5 2 6 7 6 7 8 8 7 8 12 12 6 10 10 7 11 12
9 9 10 10 10 12 13 12 10 8 5 7 5 2 6 0 7 4 5 4 2 4 5 3 4 9 6 6 4 8 10 9 10 7 6 6 11 15 10 11 9 11 11 7 10
6 6 8 9 12 12 10 9 6 5 6 6 4 6 7 3 7 1 5 4 1 2 1 1 7 4 2 7 8 10 9 9 9 7 2 8 8 15 12 3 7 7 9 9 7
5 5 7 9 9 9 9 7 6 5 6 3 12 11 5 1 3 2 3 4 4 4 5 5 5 6 9 9 2 10 7 4 2 8 5 9 10 7 8 3 8 12 11 11 11
4 6 7 8 9 11 10 3 5 4 13 6 12 2 4 4 3 6 4 5 6 6 10 7 9 2 13 9 6 9 6 6 7 8 3 10 9 9 9 6 3 2 3 9 18
5 6 7 8 9 10 7 6 7 5 7 1 5 4 2 5 6 5 4 6 5 11 3 4 3 7 5 7 6 5 5 4 3 5 4 8 10 11 8 5 6 8 8 16 15
5 5 7 8 7 7 11 6 4 8 5 5 2 5 1 7 4 4 4 8 9 10 7 9 10 5 4 2 8 4 4 8 7 10 9 10 9 13 10 7 12 13 13 13 12
5 4 9 11 6 9 9 2 4 6 5 7 8 5 5 3 4 1 4 4 3 2 3 8 3 2 1 2 7 7 6 5 8 9 9 13 4 14 14 11 11 12 10 10 10
5 6 9 8 10 9 2 2 4 3 4 5 5 3 7 4 9 4 3 5 5 2 3 6 4 1 2 6 6 5 6 7 8 10 11 12 7 14 16 13 12 11 10 9 9
3 6 8 4 3 2 2 2 2 4 4 6 6 8 7 4 1 4 3 3 5 3 6 8 3 6 7 4 2 7 9 11 8 9 4 13 3 5 8 13 12 11 9 9 7
7 9 4 3 3 0 1 2 4 4 7 8 10 8 10 6 6 7 6 5 3 5 6 6 5 6 5 10 7 6 8 4 2 4 2 5 3 8 10 9 13 12 9 7 6
8 5 3 2 0 1 2 5 6 4 6 8 11 9 7 7 4 2 10 8 8 10 4 8 7 4 5 6 7 5 6 2 4 4 6 7 3 9 12 12 11 10 9 6 6
9 3 2 3 1 1 4 6 2 4 8 7 11 9 4 4 1 3 11 7 6 9 6 3 6 6 5 5 7 6 5 4 3 2 2 5 8 11 12 11 9 8 4 7 3
7 5 6 3 2 2 4 7 1 6 4 10 9 5 8 8 8 7 4 2 4 8 6 4 2 3 3 3 2 4 1 2 1 2 3 7 6 7 10 9 9 3 7 5 6
3 4 4 7 3 5 6 5 1 2 5 5 4 4 2 6 3 3 4 5 4 4 5 7 3 5 5 6 7 1 2 2 3 1 2 3 3 8 7 5 6 7 6 4 5
4 4 6 9 5 6 8 2 1 7 3 2 4 2 4 4 3 4 8 7 2 3 6 4 2 1 7 6 4 3 5 4 1 4 1 1 6 4 3 7 8 8 10 6 4
4 4 4 5 5 4 3 5 6 8 8 5 2 1 2 5 3 6 8 3 4 7 4 4 1 3 8 5 4 0 3 2 4 2 5 4 4 3 2 11 6 5 4 3 6
4 3 4 5 8 11 8 7 5 4 5 1 4 4 6 5 3 6 9 4 4 8 2 3 1 1 2 6 7 7 10 8 10 4 6 8 14 15 12 8 6 8 7 8 9
4 5 7 7 7 7 11 9 10 6 4 5 5 6 6 3 5 5 10 8 5 3 2 3 1 4 7 9 8 9 11 11 12 12 9 11 16 11 8 7 10 14 13 14 14
4 2 3 4 11 9 5 7 11 7 9 9 4 7 8 6 3 7 6 5 4 4 2 3 1 3 3 5 10 13 15 13 13 13 10 11 12 11 5 14 13 13 16 13 12
2 2 2 2 4 5 5 8 9 9 2 4 6 7 11 12 12 11 10 8 5 4 4 2 1 2 3 9 10 3 3 6 8 7 9 5 10 8 14 13 14 13 13 11 13

GFSSW_925_spd_027.txt.gz
Wind_Speed
17 18 18 18 16 16 16 13 12 12 12 13 11 11 13 17 17 9 6 9 10 12 9 10 11 13 14 5 10 4 2 9 14 8 4 3 6 6 6 9 7 5 18 18 27
18 18 18 17 15 14 14 12 12 12 12 12 10 11 14 15 14 11 16 13 9 12 11 11 6 12 3 6 5 6 4 2 6 8 7 3 9 6 6 8 10 11 19 27 25
19 18 18 16 14 14 13 12 12 11 11 11 9 12 11 11 5 7 9 9 7 10 15 12 18 4 6 3 5 2 5 5 8 9 10 8 6 7 8 7 16 18 14 13 21
18 17 16 15 13 13 13 12 12 11 11 9 9 11 10 2 3 5 4 4 4 8 12 7 6 6 3 5 3 6 8 8 6 8 8 8 6 4 7 10 13 20 21 15 10
15 15 14 13 12 12 12 11 11 11 10 8 9 10 1 2 7 5 5 6 10 10 15 8 8 6 8 5 5 9 6 7 6 9 7 7 4 4 7 10 11 19 18 16 14
14 13 12 12 11 11 10 11 11 11 9 7 8 6 1 5 6 2 5 8 13 15 13 12 3 5 2 4 6 7 9 8 4 4 3 2 3 3 5 9 10 16 15 14 15
12 12 10 11 10 10 11 11 11 8 7 7 7 2 3 11 11 5 6 5 11 12 6 14 12 7 6 6 3 8 6 6 6 8 4 2 2 6 7 10 11 11 11 12 15
9 9 9 9 10 11 11 9 7 7 6 7 5 2 5 6 9 5 9 4 4 10 12 12 13 6 3 3 5 3 5 4 6 8 6 7 7 7 10 10 10 11 9 9 11
6 6 7 8 9 8 7 7 5 6 7 5 2 3 6 5 4 4 4 9 5 3 4 8 5 2 4 3 3 2 5 7 4 9 5 5 6 10 9 9 7 7 8 7 3
5 3 4 6 8 8 8 5 4 5 4 3 7 4 8 4 4 2 1 4 3 3 2 2 1 2 5 4 3 4 3 5 8 3 3 4 1 4 5 7 2 3 3 15 18
3 4 6 7 8 9 7 2 2 1 5 7 7 5 5 6 5 8 9 5 4 3 4 5 5 4 4 4 3 3 5 10 5 5 3 3 3 6 6 8 6 13 18 15 15
3 4 6 7 7 7 7 3 5 2 5 17 6 5 3 5 4 5 4 1 3 6 6 4 4 4 3 2 5 6 6 5 3 4 4 3 2 6 9 6 17 17 15 14 13
4 5 8 8 7 8 10 10 9 10 4 3 1 5 1 4 1 4 3 5 6 6 5 6 3 2 4 7 9 8 6 5 3 6 3 3 2 7 7 12 18 12 10 11 14
4 5 9 10 5 6 5 4 5 7 4 3 3 3 2 4 4 4 1 3 4 3 10 6 4 4 4 8 7 5 6 6 6 4 3 5 1 3 10 11 14 13 11 9 12
4 5 10 12 7 0 4 4 6 3 4 7 4 6 3 1 8 2 2 5 4 4 7 2 4 8 9 4 4 1 2 4 3 4 3 7 4 4 12 11 11 9 10 10 9
5 8 9 3 4 4 7 4 1 5 2 2 5 4 5 3 1 5 3 2 3 6 8 5 5 4 4 3 3 5 4 6 5 2 2 6 4 1 6 14 6 10 10 9 9
5 10 6 2 1 6 5 2 5 3 6 5 4 7 7 3 4 6 5 3 3 3 2 3 4 3 2 4 1 4 6 4 4 4 3 5 7 1 7 13 15 13 10 9 8
8 8 3 2 2 3 4 5 1 4 5 5 6 4 7 2 4 3 6 4 8 6 3 5 1 5 5 5 2 4 3 4 0 1 4 5 3 2 10 11 10 9 9 8 7
9 4 1 1 1 2 5 3 5 4 5 6 5 5 4 3 1 4 7 3 5 7 4 4 3 3 6 3 3 6 5 3 4 2 3 1 3 6 9 8 7 8 7 7 8
7 4 4 2 2 3 4 4 1 6 3 4 5 6 7 8 4 3 3 5 3 4 3 4 4 2 4 1 3 4 2 5 4 1 3 4 3 3 6 6 5 5 7 7 7
4 2 5 7 4 4 3 5 3 5 9 5 3 2 2 7 6 4 4 4 7 2 7 5 4 3 1 4 4 4 3 4 2 4 4 1 3 2 4 4 4 8 6 7 6
2 1 7 9 3 2 2 4 1 4 3 3 3 4 3 4 5 5 5 4 5 5 3 3 4 3 3 3 3 1 2 4 4 3 1 4 5 2 8 7 7 6 5 6 7
3 3 3 2 3 2 6 2 2 5 4 0 5 6 5 4 5 9 5 6 8 5 1 2 2 3 4 4 5 2 2 5 5 3 4 5 5 5 7 8 4 6 9 7 8
1 2 2 1 2 4 4 3 3 6 2 4 5 4 1 5 4 4 4 3 5 3 3 3 2 5 5 2 1 2 4 4 6 3 3 6 6 10 7 4 7 7 7 7 9
1 4 7 4 4 4 5 8 5 2 2 2 1 3 4 3 4 5 5 4 2 1 2 3 3 4 4 5 5 3 4 6 4 5 4 7 5 3 9 7 8 8 12 11 10
2 2 2 4 5 4 5 6 9 8 6 4 3 6 8 5 3 5 8 6 4 4 4 4 1 2 3 5 7 4 7 8 7 4 3 4 3 11 9 7 11 10 9 8 7
5 3 4 4 4 3 4 1 3 7 3 4 6 11 13 7 8 7 7 5 6 5 3 3 4 3 3 4 6 4 4 3 1 2 1 1 3 7 11 12 8 8 8 6 6

GFSSW_925_spd_030.txt.gz
Wind_Speed
18 17 17 17 17 14 15 16 15 14 12 11 11 13 12 14 17 13 8 12 6 9 13 7 5 7 3 3 4 4 2 3 7 3 14 6 9 5 4 8 1 2 7 20 36
20 19 18 17 16 15 14 16 16 14 11 10 11 11 10 14 15 13 24 18 13 12 12 9 4 4 2 3 3 4 3 5 4 8 6 6 10 7 7 7 6 10 15 26 35
21 20 18 17 16 15 14 15 15 12 10 9 9 7 9 12 4 8 12 19 21 16 15 5 6 3 5 3 4 5 5 1 6 3 8 7 5 4 10 4 17 22 16 16 23
20 19 16 15 15 15 14 14 14 12 10 7 7 5 9 3 4 5 7 7 11 12 13 6 4 3 4 4 5 5 1 6 2 1 4 9 7 5 5 8 19 22 21 12 12
18 16 14 14 14 14 13 12 12 12 8 6 3 5 2 1 8 7 10 9 11 7 10 5 4 6 6 3 3 8 3 6 6 7 3 4 6 3 4 11 14 17 17 17 17
16 14 13 12 13 13 12 12 10 9 7 4 3 5 0 3 6 13 11 6 9 11 8 7 6 7 5 9 6 6 7 7 5 2 3 5 3 4 2 15 15 18 17 17 17
14 13 12 11 12 12 12 11 8 7 5 2 3 1 2 12 8 15 11 10 2 2 2 2 3 5 1 6 6 8 6 5 1 3 2 5 3 6 6 17 19 19 18 16 17
12 11 10 10 12 11 9 7 7 6 3 2 2 2 6 11 14 16 8 6 4 5 8 10 12 2 5 1 6 5 5 3 4 4 1 5 6 5 8 15 18 17 14 14 3
9 7 8 9 8 7 7 7 6 3 1 1 1 3 8 12 5 10 4 5 3 4 7 11 5 2 7 4 5 5 4 5 2 8 3 3 5 6 8 10 11 5 9 9 11
5 5 6 6 6 8 9 7 4 2 3 2 3 2 6 4 4 1 1 4 3 5 7 6 5 4 4 5 3 5 4 4 6 4 3 4 2 6 4 7 8 13 12 14 17
4 5 5 7 9 9 9 3 1 2 4 7 5 3 4 3 4 3 3 3 3 3 0 6 6 2 5 4 4 2 3 9 1 0 3 5 5 4 6 13 14 14 16 14 15
4 5 7 8 9 8 7 2 2 1 3 10 10 8 22 6 1 3 4 2 1 2 3 6 3 4 4 7 8 5 8 4 5 6 5 4 6 7 5 7 15 17 14 14 11
6 7 10 10 8 8 6 5 7 9 1 4 7 6 3 2 2 4 3 1 3 3 3 5 5 1 7 6 8 6 5 2 3 3 4 10 5 7 6 10 9 8 11 12 13
7 8 10 10 5 3 4 6 4 3 3 3 1 2 1 4 3 1 2 2 3 0 9 4 4 6 6 5 2 2 1 2 3 4 1 3 3 1 4 8 8 9 8 9 11
7 8 12 12 2 6 3 6 5 1 3 3 2 6 1 3 4 2 2 3 1 2 7 2 4 7 6 0 1 3 1 0 1 3 3 3 6 3 7 9 8 6 9 8 9
8 9 12 10 5 1 6 7 1 6 2 4 5 4 3 0 2 3 1 3 1 6 6 4 3 4 2 3 2 2 3 7 4 3 3 4 5 5 5 7 6 5 7 8 7
8 12 11 4 1 3 5 3 5 4 2 5 4 5 5 4 3 3 4 6 4 4 3 5 3 4 3 4 5 8 5 3 4 4 4 5 5 1 4 9 12 9 6 7 7
12 14 6 4 1 3 2 5 2 4 5 4 5 5 5 3 3 3 3 3 6 4 3 4 2 4 7 3 1 2 5 4 3 2 4 5 3 4 6 13 11 9 7 6 6
12 7 4 4 1 1 5 3 5 4 6 6 5 5 2 2 4 6 3 2 1 3 5 4 1 1 2 1 3 3 4 4 6 3 3 1 3 3 3 9 8 7 7 8 3
9 5 3 5 4 5 4 5 3 3 3 5 5 5 5 6 3 4 2 3 0 3 2 2 4 2 2 5 5 5 2 4 4 2 0 3 4 4 7 6 8 7 7 6 6
4 3 4 5 4 5 3 5 3 3 5 4 2 5 5 6 6 3 2 3 4 3 5 2 4 4 4 2 2 4 3 5 4 3 4 2 5 4 7 7 9 7 7 7 6
4 3 4 6 3 1 2 4 4 3 5 5 3 4 4 4 4 4 3 2 6 2 3 2 5 3 2 2 1 2 3 4 4 2 1 4 4 3 8 9 8 4 7 6 8
4 3 3 1 3 2 4 4 2 2 1 2 2 4 4 4 6 3 4 2 8 4 2 2 2 3 6 6 5 2 2 5 6 3 5 5 5 5 4 9 8 11 9 8 6
3 3 3 3 1 6 2 3 2 3 2 3 3 5 5 5 6 4 3 4 4 3 2 2 3 5 6 4 3 1 2 4 5 3 3 5 5 6 6 11 7 8 8 6 6
2 4 6 4 3 3 4 4 3 1 2 3 4 3 5 3 3 4 3 2 4 3 3 3 3 1 1 3 1 1 2 1 4 4 5 6 6 5 7 8 7 7 6 5 4
3 3 2 3 5 6 5 6 8 3 3 0 3 4 5 4 5 7 7 3 4 2 2 3 1 2 3 6 6 3 5 5 4 4 4 8 6 3 5 6 6 6 6 5 4
2 1 5 2 5 4 4 6 9 8 6 4 11 8 9 4 4 5 4 5 6 6 2 3 4 3 4 4 5 6 5 3 1 2 4 5 6 6 5 6 5 4 3 0 2

GFSSW_925_spd_033.txt.gz
Wind_Speed
19 20 18 18 17 16 16 15 15 15 14 14 13 12 12 13 15 11 8 11 4 3 10 4 3 2 1 2 2 3 4 3 4 8 6 6 6 0 2 7 2 1 5 17 30
21 21 21 19 18 16 16 15 15 14 13 13 11 8 9 13 15 12 23 16 13 8 6 9 4 5 1 0 1 3 4 8 9 7 16 6 11 8 4 1 6 8 12 27 28
22 23 21 20 17 16 15 15 14 13 14 12 8 6 8 11 4 8 5 12 17 12 9 6 6 2 1 2 5 5 5 5 7 8 7 8 6 4 11 2 8 15 16 18 23
23 22 20 18 15 14 15 14 13 12 13 9 5 5 8 2 4 3 6 3 8 17 10 5 3 2 5 6 6 2 3 4 3 8 7 9 7 8 2 9 11 21 22 19 14
22 21 18 17 15 14 13 12 12 11 11 6 4 5 2 2 8 4 8 6 8 15 13 6 5 6 4 5 5 5 4 5 5 8 6 7 5 8 6 8 10 16 19 19 16
21 19 17 15 14 13 12 12 10 9 7 4 5 3 1 3 6 3 14 6 12 15 9 11 9 8 4 4 4 4 4 4 4 5 4 6 2 3 3 8 13 17 17 15 17
19 17 15 14 12 12 11 9 7 7 5 4 4 1 2 12 3 19 17 8 14 14 5 13 11 5 6 2 2 5 6 4 3 1 2 6 4 4 6 12 18 17 16 13 11
16 15 13 12 11 10 8 7 6 6 4 3 3 2 7 6 15 16 12 6 8 9 6 2 7 4 3 4 6 4 5 3 3 3 3 4 6 2 9 15 16 11 3 7 9
14 12 11 10 8 8 6 6 6 5 4 2 2 3 8 11 7 7 6 5 4 2 4 2 5 4 6 6 4 6 3 2 4 4 2 3 4 1 8 11 7 7 7 9 7
12 10 9 9 8 7 7 8 5 3 3 1 4 2 5 3 4 3 1 3 4 4 6 9 6 4 4 5 3 3 2 2 5 3 4 2 3 6 6 9 9 8 8 10 10
10 8 8 8 9 10 11 5 2 1 3 7 4 3 3 10 4 3 3 3 5 8 4 5 6 2 3 2 3 3 1 3 1 3 5 5 7 8 7 13 10 8 10 11 12
8 8 8 9 11 12 9 2 4 2 4 11 6 6 10 8 4 2 2 4 4 2 3 6 2 1 7 5 6 6 6 2 1 5 7 6 11 9 8 6 7 11 10 9 8
9 10 11 12 11 9 6 5 4 5 2 5 6 4 6 7 3 2 3 2 2 2 2 4 3 5 6 6 8 5 4 2 3 5 7 6 6 7 6 7 7 7 5 6 10
10 11 12 13 8 6 5 3 3 1 4 4 2 5 3 4 3 2 2 3 3 2 6 5 5 5 6 6 4 3 1 3 3 4 4 3 2 0 1 6 5 5 5 6 7
12 13 14 13 6 5 1 3 2 4 3 3 3 2 2 4 3 3 2 4 2 4 6 3 3 5 5 1 2 3 2 2 2 3 4 2 5 3 5 3 4 4 5 7 8
13 15 17 12 3 5 3 1 3 6 2 2 4 3 4 2 1 1 5 7 3 5 6 3 1 3 2 1 1 1 4 6 4 3 2 3 5 4 7 7 6 5 6 6 5
14 15 17 8 3 3 1 3 5 4 1 4 4 3 3 2 3 3 4 5 3 5 3 5 3 4 2 2 2 6 5 2 3 3 4 5 2 4 5 9 6 7 8 7 7
15 17 13 7 3 2 2 5 2 4 5 3 5 3 5 3 4 3 3 3 5 4 3 4 4 4 5 2 3 3 4 4 4 3 3 5 3 4 1 9 9 6 7 6 7
17 17 4 5 4 3 6 3 5 5 3 6 5 4 2 2 5 5 3 2 0 2 5 4 1 3 2 2 3 1 3 3 6 3 3 2 2 5 3 7 7 9 8 7 3
13 8 3 7 5 5 5 5 4 4 1 5 4 4 5 5 4 4 1 2 2 4 2 5 4 1 2 3 3 4 4 3 4 2 1 3 4 4 8 9 9 8 5 6 6
6 4 3 6 4 5 3 6 4 4 1 4 5 4 5 6 4 3 1 3 3 2 4 3 4 4 2 3 1 4 2 6 5 3 4 1 5 4 11 10 8 5 5 7 6
5 3 2 4 4 1 3 5 3 2 6 4 4 3 6 4 4 3 4 1 5 0 2 2 5 3 1 4 3 2 2 4 4 2 1 3 5 4 4 7 7 7 8 7 7
4 2 2 2 4 1 3 3 1 2 3 2 2 2 2 5 6 2 3 1 4 3 4 2 2 3 6 6 5 2 3 5 5 3 4 4 5 2 6 7 6 9 8 6 6
4 3 3 3 1 7 3 2 0 3 3 3 3 5 5 5 6 4 3 2 2 3 3 4 3 5 6 4 3 3 2 3 5 3 3 6 3 2 5 7 5 6 7 6 5
2 4 5 4 2 4 4 2 4 2 2 4 3 3 5 4 3 4 2 2 4 2 3 4 4 2 3 4 1 2 4 6 6 5 6 5 7 6 9 8 7 6 6 5 3
4 4 3 2 6 6 3 6 7 2 2 0 5 3 1 6 6 7 6 3 3 3 3 4 1 2 1 5 5 4 6 6 6 4 6 4 4 4 5 6 5 6 6 4 3
3 2 4 3 4 6 5 6 8 6 3 2 8 5 5 2 3 4 4 5 5 6 3 3 4 3 3 4 5 6 8 9 5 4 6 6 7 8 6 7 7 7 6 5 4

GFSSW_925_spd_036.txt.gz
Wind_Speed
16 17 20 20 20 21 20 21 19 18 17 16 15 13 12 13 15 12 8 12 1 7 10 3 3 4 3 2 3 3 4 3 8 11 5 5 4 4 2 4 4 4 6 12 26
18 18 22 21 20 21 20 20 18 17 16 15 13 11 11 13 15 14 19 13 13 7 5 6 1 3 0 2 2 4 3 7 5 8 10 15 15 7 5 2 4 4 10 26 28
18 20 23 20 20 21 19 17 17 16 16 13 10 9 9 11 4 7 9 5 16 14 5 5 3 2 2 2 3 4 5 6 5 2 6 6 5 2 10 2 5 12 12 15 21
20 20 22 19 19 18 18 17 16 15 13 10 8 8 8 3 2 2 11 1 8 14 9 5 4 4 3 4 3 2 5 5 2 6 6 9 7 4 2 4 10 16 20 16 13
20 21 20 18 18 17 16 16 14 13 10 8 7 5 3 2 8 3 13 1 7 14 9 5 4 5 3 4 3 2 2 3 8 8 8 8 4 7 2 5 11 14 16 16 15
20 22 19 16 17 16 15 14 13 10 8 6 5 2 1 4 3 3 12 6 8 15 9 9 6 6 3 3 5 5 4 3 4 5 5 6 3 5 1 7 11 15 13 11 13
20 21 17 14 15 14 13 12 11 8 6 5 3 1 1 11 3 15 17 11 12 15 6 18 15 3 4 4 2 4 4 5 4 2 3 5 1 2 4 10 13 13 8 5 2
19 19 15 13 13 12 10 9 8 6 5 4 3 2 7 5 11 15 9 5 7 11 18 8 17 5 2 2 6 5 5 3 3 2 1 4 5 2 7 14 8 8 7 6 4
18 16 14 11 11 9 9 7 6 5 4 2 1 3 8 8 7 5 5 3 2 6 8 5 9 4 4 5 5 6 4 2 2 1 3 3 1 9 3 8 7 7 6 6 5
16 14 12 10 9 9 8 6 4 2 3 1 3 2 6 2 5 4 2 3 1 1 5 7 5 5 5 5 5 5 3 2 3 2 6 6 4 7 6 7 7 6 6 6 7
13 11 9 10 9 11 10 5 1 2 4 7 4 3 3 10 4 1 2 1 3 8 3 5 7 3 3 3 3 3 4 2 1 3 7 5 5 8 7 8 7 7 7 7 8
12 9 8 9 10 12 9 2 5 2 4 11 6 6 11 4 2 3 1 3 4 2 1 6 4 3 4 5 6 5 6 3 2 6 7 5 8 7 7 4 4 7 6 7 7
11 9 10 11 11 11 9 8 4 6 2 3 6 5 4 7 3 4 2 3 3 3 5 6 0 3 4 5 9 4 5 2 3 3 6 4 5 5 5 6 6 5 5 5 8
11 11 12 13 8 7 6 6 6 5 4 4 3 4 4 2 2 2 1 3 4 4 5 5 3 4 6 6 3 3 0 3 4 3 3 3 3 2 3 3 2 4 5 6 6
12 13 15 19 4 6 2 4 4 2 3 3 3 1 2 5 4 3 5 5 4 4 4 1 2 5 7 1 3 1 5 5 4 5 4 3 4 4 6 5 8 5 5 6 5
15 16 18 17 7 6 3 4 1 6 3 2 4 4 4 2 2 1 5 7 4 6 6 3 2 3 2 3 3 4 5 8 5 3 2 1 4 4 6 6 5 4 5 6 6
17 19 23 9 3 4 4 3 5 4 2 3 4 3 3 2 4 4 5 5 4 5 4 6 4 5 3 3 3 6 5 3 3 3 4 3 2 6 4 5 9 9 8 7 7
17 19 24 13 5 2 2 5 2 3 5 1 4 3 4 3 4 4 3 3 5 4 3 4 4 3 5 2 4 3 5 4 4 3 3 3 4 4 4 7 9 8 7 6 5
18 17 6 8 9 4 5 4 6 6 3 6 4 5 1 2 5 4 3 2 1 1 5 4 0 2 2 2 3 2 3 4 6 1 2 2 4 4 6 5 6 8 7 8 5
17 11 5 8 8 4 5 5 3 4 1 4 4 4 4 4 4 4 1 2 2 3 1 5 4 2 2 2 5 2 5 3 3 2 3 3 4 4 5 7 7 9 8 6 6
8 3 3 8 7 5 4 5 4 6 4 4 5 4 4 4 3 2 2 1 1 2 3 3 4 4 1 3 3 2 2 6 4 3 4 1 5 5 11 11 13 8 7 8 7
6 3 2 7 4 1 4 5 3 4 2 3 4 3 5 3 4 3 4 2 3 1 3 1 5 2 2 2 2 2 3 4 4 3 1 3 6 2 7 8 8 7 7 6 6
4 3 4 1 4 1 3 1 2 2 3 2 3 3 3 4 5 2 3 1 3 2 6 5 2 3 6 5 4 2 3 4 5 3 5 5 5 3 4 6 4 8 7 7 6
4 3 3 3 1 7 5 3 2 2 2 4 4 4 5 4 5 5 3 1 1 2 4 6 3 5 7 4 3 4 4 4 5 3 4 6 4 3 3 5 6 7 7 7 6
2 3 4 3 1 3 4 6 4 2 2 5 4 3 4 4 3 3 2 2 4 1 3 3 4 2 2 3 2 2 4 6 7 5 6 4 7 6 9 8 7 7 7 6 5
4 4 3 2 6 6 3 6 6 3 3 2 6 2 2 6 6 8 6 4 4 3 3 3 2 1 2 3 5 3 6 7 5 3 7 4 8 6 4 7 7 8 8 6 5
3 3 5 3 3 5 6 6 7 6 3 3 6 5 3 1 3 4 5 7 5 5 3 3 5 3 4 4 5 6 9 9 5 5 7 6 8 6 4 8 10 9 8 7 6

GFSSW_925_spd_039.txt.gz
Wind_Speed
15 16 18 19 20 20 20 20 17 15 16 18 17 16 14 15 16 12 10 11 3 17 7 2 3 2 1 1 2 3 2 4 6 8 2 4 7 3 2 6 3 3 2 10 21
16 17 18 20 21 20 21 20 17 14 16 16 15 14 13 14 15 13 19 13 12 7 10 7 3 4 0 1 2 3 3 5 7 11 13 19 16 11 7 8 3 5 10 20 20
17 18 19 21 21 20 20 18 16 14 15 14 13 12 11 11 4 6 8 5 19 14 6 8 6 4 2 2 5 4 5 6 3 11 10 8 5 4 10 10 6 11 15 17 18
17 19 20 21 21 19 18 17 14 12 12 12 12 11 8 4 3 1 7 1 18 17 11 8 4 4 4 5 4 2 4 2 2 4 4 7 10 5 5 3 5 17 21 19 17
18 19 20 20 20 18 17 14 13 10 10 11 11 7 4 1 8 4 5 6 14 17 14 6 5 4 4 4 4 5 3 5 7 7 4 8 5 5 3 4 14 18 17 17 18
19 20 21 20 18 17 16 12 10 8 9 9 6 4 2 4 4 5 4 4 9 18 10 8 7 7 3 4 3 3 3 5 3 9 4 5 3 4 2 11 15 18 16 15 15
19 20 20 19 17 16 14 11 8 7 7 7 4 1 2 13 3 5 17 11 11 18 6 14 6 3 1 1 3 4 8 5 6 4 3 9 3 4 1 12 16 13 11 11 11
19 20 19 18 15 13 11 9 7 7 6 4 3 1 7 7 9 17 12 5 7 15 14 4 14 0 0 1 4 4 4 5 2 3 2 1 3 8 3 13 14 13 11 10 5
18 19 18 15 12 10 8 7 6 4 2 2 2 3 8 9 7 5 4 2 2 6 7 5 8 2 2 4 3 7 3 3 4 4 4 2 3 8 5 7 9 9 8 7 5
18 17 17 13 10 8 6 4 2 2 2 1 4 3 7 2 6 6 1 2 3 5 3 2 2 3 2 3 4 3 4 1 4 2 10 7 3 6 6 7 7 6 6 5 5
17 16 14 11 9 8 7 4 2 1 4 7 4 3 5 11 5 1 1 1 4 6 2 2 3 3 2 2 3 4 3 4 3 4 6 5 4 7 4 6 7 6 6 6 6
16 15 12 9 9 10 11 3 5 2 3 13 6 6 12 5 3 3 1 3 3 2 2 4 3 2 5 5 5 4 6 3 3 3 4 4 8 7 5 2 3 8 8 9 10
16 13 11 10 11 11 12 12 3 5 1 3 5 5 4 7 3 3 1 2 3 2 2 5 1 3 3 4 8 5 6 3 4 4 6 3 2 2 5 5 5 5 8 10 14
15 13 12 12 7 7 8 12 14 5 3 2 3 5 3 3 1 2 0 3 4 4 3 5 3 4 3 3 2 4 2 4 6 2 2 2 3 1 2 4 6 9 10 11 10
15 14 15 18 5 6 2 6 4 1 3 3 4 3 2 5 3 1 5 4 5 4 3 1 2 4 3 0 2 4 3 4 3 4 2 1 2 1 3 6 11 11 10 9 7
15 16 17 22 8 11 3 3 3 5 3 3 4 5 4 3 2 2 3 6 4 5 5 3 1 3 2 3 4 8 5 5 3 2 1 1 3 3 6 8 13 11 10 9 8
17 19 24 16 4 5 5 3 3 4 2 3 3 4 3 2 3 3 3 4 3 4 3 4 3 3 3 4 3 4 4 2 1 1 3 2 2 5 4 6 17 16 13 11 10
18 20 26 22 11 2 4 3 3 3 5 1 3 4 5 4 2 3 3 2 4 5 3 3 0 3 4 2 4 2 3 4 4 3 1 0 4 2 3 6 13 15 14 12 11
14 17 14 27 21 11 4 2 6 6 3 6 3 5 2 1 4 3 2 2 1 1 4 4 1 1 3 1 1 4 2 2 6 2 1 2 3 5 2 4 11 15 13 13 12
13 9 7 14 13 8 4 5 4 4 3 2 4 3 4 3 3 3 1 1 2 2 1 4 3 1 1 1 6 1 7 3 2 3 3 2 4 4 4 8 11 15 16 13 9
9 3 6 14 14 3 4 6 5 5 5 6 5 4 3 5 3 2 3 1 1 2 3 3 3 2 1 0 5 2 2 5 4 1 2 1 4 3 8 11 16 16 13 12 9
8 3 8 17 3 0 4 5 3 3 3 4 4 3 5 3 3 3 5 2 1 1 4 1 4 3 2 0 1 1 3 4 3 4 1 1 5 1 5 7 8 11 9 8 10
5 3 3 5 4 1 2 3 3 1 2 4 3 3 2 4 4 2 3 0 1 3 6 5 1 3 2 2 1 3 3 4 5 2 5 4 4 2 3 5 11 12 9 11 12
4 3 2 3 1 8 5 4 3 3 1 4 5 4 4 3 4 5 3 1 2 2 6 5 3 4 6 3 2 4 4 4 4 3 4 6 4 5 6 7 7 10 12 13 11
1 4 4 4 2 4 3 6 5 2 1 2 4 3 5 4 2 3 2 2 3 3 3 3 4 2 1 1 1 2 4 9 8 4 7 4 9 6 7 11 11 10 13 13 12
5 4 3 2 6 6 0 6 6 3 1 1 7 3 3 6 6 8 6 4 4 2 2 2 3 2 3 1 3 4 5 6 7 4 11 5 14 9 1 7 11 14 15 14 12
4 3 5 3 3 6 5 6 7 7 3 4 6 5 4 2 3 3 6 8 5 5 3 2 5 3 3 3 3 5 9 13 6 6 8 10 9 5 6 10 15 16 14 13 11

GFSSW_925_spd_042.txt.gz
Wind_Speed
14 14 15 16 18 19 20 20 20 19 16 16 16 15 15 17 18 8 13 13 6 14 9 5 6 6 5 5 4 2 6 9 8 12 7 10 10 2 1 3 4 3 1 7 23
13 15 16 17 19 20 20 20 18 18 15 15 15 14 14 15 13 16 18 14 12 10 12 10 8 9 6 6 5 7 8 3 6 15 15 5 14 11 8 6 4 7 10 22 22
14 14 15 17 19 21 19 18 17 16 14 14 14 12 12 11 7 4 4 6 17 14 8 7 6 8 8 6 7 7 7 5 3 16 14 19 12 8 9 9 9 10 18 20 21
15 15 16 17 19 20 19 17 15 15 12 13 13 10 9 3 1 3 8 2 21 17 10 9 9 8 8 9 9 8 4 3 8 13 12 13 10 7 7 8 4 8 21 23 18
16 16 17 18 19 19 18 16 14 13 12 12 11 8 3 6 8 6 2 5 19 15 15 10 9 9 10 10 6 12 4 5 12 18 12 10 12 8 5 7 10 17 19 18 17
17 16 18 18 18 18 16 14 11 11 11 10 7 4 4 8 2 5 4 5 8 16 14 13 5 9 4 4 10 5 5 7 7 9 6 11 7 7 4 8 13 17 15 15 16
17 16 18 18 17 16 14 12 10 10 10 8 4 1 6 12 1 5 7 6 8 13 10 15 12 7 2 2 3 11 10 6 8 12 8 11 10 4 1 8 14 15 13 14 14
16 16 16 16 15 14 12 10 9 9 7 5 2 2 7 7 6 13 14 10 9 13 12 3 12 10 4 1 5 7 14 9 9 13 4 6 11 4 5 10 13 13 12 12 12
17 16 15 15 13 12 9 8 7 6 3 1 1 4 7 8 8 6 7 3 7 8 8 2 10 5 6 10 9 9 9 11 8 2 8 7 9 4 6 11 12 12 13 13 11
16 16 14 13 12 9 6 4 4 2 1 1 4 5 8 0 4 5 3 4 4 9 5 4 6 5 6 9 8 7 8 9 10 5 10 8 7 5 6 12 12 12 11 10 10
16 15 14 12 9 6 4 2 5 5 6 7 1 5 4 11 3 5 1 4 2 6 10 7 7 6 13 4 4 4 6 12 8 4 7 6 6 5 6 10 11 11 10 10 8
16 14 13 11 7 7 6 6 3 4 6 18 14 9 14 5 4 4 1 4 1 1 3 6 3 5 5 4 3 5 7 7 5 4 5 9 6 4 6 8 9 10 10 9 9
15 14 12 8 6 8 11 15 3 9 5 3 6 8 4 8 3 6 3 2 3 2 4 5 6 4 7 8 7 4 3 10 5 7 2 9 8 8 4 6 6 7 7 8 9
15 13 10 7 4 7 8 13 15 9 4 7 6 5 5 4 5 1 1 2 1 6 3 4 3 4 6 6 3 5 2 5 11 10 7 8 7 10 9 8 9 9 10 11 12
16 13 11 14 1 8 1 6 6 3 5 10 7 3 5 5 3 3 3 3 6 4 3 4 5 5 4 3 1 4 4 4 3 4 5 9 7 8 9 10 12 12 13 13 12
17 12 12 14 10 9 1 4 5 5 5 8 7 9 9 4 3 3 3 4 3 2 2 5 3 2 3 6 2 10 8 6 2 3 8 4 6 9 7 7 13 14 15 14 12
16 13 18 11 5 5 7 5 6 6 3 7 10 11 12 6 6 5 8 9 7 9 9 6 3 3 3 9 6 6 6 3 3 4 6 3 6 11 2 3 10 17 17 16 14
15 14 17 15 8 2 6 7 9 6 8 2 7 13 12 9 5 4 8 8 3 6 9 9 7 5 1 3 2 2 3 3 4 3 1 3 5 2 2 2 6 16 17 16 15
14 11 8 14 19 3 6 11 8 6 7 9 10 15 8 7 4 7 5 7 3 4 7 6 4 4 3 2 3 5 4 3 2 1 3 3 4 8 2 3 8 16 17 17 17
14 10 11 11 16 9 6 14 9 4 5 10 13 13 14 13 9 9 9 4 4 2 3 4 4 2 5 2 7 4 9 3 3 3 4 3 5 2 4 7 10 16 18 18 16
13 6 9 16 15 7 10 14 7 6 6 11 13 8 12 9 9 10 9 4 4 4 1 5 3 6 4 7 6 4 4 1 0 2 2 3 2 3 1 5 11 15 17 17 16
12 9 13 28 8 8 12 12 4 7 5 7 7 7 12 11 8 9 10 3 4 4 5 2 1 4 5 3 1 2 5 8 4 4 1 2 3 4 1 2 8 12 15 15 14
8 5 6 7 11 8 9 7 6 6 8 9 8 5 6 10 5 5 6 2 3 5 6 6 3 4 4 4 4 7 9 5 4 1 6 3 3 4 4 5 8 11 13 13 13
10 7 5 5 7 15 13 15 8 2 5 4 5 4 8 6 1 7 7 3 2 2 3 3 3 7 10 2 0 6 11 11 11 4 5 10 12 8 8 8 7 12 14 16 15
7 8 11 12 14 12 16 14 14 6 3 7 5 8 8 5 6 6 6 5 3 5 3 3 6 4 2 0 3 4 8 13 15 14 8 11 11 11 5 9 9 10 12 15 16
7 6 5 16 17 13 12 12 17 6 6 7 8 10 7 6 8 10 10 7 5 6 5 2 3 3 3 2 2 7 8 10 15 16 15 19 20 15 8 7 8 11 14 15 15
6 2 11 4 14 12 11 12 14 11 1 3 11 9 6 4 5 7 7 7 5 7 6 4 5 4 2 2 3 6 15 18 13 12 15 14 16 3 6 8 10 12 15 16 16

GFSSW_925_spd_045.txt.gz
Wind_Speed
14 14 14 15 16 19 20 21 19 19 19 18 17 18 19 19 21 13 16 14 11 12 9 8 10 12 14 14 10 13 11 15 11 16 9 11 19 15 9 8 2 3 4 9 24
15 15 14 14 17 19 21 21 19 18 18 17 17 18 17 18 19 23 22 16 15 12 16 14 11 11 12 12 9 11 12 11 9 14 7 17 5 12 7 6 6 8 11 19 22
15 14 14 15 16 19 21 21 19 16 16 17 16 16 15 14 15 1 2 13 15 12 17 12 12 10 15 9 13 14 15 6 23 20 17 6 10 11 11 19 16 7 14 19 20
16 15 15 15 17 19 20 19 17 15 15 16 15 14 12 10 3 8 8 4 14 15 14 10 10 12 13 11 13 11 11 7 4 11 3 2 12 8 9 4 8 18 20 17 18
17 15 15 15 17 20 18 18 17 14 15 14 13 10 7 9 13 3 6 2 15 15 15 11 10 11 11 11 9 11 9 3 8 9 9 9 12 28 12 8 9 21 19 18 17
17 16 16 17 17 18 18 16 15 14 13 12 10 5 10 13 2 3 2 5 8 16 16 13 9 11 10 6 9 8 6 5 8 7 13 11 14 13 9 9 16 18 17 16 17
18 17 16 16 17 18 16 15 14 13 12 11 7 5 11 16 2 2 7 5 7 14 14 13 13 7 4 7 1 8 16 4 8 13 10 15 8 12 11 13 15 14 13 16 16
18 17 16 16 16 17 15 14 12 11 9 8 4 5 8 5 9 12 13 15 9 10 12 3 7 9 8 4 5 7 10 14 14 14 15 13 13 8 9 13 15 15 15 15 16
17 16 16 15 16 15 13 11 9 9 6 3 3 6 8 2 10 11 10 7 2 7 7 3 8 9 6 10 11 11 9 13 9 14 9 15 14 10 11 12 15 14 15 14 15
17 16 16 16 15 13 9 7 7 4 3 6 11 7 8 7 1 5 4 6 6 6 6 8 7 9 9 10 10 13 16 15 14 13 12 11 13 11 14 14 15 14 14 14 12
17 15 15 15 14 10 4 4 5 7 12 13 5 11 4 10 9 11 5 9 8 5 6 11 7 9 16 18 7 11 10 10 14 9 13 11 10 12 13 14 14 15 15 14 14
16 14 14 13 13 8 7 8 9 7 9 21 16 11 16 11 8 10 6 8 9 10 11 14 7 12 9 9 7 7 4 7 8 9 7 7 11 11 14 16 17 15 14 14 13
16 14 12 12 9 8 14 15 4 13 7 9 14 12 10 9 11 14 9 7 8 9 17 9 5 4 6 8 7 3 8 4 9 10 13 9 14 14 12 11 9 14 15 14 14
16 14 11 7 5 10 12 15 16 8 6 12 11 8 8 8 8 10 7 6 5 11 12 6 19 8 7 5 6 8 1 2 4 12 13 17 12 15 17 15 14 13 13 12 14
17 15 12 12 7 9 5 3 3 4 5 15 15 9 11 13 2 12 5 8 14 9 9 8 9 7 9 5 6 9 3 4 6 11 9 18 8 19 16 15 15 15 15 15 13
19 16 12 8 13 11 5 1 5 6 7 8 11 13 13 12 7 4 11 9 4 7 11 5 6 2 9 2 3 4 4 6 8 10 9 14 10 3 12 12 17 13 14 14 14
21 17 17 12 6 6 9 6 6 9 7 11 17 18 17 10 10 10 13 14 11 10 10 13 8 4 5 6 3 7 7 8 5 4 8 5 5 13 7 3 6 14 15 15 15
21 18 18 18 14 4 10 7 12 11 13 6 15 16 16 13 12 12 12 16 18 14 11 11 8 11 7 10 5 8 10 5 6 7 7 6 7 3 8 3 1 13 15 16 15
20 13 15 18 16 6 9 13 14 6 13 9 11 15 17 13 7 12 15 15 15 15 9 16 5 7 1 3 5 6 7 5 3 0 5 10 6 9 5 5 6 13 16 17 16
18 14 20 18 22 12 9 19 20 6 5 11 15 16 16 15 11 13 14 13 6 4 7 3 3 4 6 5 6 8 3 4 4 3 6 4 4 6 7 6 8 13 16 17 17
22 7 14 23 24 8 13 18 18 7 9 14 17 15 15 15 15 15 12 6 7 9 7 7 8 7 5 10 11 7 8 6 4 2 4 3 2 7 4 5 8 11 14 16 17
20 11 24 34 11 10 15 20 20 14 10 11 9 13 14 13 12 11 16 11 9 7 11 5 4 7 11 3 5 9 8 9 6 6 3 3 5 4 5 3 6 9 13 15 17
10 7 18 28 14 14 18 21 21 17 12 13 11 13 12 11 11 12 11 6 5 7 6 6 7 9 7 6 6 8 10 8 7 1 9 4 3 6 7 4 4 8 11 13 16
9 9 4 8 16 22 23 21 19 17 12 13 15 13 10 12 11 10 9 4 5 5 3 1 12 10 10 8 5 12 12 12 12 8 10 11 13 5 9 7 6 8 10 13 15
5 13 13 15 20 23 23 18 22 18 11 13 12 15 14 11 14 8 10 7 6 5 6 5 9 13 14 6 8 8 9 10 15 17 15 12 15 10 7 5 7 9 9 12 12
6 12 14 15 24 22 22 23 24 20 16 15 16 19 16 10 11 11 12 10 8 9 8 5 6 4 5 7 9 11 13 13 14 17 18 18 18 15 10 6 6 10 8 11 14
17 13 12 15 24 19 19 24 21 20 4 10 19 17 12 2 7 9 6 2 4 8 10 6 4 4 7 3 5 6 15 18 17 17 14 15 16 8 8 6 8 7 7 10 12

GFSSW_925_spd_048.txt.gz
Wind_Speed
16 16 15 16 17 19 20 22 23 21 20 21 20 21 20 21 24 15 12 14 12 18 15 14 11 14 15 15 17 17 11 14 16 11 5 14 5 7 10 10 10 6 12 22 27
16 16 15 16 17 19 21 22 22 21 20 20 20 20 19 20 21 22 21 19 17 12 8 15 13 13 10 15 14 11 12 15 9 9 4 3 4 15 4 5 9 14 19 27 23
17 17 16 16 18 19 21 22 21 21 20 20 19 18 17 16 11 3 6 14 18 15 15 20 15 14 11 15 14 16 15 12 11 17 16 12 18 23 4 7 9 13 17 16 23
16 17 17 17 18 20 21 23 21 21 20 19 17 16 16 7 1 5 6 3 11 13 11 19 11 12 12 15 13 15 14 12 14 12 8 11 4 16 10 10 15 5 21 19 17
17 17 17 17 19 20 21 22 21 20 19 17 15 14 8 8 12 7 4 2 8 13 13 11 9 10 13 13 12 14 8 11 3 15 3 18 15 5 14 13 18 17 18 18 16
17 16 18 17 19 20 21 21 21 19 17 15 12 9 6 11 7 3 3 4 7 13 13 13 8 10 11 14 10 2 4 8 10 5 2 19 9 5 6 18 18 17 16 14 15
17 16 18 17 18 20 21 20 19 17 15 12 10 5 10 18 12 4 5 7 5 11 11 15 11 9 3 11 6 10 12 8 2 3 2 23 7 16 7 17 16 16 14 14 15
17 16 17 17 18 19 20 19 17 15 13 10 7 6 7 11 12 18 13 14 14 8 11 12 8 10 9 9 4 4 7 3 2 9 10 10 14 13 16 14 14 13 13 13 13
18 16 16 16 17 19 18 17 15 13 10 7 5 8 9 3 12 16 14 15 4 4 7 4 4 5 8 7 1 3 8 15 9 14 6 10 12 14 13 15 15 14 14 14 14
18 15 15 15 17 18 17 15 13 12 7 9 12 10 9 11 9 11 6 4 7 6 4 4 5 7 6 7 8 13 14 12 9 11 13 16 7 14 13 15 14 13 14 13 11
18 15 15 14 15 15 13 11 6 5 10 10 9 7 7 6 8 9 16 8 10 9 5 7 6 9 12 14 11 6 7 13 13 10 12 11 14 13 13 11 15 14 13 13 13
18 15 14 13 14 12 7 7 7 8 10 18 19 18 16 9 8 13 14 8 12 8 2 9 10 6 9 15 18 13 6 9 11 10 10 11 10 13 14 14 13 14 14 14 14
18 16 13 11 12 11 12 18 14 18 6 15 20 17 14 16 14 13 11 13 5 4 8 7 8 22 19 22 17 11 8 9 11 7 9 7 11 15 13 13 13 13 16 15 15
19 16 13 9 6 8 12 12 16 10 5 10 14 13 14 8 13 20 19 13 7 5 12 5 15 21 22 5 7 5 9 10 15 11 9 7 6 2 11 14 16 16 14 16 17
20 17 14 13 11 8 8 3 4 6 4 10 15 8 14 15 6 14 6 10 12 4 11 15 11 20 18 4 3 4 15 17 11 9 4 4 7 17 11 16 14 10 11 11 13
21 18 14 9 11 15 6 10 4 5 7 6 10 12 20 15 13 8 12 10 7 10 13 13 13 25 2 3 0 14 13 12 9 9 6 15 11 9 13 16 9 13 13 10 10
24 21 21 11 7 7 7 5 5 7 5 10 16 15 16 14 15 10 12 17 12 9 8 0 12 4 8 8 5 7 8 3 5 6 5 9 7 2 19 14 20 17 13 12 11
24 21 21 18 15 5 7 6 11 12 21 2 14 15 19 16 14 12 14 15 18 17 10 9 10 11 9 5 4 17 1 2 3 3 6 13 4 5 12 7 9 13 12 11 11
24 19 14 21 18 9 8 12 11 10 17 10 12 16 17 18 9 14 15 16 16 17 15 1 2 10 16 3 11 11 4 3 6 3 2 5 11 7 7 8 5 12 13 13 13
20 14 19 22 21 12 9 19 16 23 12 10 15 15 15 17 13 11 13 13 17 17 9 6 6 16 21 5 5 6 6 3 2 2 4 8 11 10 7 8 6 11 12 14 13
18 6 11 25 22 8 14 18 22 20 16 11 14 14 16 14 14 12 9 10 16 8 2 7 13 11 8 8 8 5 7 6 8 4 1 4 4 6 7 8 7 7 12 13 14
7 8 30 37 10 10 15 21 22 23 12 11 15 15 13 14 14 16 15 13 9 7 8 12 5 4 10 2 5 10 11 8 3 6 3 0 5 4 6 6 6 6 10 13 14
6 6 30 28 12 13 16 24 25 23 19 15 15 12 13 14 12 14 9 5 6 7 3 4 4 5 9 7 8 8 12 9 8 2 5 3 3 6 6 3 3 3 7 9 11
6 8 4 10 11 21 23 21 25 23 20 14 14 15 13 13 9 9 9 4 2 1 3 4 5 9 6 11 4 6 10 11 10 3 4 9 13 7 11 10 8 8 4 5 10
3 10 9 10 16 17 20 20 26 25 20 15 17 17 13 10 11 11 11 6 4 3 1 3 8 12 14 14 12 8 13 7 10 10 10 11 15 12 9 5 3 4 6 6 7
6 7 12 7 19 22 21 26 26 26 19 21 14 18 16 12 13 10 11 8 7 7 8 5 6 5 8 10 13 10 14 15 14 15 15 14 14 11 8 8 9 7 7 5 5
23 8 3 13 21 20 23 24 26 23 19 22 16 14 15 9 4 7 3 12 8 11 10 7 3 2 2 6 7 5 10 15 16 15 11 12 10 8 9 5 7 3 5 2 6

GFSSW_925_spd_051.txt.gz
Wind_Speed
15 15 17 16 16 17 18 20 22 23 23 24 24 23 23 25 28 17 8 10 7 5 9 14 15 19 20 6 8 1 2 7 5 1 5 6 6 3 4 6 1 3 3 18 32
16 16 16 17 16 17 18 21 22 23 24 23 23 22 22 24 24 14 13 11 14 16 10 9 10 10 4 5 5 2 1 8 3 7 6 2 7 5 3 1 3 9 18 21 29
15 16 16 18 16 18 19 21 22 22 23 23 21 21 20 19 6 6 5 5 16 14 10 13 18 11 7 5 7 8 6 4 2 6 8 8 8 2 10 4 5 11 17 20 21
15 16 16 17 17 18 19 21 22 22 21 21 19 18 18 5 1 2 6 6 8 14 7 6 6 4 6 8 9 5 9 5 11 7 10 8 9 9 8 4 5 21 14 17 14
15 16 16 17 18 18 19 20 21 22 20 18 16 15 7 3 9 12 5 2 7 10 12 9 8 6 7 5 8 6 8 2 13 9 10 14 7 8 10 16 4 16 15 19 13
15 15 16 17 18 18 19 21 21 20 18 15 14 12 2 5 7 6 3 3 5 12 12 14 7 7 5 7 5 5 10 8 11 11 8 11 6 4 6 8 12 15 15 16 18
15 15 16 17 18 18 20 21 20 19 15 13 11 6 5 16 13 11 6 8 11 14 6 19 17 4 7 7 9 3 7 5 4 10 3 5 7 4 5 7 14 13 15 17 19
16 15 15 17 18 18 20 21 20 17 13 10 9 2 7 15 15 18 12 15 17 17 18 15 11 5 3 5 8 3 5 4 4 12 4 9 8 10 7 10 8 9 16 17 18
16 16 15 16 17 18 20 21 19 16 12 8 5 4 9 18 10 21 18 19 15 6 3 4 3 2 5 2 4 3 4 4 1 21 9 7 6 11 8 10 9 9 10 17 15
17 16 16 15 16 17 20 21 17 15 5 2 10 6 8 5 11 18 19 20 4 5 2 1 1 1 3 2 3 3 3 5 7 12 20 13 7 8 11 13 11 10 9 10 12
17 16 15 15 14 16 19 9 1 1 4 8 6 5 13 12 7 5 7 16 5 4 3 4 3 1 3 2 8 8 13 10 7 9 10 15 10 11 9 12 12 10 9 9 11
17 16 14 14 14 14 12 4 7 6 8 15 19 19 26 19 6 13 18 5 6 5 4 3 3 4 11 10 11 9 12 1 8 5 7 6 12 12 9 12 14 13 11 13 8
16 16 14 12 13 14 13 17 17 13 4 9 14 11 7 11 8 14 5 7 3 4 1 4 3 4 8 13 15 7 4 2 3 4 2 3 2 2 6 7 12 14 14 13 15
17 16 13 10 9 7 7 14 2 2 3 6 7 8 7 9 6 15 19 8 3 6 4 3 5 3 9 16 19 8 13 2 0 3 2 4 2 1 4 9 8 12 11 11 11
18 17 15 13 8 6 8 10 10 5 4 5 9 10 9 9 1 5 25 9 7 6 4 3 5 0 6 14 11 7 11 6 5 2 4 2 4 6 5 5 5 9 11 15 17
20 19 15 13 13 18 7 13 4 1 7 4 8 7 8 10 7 5 5 2 4 7 8 8 5 5 5 7 8 3 2 4 5 3 2 10 5 4 7 18 4 6 4 9 10
21 22 24 13 5 14 9 5 1 4 6 8 11 10 9 6 8 8 7 5 4 3 3 3 8 3 4 10 6 6 4 3 5 6 4 4 5 8 8 9 17 17 14 5 9
22 24 25 25 21 11 3 3 8 11 10 5 10 8 9 6 9 11 5 6 8 7 3 6 3 2 5 4 4 5 3 4 4 1 5 5 4 5 3 7 14 14 8 6 9
22 25 16 28 24 11 2 9 8 6 8 4 9 10 9 11 6 9 8 7 9 12 6 4 3 4 7 5 4 1 4 6 5 2 3 4 3 4 6 6 8 10 9 8 9
20 12 15 25 19 9 5 13 6 14 8 8 8 8 8 10 10 6 8 8 8 12 7 2 4 3 7 5 8 5 4 2 3 2 3 4 3 3 6 5 6 9 9 9 9
15 4 10 25 18 4 12 15 15 21 12 5 4 5 8 7 11 7 6 7 8 4 10 6 4 2 6 2 11 2 3 2 4 5 5 1 4 2 8 8 9 9 13 12 10
9 6 23 37 7 4 13 11 12 21 14 10 5 1 1 8 5 7 5 8 4 8 5 8 5 4 14 20 14 6 6 6 5 5 3 5 5 2 7 8 9 8 12 13 13
6 5 28 33 11 12 9 14 19 17 16 6 4 3 3 4 5 8 8 6 4 5 6 2 2 3 1 4 3 3 5 4 3 4 4 5 5 3 6 5 5 5 8 10 12
5 7 5 9 5 19 15 15 21 18 20 20 11 7 5 5 5 5 3 1 5 4 2 7 0 5 6 6 4 4 5 6 4 4 4 6 4 10 8 8 7 6 4 8 12
4 9 7 11 16 11 17 12 18 15 16 12 12 8 8 5 5 0 4 3 2 1 2 4 4 1 4 5 5 4 1 5 4 5 6 8 7 10 2 7 1 4 0 3 6
5 6 6 3 15 17 14 22 25 22 13 19 15 10 9 7 8 7 5 5 5 1 3 1 3 3 1 5 7 4 6 6 6 6 5 3 4 4 7 7 8 7 7 8 8
10 5 7 9 14 17 20 17 21 19 15 19 10 7 7 9 4 4 3 9 9 9 7 6 4 3 2 4 6 6 7 5 6 4 3 3 5 9 9 9 7 8 9 7 7

GFSSW_925_spd_054.txt.gz
Wind_Speed
12 13 14 14 15 15 17 18 20 22 23 24 24 23 24 26 29 19 8 5 4 3 7 8 12 8 5 3 5 4 3 3 6 7 3 3 4 2 6 4 3 5 3 18 25
13 14 14 14 14 15 16 18 20 22 23 24 23 22 22 24 25 13 5 7 10 6 5 6 4 5 1 4 2 4 3 7 3 3 5 4 4 4 1 1 4 12 18 28 28
13 14 14 14 14 15 16 18 20 21 22 23 21 20 20 20 5 6 5 7 7 7 10 7 7 1 3 4 4 4 7 6 1 4 7 8 3 4 5 4 6 12 14 18 26
13 14 15 15 15 16 16 17 19 21 21 21 19 19 18 6 2 3 7 7 3 11 8 3 1 2 3 4 2 4 10 9 11 7 6 5 3 2 3 2 16 18 22 20 17
14 14 15 15 16 16 16 17 19 20 20 19 17 16 7 3 9 9 13 4 6 12 9 3 1 1 4 5 6 3 6 6 12 12 6 4 3 2 2 8 10 12 20 19 20
15 15 15 16 17 17 17 17 19 19 18 17 15 12 3 5 3 6 2 1 6 12 6 7 5 4 7 4 3 5 9 12 5 6 5 6 3 3 4 9 12 15 18 19 20
15 15 16 16 17 17 18 18 19 19 17 14 12 6 2 14 4 5 16 15 12 10 3 8 8 2 3 6 6 2 12 8 3 1 4 5 2 3 3 10 13 16 19 19 20
17 16 16 17 18 18 19 19 20 19 15 11 9 1 7 11 14 18 13 15 13 16 17 16 8 3 1 1 6 3 4 4 5 9 5 11 4 5 6 10 9 11 15 16 21
19 16 16 16 18 19 20 21 21 19 11 8 2 1 10 13 10 12 16 13 12 17 21 18 2 1 6 3 4 4 3 4 2 4 3 3 4 6 7 8 8 12 16 17 18
19 17 16 16 16 18 21 23 19 12 2 1 3 4 8 3 9 5 13 16 5 0 2 4 5 3 4 3 2 2 3 2 5 6 2 2 6 5 7 11 12 13 15 16 18
18 17 16 14 15 16 19 8 3 1 3 8 5 5 7 14 11 2 3 6 4 4 2 1 4 2 3 3 7 8 12 6 6 11 7 12 6 7 8 10 13 14 17 17 18
17 16 14 13 13 14 13 2 5 1 8 15 17 13 22 10 6 8 1 3 5 5 1 4 4 7 4 3 4 8 9 7 9 4 15 5 11 5 9 12 17 19 18 17 13
18 15 14 11 12 13 8 12 9 14 3 7 8 7 6 11 8 7 6 4 4 6 5 6 7 2 3 4 6 5 5 6 7 4 6 5 2 5 3 4 6 8 17 18 19
18 16 14 10 7 4 6 7 10 7 2 7 5 7 7 5 5 11 6 5 2 7 5 5 0 4 3 1 2 12 9 12 5 0 1 2 3 2 8 12 10 11 9 11 14
20 18 16 14 2 4 1 11 5 3 3 4 5 9 9 8 3 4 9 4 6 5 5 5 5 5 3 6 7 11 3 2 7 3 3 3 3 6 4 7 9 15 14 15 17
21 20 17 15 14 15 18 15 3 2 7 4 8 8 7 5 3 4 4 3 4 6 3 3 2 5 5 2 4 4 4 6 6 4 2 4 5 5 6 11 15 9 17 13 12
22 22 24 15 4 4 7 2 2 5 5 5 6 7 7 7 4 5 3 5 5 3 2 3 3 1 2 6 6 3 5 2 3 3 5 6 4 9 4 7 8 9 9 10 11
22 23 26 28 19 7 3 2 9 7 7 4 7 9 8 6 6 6 5 5 1 5 2 5 4 2 2 3 2 4 3 5 3 3 4 4 4 6 7 7 5 6 9 10 11
19 21 16 32 25 11 1 10 8 6 5 4 5 7 5 6 5 6 8 8 8 8 8 4 3 5 4 4 6 3 2 6 5 1 3 3 4 6 6 7 7 6 8 7 9
16 14 12 24 21 8 4 11 5 8 6 4 5 6 8 9 8 7 7 6 7 10 7 7 1 3 5 2 4 6 5 2 3 2 3 4 4 5 2 2 2 4 8 8 8
17 4 14 22 19 3 13 9 9 19 5 3 2 1 8 8 9 7 7 7 8 6 8 6 4 5 2 5 8 1 2 1 4 5 4 1 5 5 8 8 10 9 8 11 12
10 7 24 35 7 4 15 14 9 21 9 8 4 7 4 8 8 9 10 9 6 8 9 7 5 4 9 3 4 4 5 5 5 4 1 4 5 4 9 10 8 8 8 10 13
5 5 22 29 12 11 7 20 13 13 6 4 4 5 3 4 3 7 7 1 2 6 9 8 1 2 8 6 4 3 5 5 4 4 6 5 6 3 2 4 8 9 9 9 11
5 8 5 9 9 19 17 13 20 16 18 10 10 5 5 2 4 1 3 2 2 3 5 7 5 7 8 7 4 3 4 4 6 3 4 6 6 6 8 8 8 7 6 9 11
4 7 8 13 16 15 17 13 17 12 13 9 9 16 10 5 3 6 3 2 2 6 3 4 5 4 5 3 3 1 0 1 4 4 5 7 6 9 4 8 8 5 2 4 6
6 5 6 3 16 17 18 21 24 20 9 16 16 13 6 7 7 5 7 4 5 2 5 2 3 2 3 3 3 3 3 4 5 3 4 4 5 6 4 6 9 5 8 8 5
9 5 7 12 17 17 19 19 22 21 13 19 14 15 12 11 8 8 7 11 10 10 7 6 6 3 4 3 3 5 6 6 5 3 5 5 4 2 8 9 6 7 8 7 6

GFSSW_925_spd_057.txt.gz
Wind_Speed
12 13 14 14 15 15 15 16 17 20 21 23 24 24 25 28 32 19 6 1 3 5 5 2 3 0 3 1 3 4 4 3 5 2 3 2 3 2 0 1 4 6 2 16 21
13 14 14 15 15 15 15 16 17 19 21 22 23 23 23 27 26 12 4 4 8 3 2 3 3 4 2 1 1 3 4 7 6 3 5 5 4 3 3 3 5 12 18 22 19
13 14 14 15 15 16 16 17 17 19 21 22 22 21 21 20 5 5 5 9 3 9 2 2 0 1 1 1 4 4 5 6 5 5 7 6 2 2 3 2 5 17 16 16 19
15 15 15 15 16 17 17 17 18 19 20 21 20 19 19 7 1 2 7 12 3 9 5 2 2 2 2 3 3 3 7 7 6 7 6 6 3 3 1 2 13 20 18 18 15
16 16 16 16 17 18 18 17 18 19 20 20 18 16 7 3 9 5 7 6 4 9 6 4 2 2 2 5 5 3 6 1 6 6 1 4 5 3 4 10 16 16 17 18 13
18 17 17 17 17 18 19 18 18 19 19 19 16 12 2 4 2 2 4 5 2 5 3 5 5 4 3 4 2 3 9 5 4 5 2 2 1 2 5 10 14 18 14 17 18
21 19 18 17 17 18 19 19 19 20 19 17 13 6 1 13 3 5 11 15 10 9 3 7 2 2 2 6 2 3 6 5 2 3 2 2 1 3 4 16 16 14 15 13 15
22 21 19 17 18 19 21 21 21 21 20 14 8 1 7 7 9 14 12 12 9 13 17 13 6 5 1 4 4 4 4 3 5 2 3 5 4 4 11 16 13 15 13 14 15
20 20 21 18 17 19 21 22 23 24 14 8 2 1 9 11 7 8 13 8 4 5 11 13 3 1 5 2 4 2 4 2 3 7 2 4 2 6 8 11 13 14 14 14 11
19 20 21 18 16 18 20 22 19 7 2 2 1 3 8 1 6 11 10 12 4 3 4 4 4 2 3 4 1 2 4 1 5 1 3 4 7 4 9 9 12 12 12 12 13
19 20 19 17 15 15 19 8 4 2 4 8 5 4 5 10 6 4 5 7 3 5 3 1 3 4 8 6 3 3 4 7 8 12 9 9 5 5 8 6 7 9 12 13 16
19 18 16 15 13 13 13 1 3 2 8 13 16 9 17 4 4 4 4 5 5 5 3 4 4 7 4 2 4 2 2 7 9 6 8 5 8 5 7 7 12 13 13 15 13
19 17 15 13 11 12 8 9 10 12 4 7 6 6 6 12 7 7 5 3 4 5 5 6 5 1 3 3 3 3 4 5 7 6 3 4 4 5 5 5 7 12 17 15 18
18 18 15 11 7 6 5 3 16 11 2 6 5 7 7 8 5 14 10 6 1 9 6 5 3 5 2 5 4 5 6 4 2 2 3 3 4 4 7 11 12 13 13 16 17
19 18 17 16 3 4 5 10 1 2 3 4 4 10 8 11 2 6 9 3 8 5 6 6 6 5 5 7 5 6 3 2 2 3 1 3 3 5 5 8 14 17 14 16 18
20 18 17 18 19 15 7 12 6 4 7 3 7 7 6 3 2 1 5 3 3 5 2 4 2 4 6 4 3 3 4 5 3 2 2 3 3 5 5 15 15 15 16 17 16
22 17 21 16 4 7 9 1 3 4 5 5 6 6 6 7 3 2 6 6 6 4 3 1 3 2 2 2 3 5 5 3 4 4 5 4 2 8 5 7 8 14 17 14 14
23 18 22 25 16 5 2 2 8 7 6 5 4 5 8 5 5 6 6 5 4 4 4 5 5 4 1 3 4 2 6 5 4 2 4 3 4 6 5 7 3 8 8 9 14
20 20 19 22 24 11 1 12 8 7 4 4 4 5 4 5 6 4 8 8 9 8 8 5 4 2 3 2 3 1 2 3 6 3 3 3 6 9 7 3 3 5 6 8 10
20 11 20 20 26 8 5 14 6 5 4 4 8 6 8 7 7 7 8 5 6 10 5 7 1 3 1 2 4 4 4 3 2 2 3 4 4 5 6 7 0 5 7 7 5
16 4 15 23 20 4 12 9 7 10 3 3 3 1 7 8 9 6 7 5 7 5 5 5 5 2 2 5 6 2 3 3 4 4 4 1 5 6 7 7 7 4 8 8 8
10 5 28 36 6 5 14 8 5 19 3 3 3 4 4 8 8 9 10 8 8 9 10 7 6 5 10 2 3 4 7 5 4 4 1 4 6 4 9 8 5 8 5 6 7
7 6 26 30 11 12 9 16 7 9 6 7 5 1 4 4 5 7 7 5 7 8 9 8 1 2 7 5 3 5 5 4 5 4 6 5 6 2 6 7 9 9 8 8 8
5 9 5 8 15 18 17 13 17 13 15 2 3 2 1 3 3 4 6 2 2 7 4 9 4 7 6 8 3 3 3 5 5 3 4 6 6 6 8 7 5 8 7 8 9
5 9 7 12 19 16 16 11 20 10 13 13 5 7 3 3 4 4 3 3 2 4 3 5 6 5 4 3 4 3 4 6 6 5 6 6 7 8 6 8 8 7 3 4 7
7 6 5 4 17 24 19 19 21 18 6 8 12 7 9 10 7 3 4 4 5 3 4 2 3 3 3 2 2 4 6 4 4 3 6 5 6 4 2 4 7 6 7 5 4
23 6 3 6 18 19 26 21 19 18 15 14 15 13 9 13 8 9 8 4 5 10 7 5 6 4 5 2 2 6 8 8 6 5 5 6 8 3 4 7 5 5 6 6 7

GFSSW_925_spd_060.txt.gz
Wind_Speed
15 14 15 15 16 16 16 16 18 20 21 24 26 26 27 29 32 16 5 1 3 7 6 3 2 4 2 2 2 3 4 2 4 3 4 1 1 2 1 4 3 5 2 11 18
16 16 16 15 16 16 17 18 18 19 22 24 25 25 26 28 25 9 2 2 5 7 5 4 2 4 2 1 1 4 3 7 5 4 4 3 3 2 2 3 5 7 13 16 19
18 17 17 16 16 16 17 18 19 19 22 24 25 24 24 21 5 4 3 6 3 10 4 3 3 2 1 1 3 5 6 6 6 6 4 4 0 1 3 2 6 12 14 11 16
20 19 18 17 17 17 17 18 19 19 21 23 23 22 21 8 1 0 9 6 2 10 6 4 2 3 0 2 3 3 6 4 1 4 5 6 4 2 2 4 9 19 17 15 14
22 21 20 19 18 18 18 19 20 20 20 22 22 20 9 4 9 3 5 8 9 9 3 2 3 3 1 3 2 2 4 2 3 6 5 5 1 4 2 3 11 11 13 12 9
22 23 21 20 19 19 19 20 20 20 20 20 20 15 3 5 4 2 4 2 3 6 3 4 2 4 3 3 1 1 4 1 3 2 2 4 3 1 3 9 11 12 10 8 8
23 21 23 21 20 20 20 21 22 22 20 20 16 8 2 14 5 8 10 5 5 6 3 6 4 2 1 2 5 2 4 4 2 1 2 2 2 3 10 10 10 9 10 8 9
22 22 22 22 21 20 21 22 24 23 23 19 8 2 7 7 9 15 14 11 7 7 14 9 3 2 2 1 4 3 4 4 1 2 2 1 5 2 13 12 10 8 10 9 7
21 22 22 21 22 20 21 23 26 25 18 6 2 2 10 6 8 6 12 5 4 4 7 4 3 2 5 4 4 5 1 2 4 5 2 2 3 4 13 11 9 8 8 9 7
19 20 20 20 20 20 21 24 22 7 1 4 2 2 8 2 4 8 5 7 3 1 1 3 5 3 3 4 2 2 2 2 4 4 3 2 7 5 11 10 11 9 7 9 9
18 17 18 18 17 17 17 11 4 2 4 8 5 4 5 11 5 4 3 9 3 5 2 2 4 3 7 5 8 5 4 2 4 6 3 8 7 8 9 7 9 9 8 10 13
18 15 16 16 14 12 11 4 3 1 7 12 15 8 14 4 4 5 7 5 4 5 2 4 3 4 3 2 4 2 2 4 6 2 5 5 7 4 10 12 12 14 12 14 10
17 16 14 13 12 11 10 14 5 9 4 8 6 6 6 11 8 7 7 5 4 5 5 5 5 4 5 4 3 3 4 3 5 3 2 1 5 4 6 6 7 10 13 11 14
19 16 12 12 5 6 6 2 14 8 3 7 5 7 7 8 4 11 10 6 2 9 7 4 3 4 4 5 6 5 5 3 4 0 1 0 3 5 5 8 9 13 12 13 13
20 18 13 12 2 4 3 8 1 1 3 3 4 8 7 10 6 7 7 4 8 6 6 6 4 4 4 6 5 8 4 5 3 1 3 2 3 7 3 6 12 13 13 15 16
19 20 13 11 18 17 6 16 2 2 7 3 6 7 6 3 2 4 4 4 4 5 1 4 3 5 6 3 5 0 3 4 4 3 1 2 4 5 5 8 6 5 10 14 13
22 21 17 10 4 15 10 2 3 5 3 4 5 6 5 6 3 5 7 7 6 5 3 2 3 2 3 1 1 3 5 3 4 3 5 2 1 9 1 5 9 11 15 16 14
23 20 21 20 16 7 3 3 10 5 6 4 2 5 8 6 5 5 7 7 3 5 4 6 4 6 3 4 4 1 5 4 2 2 4 5 4 5 4 6 7 9 10 10 9
22 21 21 23 21 18 2 10 6 7 4 3 3 5 5 5 6 5 7 9 9 8 7 5 5 2 2 2 3 2 2 3 6 2 2 4 7 9 4 4 5 5 3 8 10
21 12 21 20 21 11 3 17 7 4 3 3 7 5 8 7 6 8 8 5 6 10 4 8 0 1 2 3 1 1 6 3 3 1 4 4 5 5 8 6 6 8 6 3 4
16 4 8 30 23 5 12 12 12 10 3 3 2 3 7 8 8 6 10 3 8 6 5 5 5 3 1 5 7 3 1 4 4 4 4 1 5 7 7 5 3 4 7 6 7
9 8 13 39 12 7 14 8 8 14 2 3 3 4 5 7 6 7 10 8 9 11 9 6 5 5 9 1 4 5 8 6 4 4 1 3 6 5 9 7 4 6 5 5 6
5 6 28 30 13 17 11 11 4 8 6 4 4 4 2 3 5 6 7 5 9 8 9 8 1 1 7 5 3 3 4 4 5 3 7 5 6 3 6 8 6 8 6 5 6
5 8 5 11 17 19 19 14 21 5 9 1 4 3 2 2 4 5 7 2 7 7 7 7 4 7 9 8 5 4 6 6 6 4 4 6 6 9 8 7 8 8 7 6 7
6 7 6 12 18 19 21 15 19 17 11 8 4 5 2 2 2 4 2 2 2 5 5 6 8 6 5 4 6 6 5 8 7 6 7 7 8 9 6 6 7 6 7 5 7
5 5 3 8 19 23 15 23 25 21 8 10 7 6 6 4 4 4 2 1 4 5 7 2 5 4 4 1 0 3 7 8 5 3 5 5 6 7 1 1 5 6 4 6 6
10 4 3 10 19 18 25 23 21 18 19 6 18 13 6 15 9 3 3 3 4 2 6 8 7 4 4 2 4 5 8 9 7 6 8 8 11 6 3 3 3 5 6 7 7

GFSSW_925_spd_063.txt.gz
Wind_Speed
18 18 17 17 17 18 19 20 19 19 20 22 24 24 26 28 30 14 4 1 3 12 9 7 5 6 4 3 3 3 1 3 4 3 4 1 2 2 2 4 2 3 2 7 16
19 20 19 18 18 18 20 20 21 21 21 22 24 25 25 27 24 7 1 1 7 13 8 8 4 6 3 3 2 3 3 6 6 4 2 1 2 3 4 4 3 3 7 12 15
19 20 20 20 18 19 19 21 21 22 22 22 23 24 25 21 5 3 2 2 11 10 6 5 5 3 2 2 4 3 5 4 5 7 1 3 2 2 2 5 8 10 14 12 12
19 20 21 20 20 19 19 20 21 22 22 23 23 24 21 6 2 1 5 1 9 13 6 4 2 4 2 3 4 3 8 5 4 2 4 4 3 0 3 2 5 10 13 12 13
22 20 20 21 20 19 20 20 21 22 22 22 22 22 9 4 8 3 2 6 13 13 7 3 2 2 2 2 2 3 3 4 5 5 4 2 3 2 3 8 12 13 13 9 9
23 22 21 20 21 20 20 21 22 22 23 23 21 18 3 5 3 3 6 4 7 8 5 5 3 3 1 2 1 3 1 3 5 2 1 1 2 1 1 5 12 12 12 8 10
17 22 23 21 19 20 21 22 23 24 24 25 21 9 2 14 4 7 9 3 7 7 4 6 4 1 2 1 3 1 1 3 2 3 1 2 4 4 4 8 10 9 9 9 11
20 17 22 20 20 21 22 22 24 26 28 23 11 2 7 8 8 12 11 11 11 10 8 4 4 1 1 2 3 2 2 2 1 3 2 4 5 3 10 12 11 9 8 8 10
21 18 17 21 19 19 20 22 24 28 19 7 3 4 9 6 7 5 13 7 8 7 4 4 2 1 2 3 2 4 1 1 3 5 3 3 5 2 11 10 10 10 9 9 8
21 18 17 16 17 17 20 20 23 12 2 2 1 1 7 2 3 2 4 9 3 5 4 2 2 1 2 2 2 4 2 3 5 2 5 6 10 4 11 11 9 9 11 11 12
20 18 14 14 13 16 14 9 3 2 3 8 4 3 4 8 4 3 5 8 4 3 3 1 2 4 7 5 2 2 3 3 3 5 4 5 9 10 12 10 10 11 12 12 15
20 18 13 12 12 11 9 3 2 0 8 15 17 10 12 1 4 3 9 5 5 5 4 1 5 4 2 4 2 2 4 4 2 3 3 6 9 5 15 16 16 14 13 14 13
18 17 13 11 11 8 8 14 4 8 3 8 7 6 6 12 8 6 8 4 4 5 6 5 2 4 5 3 4 4 4 3 5 3 2 4 4 3 6 9 10 14 13 11 14
18 15 13 11 6 7 5 2 9 7 3 6 5 6 7 8 5 12 13 5 2 9 8 4 2 4 3 4 6 5 6 6 3 1 1 2 3 3 5 10 13 16 15 16 16
21 16 15 11 2 4 4 7 2 4 4 3 3 6 5 8 7 7 8 3 8 6 6 4 4 4 3 5 6 5 2 2 1 3 2 1 1 4 0 8 17 19 19 19 18
24 19 16 13 15 12 6 11 2 2 9 2 6 7 7 3 3 4 5 3 4 5 0 3 1 3 6 3 4 5 4 5 3 1 1 0 2 4 4 4 4 11 17 18 19
26 21 20 15 4 14 12 3 3 7 5 4 5 6 4 6 5 4 11 7 8 6 5 0 2 2 2 3 2 3 4 1 1 1 2 3 1 8 4 7 6 9 11 16 19
27 21 21 23 18 4 6 3 12 6 6 4 2 5 7 5 4 4 10 12 3 5 4 6 3 7 4 4 5 5 4 4 3 2 1 2 4 3 5 9 8 8 8 8 14
27 23 22 26 23 9 3 8 7 6 4 4 2 4 4 4 5 4 7 14 10 8 8 6 5 1 4 4 3 4 3 2 6 2 1 2 4 8 2 6 5 7 7 4 8
26 15 22 27 22 12 6 21 7 5 0 1 5 5 10 7 6 8 9 7 8 8 5 7 2 2 1 1 4 2 8 3 1 3 3 3 3 3 6 6 4 4 5 6 4
20 6 14 26 21 6 13 19 15 5 2 0 2 3 5 7 7 6 9 1 13 8 4 5 3 2 2 4 8 3 2 3 3 2 3 2 4 6 5 2 5 4 4 5 6
10 10 23 37 13 10 18 18 10 21 1 1 2 3 4 6 5 7 10 5 9 13 10 7 4 4 6 1 2 2 6 6 3 4 1 1 6 5 8 5 5 9 6 4 6
5 7 23 30 14 15 17 22 15 14 11 6 3 4 2 3 4 5 6 4 9 9 12 8 1 3 1 1 2 2 4 4 5 3 7 5 5 2 4 5 5 8 6 5 4
5 7 6 10 15 24 21 19 21 15 10 3 3 1 2 3 4 5 6 3 7 6 7 9 4 6 9 8 5 4 6 7 6 4 5 7 10 8 8 5 9 6 5 6 6
7 5 7 12 20 20 21 20 27 16 18 11 3 10 2 3 2 3 2 2 2 5 4 5 7 6 5 5 5 6 5 12 11 10 8 11 11 10 7 5 5 6 6 5 5
7 4 4 5 24 23 18 22 27 23 12 18 15 9 15 4 4 4 6 1 1 0 4 2 4 5 4 3 6 5 6 8 9 5 9 8 8 10 4 2 2 3 1 4 6
14 6 6 18 20 18 21 23 17 20 17 4 13 2 5 19 1 2 1 2 3 2 4 5 6 4 5 1 5 4 7 9 5 6 6 9 10 3 5 4 2 3 5 6 6

GFSSW_925_spd_066.txt.gz
Wind_Speed
15 17 17 18 18 18 18 19 20 22 22 23 24 26 27 30 30 9 4 1 4 11 10 9 8 7 7 5 4 3 6 4 3 4 2 0 4 1 3 2 3 2 4 5 15
15 13 17 17 18 19 18 19 20 21 22 23 24 25 27 29 19 10 4 3 6 15 9 10 8 10 5 5 4 7 6 3 3 4 8 4 7 2 5 3 4 2 2 9 13
19 17 18 17 19 19 19 19 20 21 22 24 24 25 27 23 8 4 6 4 9 13 4 6 4 8 8 4 6 4 10 5 8 8 10 7 6 2 5 5 4 2 7 9 9
22 19 19 18 18 21 20 20 21 21 22 24 24 25 24 6 5 3 4 6 14 11 6 6 6 8 7 7 4 8 7 9 8 7 6 6 2 2 5 6 5 3 11 9 6
19 22 21 20 19 18 21 21 21 22 23 23 24 24 12 6 7 4 3 6 13 13 10 8 8 6 7 3 4 8 6 4 3 2 2 2 2 4 3 5 8 10 10 8 6
17 18 19 20 20 19 18 22 22 23 23 24 25 20 6 9 2 4 5 8 8 12 9 8 2 2 4 3 5 2 2 1 4 5 3 5 1 4 8 7 9 10 9 7 7
18 18 17 18 20 19 20 19 23 25 25 26 23 8 7 14 4 8 8 4 8 8 8 7 4 5 2 4 1 3 6 5 4 3 1 5 10 4 6 8 9 10 8 7 8
19 20 18 17 18 18 19 20 22 25 27 26 14 4 8 7 6 11 10 10 10 8 7 4 5 5 5 1 4 6 5 7 8 5 2 5 6 5 7 11 9 10 10 7 10
19 19 20 17 16 17 17 19 21 24 25 11 2 5 9 4 7 10 16 10 9 8 6 2 6 4 4 10 8 7 5 3 4 7 1 5 9 6 7 9 11 9 11 11 12
18 18 19 17 15 13 16 16 19 19 4 4 4 5 8 3 4 5 12 14 5 9 6 8 6 9 9 9 11 7 8 6 8 5 7 10 10 3 8 10 11 10 11 13 15
18 16 18 16 14 11 13 9 6 5 7 9 4 4 3 4 2 9 10 12 11 10 12 8 8 11 9 11 7 7 5 5 6 2 7 6 10 2 8 10 11 11 13 13 15
18 16 15 16 13 10 7 5 3 4 10 17 21 21 19 7 4 9 12 14 12 15 8 7 11 6 2 6 7 8 7 7 3 1 8 7 7 4 10 11 11 13 13 15 16
20 17 13 12 13 9 10 9 4 4 7 9 14 12 10 16 10 13 14 16 16 17 15 13 2 3 8 8 9 10 9 5 7 9 4 7 7 6 7 10 10 12 13 14 16
19 19 12 10 8 7 7 3 5 6 5 6 8 8 11 10 10 18 20 15 8 19 15 12 7 7 8 10 9 10 4 10 8 6 2 2 2 4 7 10 13 14 15 15 16
20 21 14 13 7 5 4 6 6 6 6 7 5 6 9 18 11 19 22 10 18 12 10 11 10 11 11 13 10 4 1 5 6 8 5 6 7 7 5 8 13 16 17 18 18
23 20 18 14 15 9 6 8 4 4 10 4 7 9 10 16 7 15 14 8 9 12 11 11 2 5 2 4 10 7 5 3 3 4 6 2 5 2 1 4 2 3 15 18 19
26 22 23 17 13 13 11 4 6 9 1 7 6 8 13 13 12 16 24 22 16 16 17 15 13 5 5 8 6 9 7 5 5 5 3 4 5 7 5 2 7 8 6 10 19
24 24 26 23 23 9 9 4 13 7 12 2 3 8 11 16 14 15 24 22 23 19 12 16 15 14 11 10 7 14 10 4 6 5 4 3 5 2 1 5 5 6 8 7 12
23 26 21 26 22 14 5 13 13 12 6 5 6 7 9 14 9 14 22 25 24 22 15 16 15 5 7 4 9 7 8 1 1 3 2 4 5 11 3 4 1 3 3 1 6
25 19 22 26 20 13 8 26 17 15 6 6 9 10 12 14 12 16 19 19 25 24 19 7 13 8 8 6 3 6 10 5 4 4 6 5 5 5 1 5 1 2 5 4 1
21 5 14 30 20 6 14 25 26 14 9 6 9 3 6 10 19 16 13 5 25 21 21 14 9 7 7 11 12 6 8 4 2 3 4 3 4 2 4 2 2 1 2 3 2
16 6 21 39 10 6 19 29 12 26 12 6 3 4 3 7 14 18 19 13 21 23 23 18 9 9 13 4 5 9 12 14 7 8 4 4 8 9 9 5 6 6 5 4 3
8 3 23 31 12 14 27 30 27 15 28 9 7 6 1 4 6 17 11 10 13 20 21 16 10 10 11 7 5 8 11 11 7 2 11 8 7 3 5 6 8 9 5 6 6
6 7 5 10 19 30 26 25 30 24 20 26 5 9 5 4 7 1 9 4 13 20 7 18 14 18 14 12 10 14 13 14 14 9 11 12 16 12 13 13 11 8 6 5 5
7 9 11 14 17 28 29 21 28 26 28 18 21 13 11 4 3 6 5 3 5 6 10 13 18 17 17 15 13 16 16 17 18 17 16 13 15 13 14 13 11 4 4 4 5
8 7 16 11 28 32 30 30 29 33 24 27 18 23 16 5 4 4 5 2 3 5 9 9 13 12 13 11 13 15 17 17 18 16 12 17 17 13 14 6 7 5 3 1 2
21 20 13 17 27 22 24 32 30 29 28 25 24 15 12 17 9 6 5 4 4 1 8 6 10 7 13 5 5 7 15 15 14 12 14 15 15 13 11 13 10 5 3 3 5

GFSSW_925_spd_069.txt.gz
Wind_Speed
16 17 15 15 18 19 19 19 20 21 23 25 27 27 27 31 32 14 10 1 5 7 8 8 10 11 12 13 9 10 12 10 5 5 5 3 9 8 3 11 2 7 9 14 12
19 18 19 18 19 19 21 21 21 21 22 24 27 29 29 31 23 17 8 6 6 12 8 11 9 11 12 9 5 10 13 6 7 10 8 8 11 10 3 7 10 7 5 6 9
19 19 20 19 19 21 20 21 21 22 22 24 26 29 29 26 13 8 10 6 7 14 9 10 9 10 15 8 10 11 11 14 6 4 10 10 8 5 12 14 13 12 9 5 6
17 19 20 20 20 20 21 20 22 23 24 24 25 27 29 12 6 6 8 6 9 12 10 11 10 12 13 12 8 10 13 8 12 6 9 10 4 12 5 11 7 10 5 7 7
17 17 17 20 20 21 22 21 22 23 24 25 25 26 18 8 12 1 7 8 12 12 13 11 12 13 14 6 4 11 9 7 5 7 8 3 8 6 4 5 8 9 7 5 4
17 17 18 17 18 20 22 21 20 21 23 25 25 24 11 17 3 4 5 8 12 16 15 13 11 6 11 9 8 4 8 6 6 4 7 9 8 10 11 8 7 6 7 6 9
17 17 19 19 18 18 19 19 21 22 23 24 25 14 11 21 8 7 10 11 11 15 11 13 8 10 4 11 7 13 15 10 15 7 1 8 11 12 13 9 10 8 8 9 7
18 18 18 20 19 18 19 18 20 22 22 21 20 9 9 11 9 15 14 13 10 12 11 5 8 11 10 8 11 15 20 14 11 19 3 11 5 31 11 10 10 11 8 13 15
18 19 18 19 22 18 18 18 19 22 22 17 6 8 11 5 14 20 18 19 16 12 10 8 10 13 11 11 15 16 12 15 10 6 6 4 3 7 8 8 8 9 12 10 15
20 18 18 18 21 19 17 16 17 20 11 8 11 8 12 11 9 13 21 21 15 12 12 12 9 12 14 13 13 4 12 3 10 7 10 8 10 3 6 8 10 9 10 11 13
18 18 18 17 20 18 16 13 7 8 14 13 4 15 3 6 6 12 20 20 16 15 16 17 12 14 16 14 15 11 10 11 7 5 6 2 15 7 10 7 9 10 11 12 14
18 16 17 17 18 17 11 8 6 5 11 17 22 22 25 3 6 14 21 18 18 18 19 13 14 17 4 6 8 10 12 11 7 1 7 12 5 8 12 13 13 13 14 14 15
22 18 16 17 16 16 14 13 4 6 8 15 23 24 24 24 16 17 20 23 21 21 20 17 13 10 7 9 10 11 12 10 8 9 10 10 6 9 11 10 12 15 15 18 17
22 18 15 15 13 14 13 9 6 4 6 12 9 10 24 21 16 28 28 23 17 22 21 17 16 9 12 12 10 13 10 7 11 13 2 15 3 18 15 14 14 14 16 17 20
20 17 16 15 16 8 4 3 7 5 7 2 10 4 11 21 7 26 27 22 25 21 16 18 18 12 15 14 12 13 1 8 11 11 14 5 8 9 12 13 17 17 17 17 18
21 20 16 14 18 22 7 4 7 7 13 7 8 10 12 24 20 14 25 25 20 20 19 20 14 15 18 8 10 6 7 10 10 12 9 12 6 12 9 5 6 12 18 17 18
21 20 20 17 13 18 17 7 7 13 3 14 8 11 16 17 23 17 29 28 22 22 22 21 15 14 6 10 10 10 12 7 6 6 9 5 5 12 1 5 2 4 5 12 17
22 20 23 23 23 20 11 7 16 18 29 5 3 11 13 14 22 19 25 24 26 25 14 17 20 21 15 16 11 16 15 6 7 7 8 9 6 1 5 2 3 3 6 6 10
24 22 25 26 25 19 5 13 21 27 13 29 5 11 12 14 13 21 26 27 29 26 19 19 22 23 17 16 14 14 16 12 7 3 4 7 8 9 4 4 2 1 3 3 5
25 24 28 26 23 19 6 20 24 21 25 15 22 13 13 14 15 19 23 26 28 30 23 6 16 11 15 9 12 12 12 9 8 9 9 13 9 6 7 3 5 3 4 4 2
25 7 14 26 21 6 11 23 31 24 20 18 16 22 11 11 18 14 13 15 28 28 24 18 11 16 12 17 17 12 11 9 10 12 7 8 6 8 2 4 4 3 1 2 4
13 7 19 32 9 6 17 28 29 34 26 16 9 15 14 13 16 19 13 21 12 24 28 23 11 12 16 16 19 18 19 18 9 13 9 9 11 11 6 11 4 7 5 4 2
5 5 19 37 13 15 31 35 30 29 30 22 17 16 14 9 7 16 15 10 7 23 25 21 14 12 15 11 7 12 17 14 17 13 13 10 9 7 4 4 9 10 9 6 7
6 6 5 14 20 30 32 34 32 32 31 28 19 16 14 14 10 2 13 11 10 14 14 18 17 20 16 17 15 18 19 19 16 10 13 15 17 14 11 13 11 12 9 8 6
8 9 13 14 22 28 27 21 32 33 31 26 25 19 17 11 11 7 4 5 6 9 9 18 23 19 21 19 13 17 19 21 19 18 19 16 18 16 10 8 11 8 3 3 7
6 9 15 10 25 32 26 29 33 33 30 34 28 24 18 17 8 9 2 8 9 12 14 20 16 22 21 18 18 15 15 17 18 19 19 19 20 14 14 10 8 10 6 6 3
19 27 14 19 24 22 26 32 35 32 32 32 29 24 24 16 6 5 6 8 10 9 14 15 15 17 17 19 19 18 18 17 17 18 16 17 14 15 12 10 10 12 5 6 4

GFSSW_925_spd_075.txt.gz
Wind_Speed
15 17 18 19 20 19 19 19 20 22 23 25 27 29 32 35 42 26 7 11 7 10 6 5 8 11 17 6 8 2 3 7 9 8 6 3 3 0 4 5 4 5 11 11 3
15 16 17 17 19 21 20 20 21 22 23 25 27 28 31 35 37 20 10 12 10 8 8 10 8 13 4 6 5 2 3 10 11 7 4 7 7 5 3 4 4 1 3 11 6
16 17 17 18 18 20 21 22 23 23 23 24 24 26 29 31 8 4 1 12 9 7 12 11 18 7 7 5 8 9 8 9 8 7 6 7 8 8 9 2 3 5 9 9 10
16 17 18 19 19 20 21 22 21 23 22 22 23 26 27 12 5 2 2 7 7 6 7 6 6 6 6 8 10 5 13 6 7 6 8 10 9 5 19 2 6 7 14 9 8
16 17 18 19 21 22 23 24 23 22 21 20 21 22 15 4 11 21 11 8 8 7 9 6 10 9 8 7 8 7 6 6 1 6 6 11 8 4 5 7 11 14 12 8 6
17 17 19 20 22 24 25 25 25 23 21 19 18 19 4 10 14 11 17 10 11 11 8 12 8 11 8 7 7 10 8 5 3 7 3 4 6 4 1 11 19 7 9 8 8
17 17 19 20 22 24 27 28 27 26 23 19 15 12 8 22 17 12 19 17 14 18 7 19 24 8 7 8 8 11 8 9 3 4 4 5 8 3 3 6 19 13 7 7 9
21 18 19 20 23 25 28 31 31 29 23 19 14 7 9 19 19 25 19 25 17 20 25 22 23 11 2 7 10 9 7 6 10 5 7 8 10 2 5 14 13 4 9 10 9
20 20 19 20 22 25 30 34 33 23 18 13 8 7 11 15 12 24 25 18 21 20 25 23 12 2 6 5 6 6 10 12 15 10 4 6 3 6 4 14 9 11 8 12 12
19 18 17 18 19 23 30 37 25 18 8 6 9 4 9 5 10 14 18 23 8 6 6 5 2 3 4 2 8 9 6 5 6 6 9 10 7 8 7 11 15 13 14 14 15
20 20 19 19 20 21 28 16 3 1 5 9 10 7 10 12 24 6 19 16 7 5 10 8 5 12 12 14 17 17 14 8 5 1 4 9 6 10 10 5 8 9 15 16 16
20 19 20 20 20 21 20 5 8 6 10 15 21 21 32 25 10 17 13 9 8 13 8 9 18 13 16 18 18 20 6 7 7 7 6 5 6 7 10 11 10 16 16 18 17
19 18 17 19 17 21 13 15 27 32 6 13 23 16 23 22 17 20 10 10 10 11 15 16 9 18 19 20 18 6 5 7 7 6 4 3 5 4 5 7 14 15 16 21 22
19 18 17 16 12 15 8 16 19 14 5 8 9 9 14 10 9 28 21 9 7 20 18 12 19 20 20 19 8 5 9 9 6 5 2 3 4 4 6 8 11 14 16 19 20
19 18 15 10 16 10 13 24 29 3 4 7 6 8 10 17 6 11 38 12 18 19 11 15 10 19 20 13 7 8 7 1 3 6 5 2 2 7 8 11 10 18 17 18 20
19 18 16 13 16 21 23 22 12 3 11 6 5 6 7 20 8 6 14 16 4 14 16 13 13 11 14 10 8 5 4 6 2 1 4 8 4 6 6 13 13 17 20 21 19
20 18 18 15 8 13 21 9 1 7 5 6 4 7 7 10 15 10 12 14 14 12 17 20 19 13 15 10 7 6 3 2 4 1 6 3 5 10 9 7 5 18 21 20 20
22 20 21 22 21 18 9 1 11 16 22 6 6 13 9 7 15 19 15 15 18 12 8 14 11 20 9 15 8 7 8 5 6 2 3 8 3 6 8 4 8 9 18 19 20
22 22 21 23 19 17 3 10 13 18 12 17 24 19 11 10 7 16 21 18 21 20 15 12 13 4 18 5 9 4 6 10 5 2 3 5 7 5 6 6 7 4 4 15 20
23 16 20 25 21 13 5 25 18 21 20 24 12 9 11 9 6 9 7 8 16 23 19 5 4 16 11 6 9 10 4 4 2 7 5 5 2 3 6 2 6 6 8 7 8
23 5 13 28 24 5 17 15 20 22 16 14 16 20 22 19 13 15 8 12 15 18 18 22 10 10 11 14 13 5 9 3 2 5 6 2 5 5 6 7 8 7 9 9 8
8 5 23 35 10 6 19 21 11 17 15 18 15 22 22 17 16 18 23 8 9 5 23 11 4 10 20 15 21 17 9 9 5 5 4 5 5 6 7 3 7 8 8 9 9
3 3 23 30 14 15 13 21 25 20 20 12 12 14 21 21 8 13 10 16 5 5 7 6 4 9 12 12 13 17 7 8 6 4 6 5 4 7 6 3 6 7 6 4 8
4 5 5 12 7 15 16 20 22 19 25 23 21 18 17 20 7 10 18 8 7 7 10 9 5 15 14 11 3 7 9 9 7 5 4 6 4 7 9 5 8 7 7 5 2
6 5 7 9 18 15 20 10 24 20 20 8 15 21 20 13 10 9 7 18 13 8 7 7 16 19 18 18 11 9 10 12 11 11 7 6 8 9 8 6 7 7 8 9 7
6 5 8 6 18 24 21 17 20 21 20 21 23 21 13 16 9 12 17 10 11 9 7 5 5 4 15 13 14 14 11 15 13 10 7 7 11 12 9 5 7 9 9 10 8
20 12 3 13 15 20 23 27 20 19 16 24 19 20 19 20 7 10 3 11 10 10 5 8 5 4 13 12 7 10 11 8 9 13 9 10 9 7 6 5 4 6 8 8 9

GFSSW_925_spd_081.txt.gz
Wind_Speed
17 16 15 15 17 18 18 19 21 22 22 24 25 26 27 30 35 29 7 6 1 9 6 5 4 1 1 2 3 3 3 3 5 3 6 11 5 1 2 3 3 3 2 3 5
14 15 15 16 18 19 20 21 22 23 23 24 25 24 26 28 28 18 11 6 7 10 7 6 3 4 2 1 2 4 3 6 6 5 9 12 2 6 5 5 4 4 4 6 8
14 16 17 17 18 20 21 22 23 23 24 24 25 24 25 22 5 7 2 7 9 10 6 4 4 3 2 3 4 5 5 5 10 8 11 7 2 5 5 4 8 7 8 9 6
15 16 18 18 19 20 22 24 25 24 24 24 23 23 23 5 5 2 3 4 7 10 7 4 3 3 2 3 3 1 7 4 8 6 2 4 3 3 4 6 5 8 4 4 4
17 19 19 19 19 21 22 25 26 26 24 25 20 20 10 3 10 8 9 12 8 9 8 6 5 4 4 2 2 6 5 4 9 11 7 3 6 6 6 7 3 4 5 6 5
16 18 18 21 21 22 24 25 26 26 26 24 19 14 3 5 7 7 7 9 11 11 5 7 6 6 3 4 2 3 5 8 7 10 5 5 5 3 9 5 3 2 5 5 6
18 18 20 20 21 23 25 26 29 28 27 25 15 6 6 19 12 5 5 5 7 11 3 8 5 4 1 6 2 3 7 8 7 4 4 6 1 10 2 6 6 3 3 4 5
17 18 20 21 22 26 29 32 35 35 31 18 5 3 9 14 20 26 21 22 21 19 15 16 10 4 4 4 6 5 1 3 3 4 5 4 12 8 7 8 7 4 5 4 2
17 17 19 22 23 26 31 35 39 23 9 6 6 3 11 11 10 12 14 9 15 14 17 10 6 6 1 2 4 2 4 5 9 3 3 3 9 5 7 6 6 6 6 4 4
17 18 18 21 23 27 32 35 11 9 13 10 4 1 8 5 5 13 9 11 3 6 2 5 3 4 3 4 6 5 3 3 5 4 2 5 16 5 5 6 7 6 5 5 5
16 18 18 20 22 26 31 11 6 3 6 6 5 6 8 9 9 4 7 5 4 3 8 5 4 12 14 8 3 3 2 4 14 13 3 11 16 9 8 6 8 9 7 7 5
16 17 17 19 21 24 11 4 4 7 12 16 18 20 37 17 9 16 3 6 6 8 6 3 16 6 7 7 6 5 5 12 11 9 4 9 11 7 9 10 12 11 11 11 4
16 16 17 17 19 9 12 1 15 13 6 8 10 10 12 18 15 22 5 3 6 7 9 11 6 12 12 7 7 8 7 10 7 11 5 4 7 5 6 3 6 7 7 8 12
15 14 14 16 11 13 8 12 19 10 4 7 5 7 5 5 7 19 17 9 6 13 6 8 13 4 5 12 10 11 10 10 10 6 4 1 5 6 6 11 8 12 10 11 11
15 12 11 9 13 8 8 21 22 2 6 2 2 1 5 8 3 2 21 7 10 7 7 9 8 17 13 14 10 10 7 9 9 11 2 2 2 6 2 6 11 14 15 14 15
14 11 8 11 9 15 16 22 3 2 9 6 2 5 2 7 5 2 4 2 8 4 5 10 4 9 14 15 12 8 2 1 2 2 3 4 5 6 5 8 7 11 14 14 15
14 13 10 11 3 4 17 8 2 5 6 3 3 5 5 3 4 3 5 12 7 11 14 3 12 4 2 6 6 5 3 2 3 1 7 5 4 10 7 7 9 15 16 15 13
15 13 13 17 12 12 8 2 9 4 5 9 7 8 2 11 5 6 4 6 8 1 4 12 8 14 7 11 5 7 9 5 6 4 5 0 5 6 7 8 9 14 15 11 12
14 14 11 21 14 6 2 6 6 4 3 6 7 5 4 5 6 9 5 2 6 9 5 6 8 4 11 7 13 5 5 11 5 1 3 4 6 9 6 4 6 9 8 13 14
15 10 13 18 13 9 4 11 6 1 4 4 2 4 5 7 8 6 4 3 7 10 8 4 3 7 6 8 15 11 6 2 2 7 5 4 4 5 7 6 5 6 12 13 13
13 4 6 23 19 4 11 7 3 8 7 4 1 5 3 4 5 4 4 6 3 8 11 6 6 5 2 6 10 4 6 3 5 5 6 2 6 8 10 9 7 9 11 14 15
7 7 17 29 8 5 15 6 6 5 2 6 4 4 6 6 5 4 4 5 8 5 5 4 5 12 24 9 3 10 12 10 5 4 3 4 9 4 8 7 8 10 10 12 15
5 6 21 24 11 14 10 18 10 8 4 3 4 8 3 4 5 9 7 4 4 5 6 10 4 4 7 9 17 5 4 4 2 4 9 7 6 3 5 4 6 7 8 8 11
2 5 5 8 5 18 19 17 12 11 17 11 4 5 4 3 6 7 6 5 6 6 6 6 5 12 14 6 5 5 6 1 7 6 5 12 5 7 7 7 8 7 7 9 9
6 5 5 9 10 13 16 9 17 12 12 11 4 21 17 10 11 17 16 12 11 2 2 6 7 14 18 17 5 5 5 3 2 9 10 8 13 14 12 9 9 7 4 7 9
6 4 5 1 13 20 18 18 22 18 13 10 12 8 11 13 16 6 6 9 5 2 2 3 5 15 6 13 17 15 9 9 4 9 12 8 14 7 11 7 6 9 8 9 9
16 8 3 9 8 14 18 23 19 17 10 20 16 15 13 23 17 19 16 13 7 4 2 0 5 6 5 5 5 3 16 13 8 8 9 10 10 7 8 9 10 10 8 11 10

GFSSW_925_spd_084.txt.gz
Wind_Speed
12 13 15 17 21 21 22 25 26 27 25 26 27 27 28 29 31 21 7 6 2 11 9 11 7 8 4 3 3 4 3 2 4 4 6 7 2 2 0 1 4 6 4 4 3
12 13 14 17 19 21 23 23 26 29 28 27 27 27 28 28 25 13 9 8 6 12 11 10 4 7 3 2 2 4 3 8 6 5 6 12 5 5 2 2 6 5 2 5 6
15 15 16 16 18 20 22 23 25 27 29 29 27 27 26 19 6 5 7 6 9 11 3 6 10 4 4 2 4 5 6 4 6 10 6 5 4 8 5 5 10 5 4 5 4
16 17 19 19 19 19 21 23 23 26 26 29 27 24 21 6 6 2 6 3 6 11 4 2 2 4 4 5 5 2 8 5 7 4 3 3 2 3 7 6 5 4 7 5 5
17 17 17 19 20 22 22 24 24 24 25 25 26 22 9 4 10 7 5 5 3 8 7 4 4 5 5 4 4 5 6 5 9 9 8 3 9 5 9 3 6 9 8 6 4
18 21 19 20 23 23 23 26 28 28 27 26 23 17 3 5 6 7 6 6 8 9 6 7 5 6 3 4 6 5 4 9 9 8 6 5 1 2 5 8 7 8 6 6 5
15 18 21 21 24 26 27 28 31 32 31 28 19 8 5 18 6 8 8 6 4 4 4 5 3 1 2 2 3 4 5 7 6 3 5 6 5 9 4 6 7 7 7 5 4
17 17 20 23 25 27 30 34 35 36 26 18 8 5 9 12 15 22 18 21 20 14 10 5 3 3 3 3 5 2 4 4 4 3 2 6 8 7 4 8 8 6 8 6 3
17 18 19 21 24 28 33 36 28 14 9 7 8 6 10 8 8 6 8 8 11 18 11 2 5 5 2 4 3 4 3 4 8 4 2 2 9 1 4 3 6 5 7 7 4
17 16 20 20 23 27 34 29 6 6 11 9 4 2 7 4 5 8 3 5 1 7 5 5 3 4 2 4 7 6 4 4 7 3 4 5 12 11 7 7 8 5 6 7 7
17 18 18 21 22 25 26 10 6 4 5 5 4 6 6 11 7 4 2 2 1 4 7 6 4 11 13 6 6 4 3 3 8 5 4 9 7 15 6 5 8 7 7 7 7
18 18 19 19 21 22 13 4 5 7 12 14 19 17 31 11 6 4 1 5 4 6 6 2 11 10 9 9 7 4 4 8 10 6 6 11 14 12 4 5 8 8 8 8 7
20 18 17 20 19 8 11 1 15 15 6 7 5 6 7 13 11 18 4 4 6 6 10 14 4 12 11 6 8 6 10 5 8 7 5 4 7 6 2 3 5 7 6 6 11
17 16 16 18 9 12 5 9 21 8 4 7 4 6 4 7 6 16 16 8 5 10 6 8 14 3 6 11 10 9 9 9 6 3 4 4 6 5 6 7 6 8 9 9 9
16 15 13 9 13 7 6 20 23 3 6 0 4 3 2 5 6 2 11 5 11 6 6 7 4 9 8 6 10 9 7 8 5 5 2 3 2 7 2 7 9 10 14 13 11
17 15 12 9 6 11 12 21 3 1 8 3 2 2 2 4 4 1 3 2 6 3 2 6 3 7 9 9 11 3 3 5 2 2 3 7 6 6 3 6 5 4 9 13 14
16 13 11 10 3 7 20 7 2 5 5 2 3 4 4 4 4 5 4 6 4 5 13 2 8 3 3 4 7 6 5 2 2 1 5 5 3 10 5 7 7 9 9 12 14
16 14 13 15 11 10 8 2 8 3 4 4 5 7 4 8 4 7 3 3 5 1 2 10 8 10 6 8 7 9 10 5 6 4 4 4 6 6 8 7 9 8 6 7 12
14 14 10 17 11 5 3 3 5 4 3 5 3 5 4 5 5 6 5 5 7 6 3 3 5 5 7 11 12 5 8 8 4 1 2 4 6 8 7 8 5 6 7 9 13
12 7 12 13 9 7 3 8 4 2 5 4 2 4 5 6 7 8 5 3 4 6 3 4 5 4 5 4 6 9 6 3 1 5 5 4 4 5 6 8 6 4 9 8 7
9 3 7 19 15 3 7 5 2 8 3 4 3 3 2 4 4 4 2 3 4 6 5 6 3 7 9 3 8 3 9 3 5 5 6 2 5 8 10 9 9 8 9 8 8
6 4 10 25 7 3 11 4 2 5 5 4 1 2 2 3 3 1 4 4 5 3 4 3 3 4 11 16 12 4 7 12 10 4 3 4 10 4 9 7 6 9 9 6 6
3 3 14 17 9 12 4 11 8 4 3 2 3 5 2 2 2 5 6 6 4 5 5 5 2 5 7 5 3 5 5 5 2 2 8 7 5 3 6 5 7 9 8 8 7
2 4 4 6 6 12 16 13 12 6 14 6 2 2 2 1 3 2 4 5 8 9 5 3 4 6 5 9 15 12 8 14 8 5 7 14 4 4 6 7 6 7 8 8 8
6 5 5 5 9 14 12 5 18 11 8 9 5 11 6 4 4 9 10 13 13 10 5 3 4 3 11 14 20 26 22 10 15 12 10 5 10 9 10 10 10 9 5 7 8
6 5 4 3 3 14 16 15 15 15 10 7 8 7 11 10 10 4 3 3 4 3 2 2 3 3 7 13 18 20 21 14 14 5 6 5 6 7 9 6 4 9 9 9 9
20 7 5 8 12 11 16 18 17 17 9 18 14 12 12 15 11 12 13 10 7 7 1 2 3 2 9 10 20 10 24 21 8 6 6 7 7 6 8 9 10 14 9 11 10

GFSSW_925_spd_087.txt.gz
Wind_Speed
15 14 17 19 20 21 23 24 24 24 24 26 27 25 26 31 35 22 8 7 4 15 15 17 10 7 4 2 2 3 2 4 5 6 4 2 5 0 1 4 4 6 4 2 5
16 17 17 19 22 22 21 23 25 25 25 25 27 27 25 26 25 16 5 7 5 19 20 16 7 7 3 3 2 4 3 8 6 6 5 9 5 4 3 5 6 7 7 6 6
14 16 17 18 19 20 24 24 23 26 24 24 25 27 24 20 6 4 11 6 10 17 12 9 10 5 4 2 5 5 6 5 6 10 7 5 7 3 4 9 10 8 4 10 8
16 16 18 20 19 22 22 23 25 24 27 26 23 24 21 6 6 2 6 6 7 15 9 10 6 6 5 6 4 4 9 7 4 5 4 5 3 5 10 11 2 7 3 9 8
17 18 19 20 23 23 24 25 25 26 26 27 23 20 9 3 9 14 9 3 2 12 7 5 6 6 6 5 4 6 6 6 10 6 7 5 12 11 15 7 7 7 7 8 6
18 19 21 23 24 26 28 29 28 30 29 28 20 13 0 6 7 9 5 4 7 8 6 6 6 7 4 5 7 2 6 10 7 9 6 8 7 2 3 9 9 9 8 5 5
18 19 20 22 25 27 30 33 33 34 31 23 13 5 3 19 7 8 6 3 4 5 4 7 4 4 6 2 3 3 7 8 8 5 4 7 5 7 1 10 9 6 4 4 5
19 21 22 23 24 26 30 33 33 25 20 13 9 8 9 8 9 17 19 20 20 14 8 5 4 2 2 1 1 2 1 6 1 3 3 2 7 3 2 10 11 8 5 4 6
19 21 22 24 26 27 30 29 25 10 11 6 9 6 10 7 5 6 10 6 7 15 13 1 4 4 2 4 3 1 7 6 7 1 3 3 8 5 2 8 10 11 9 7 6
19 20 21 23 27 29 29 26 4 2 6 4 4 3 7 3 4 5 5 6 3 11 4 5 2 4 3 7 11 8 5 5 8 3 1 6 14 15 6 10 9 10 9 9 8
18 20 23 25 24 26 26 9 6 2 4 5 7 6 7 12 5 3 3 3 5 4 10 6 8 13 23 15 5 6 5 6 5 5 4 9 10 16 9 9 8 10 11 10 10
19 21 23 23 23 22 11 4 4 5 12 16 21 17 26 15 7 7 2 5 6 7 8 4 13 15 8 9 13 7 8 12 12 2 7 8 16 16 5 7 6 12 12 12 10
20 22 21 22 22 7 7 4 11 9 6 8 5 5 6 16 9 11 4 2 6 7 15 13 5 14 13 10 12 16 17 13 13 9 3 6 6 5 2 4 6 8 12 12 15
17 17 18 21 8 11 4 9 17 3 4 6 4 5 4 6 5 9 14 9 4 11 8 10 11 8 10 14 15 14 11 13 11 5 6 5 8 8 13 10 8 9 13 13 15
15 17 17 13 15 5 7 16 16 3 5 1 2 3 1 5 6 1 5 5 13 5 5 6 6 16 10 8 13 12 7 13 11 8 5 6 6 2 2 12 12 10 12 14 16
19 17 16 13 8 9 9 20 2 1 8 4 3 2 2 5 3 1 3 1 4 8 3 4 2 6 9 12 14 3 4 2 2 2 7 10 7 6 4 5 4 2 8 14 16
15 13 12 11 4 11 16 6 3 5 4 2 3 4 2 5 3 3 3 5 3 5 10 4 8 3 4 4 5 9 6 4 4 4 8 6 7 14 7 9 9 11 6 11 15
13 12 14 16 11 11 8 1 9 2 4 3 3 5 4 9 6 6 4 3 6 4 1 9 7 12 8 13 6 14 13 4 6 6 7 4 7 6 8 8 8 8 6 9 15
11 11 10 18 11 9 2 5 5 5 4 5 4 2 3 4 3 4 5 3 5 8 2 3 4 2 6 10 15 6 8 14 2 1 1 4 5 7 8 9 4 5 6 11 13
5 3 12 13 8 8 3 8 4 1 4 3 1 2 3 6 4 4 3 3 2 8 3 5 4 3 3 3 5 7 8 5 6 7 11 5 5 7 3 5 6 6 6 8 11
4 2 8 16 14 4 7 6 3 1 2 2 2 2 3 3 3 4 4 1 4 8 5 6 1 6 5 1 6 5 10 2 3 4 8 5 6 8 13 11 6 7 4 7 11
3 4 4 24 6 3 7 4 3 3 2 2 1 2 2 1 1 1 3 2 5 4 4 6 1 2 4 10 8 5 3 11 10 8 3 5 12 2 11 6 5 7 5 4 8
2 3 5 14 7 9 6 9 6 3 2 3 2 1 1 3 3 3 3 3 10 5 5 6 1 3 5 0 3 3 6 7 4 5 18 12 6 5 5 5 8 8 9 6 6
2 3 4 6 6 9 12 9 8 7 14 6 3 1 1 3 3 1 2 3 7 9 6 1 3 7 6 5 3 7 14 17 10 10 12 17 16 7 6 9 7 8 9 7 5
5 5 4 5 10 14 12 6 17 10 7 6 3 11 4 4 3 3 3 9 9 8 4 5 5 6 11 10 14 13 14 17 20 18 14 10 16 15 16 10 13 10 4 5 7
4 3 2 4 6 15 14 13 15 15 8 8 9 7 14 11 10 8 4 1 4 6 4 4 1 2 6 13 15 18 20 20 22 20 21 18 19 7 12 9 9 9 7 9 8
11 2 2 3 10 5 12 17 19 15 11 14 13 11 10 10 8 7 8 10 10 9 5 4 2 1 4 1 8 12 12 12 19 19 17 17 11 8 9 8 8 10 8 10 12

GFSSW_925_spd_093.txt.gz
Wind_Speed
15 16 17 18 19 19 20 21 22 22 22 23 25 28 29 30 29 22 19 14 9 9 13 13 15 16 17 16 18 11 13 14 15 12 9 5 7 13 5 14 14 12 11 11 1
17 17 18 19 20 22 22 23 24 24 23 25 25 27 27 29 28 26 20 15 15 13 17 19 16 16 14 15 14 16 13 19 11 11 12 11 10 12 13 14 14 14 7 8 7
20 20 19 19 20 21 23 24 25 26 25 27 26 29 25 23 16 1 2 7 12 14 20 18 18 15 18 17 18 18 19 21 13 9 11 13 16 15 15 15 15 13 12 13 7
19 20 19 20 20 21 24 25 26 27 28 26 29 27 22 12 7 5 3 2 2 10 17 18 17 17 18 19 19 21 22 19 19 13 14 15 18 19 17 18 17 16 5 7 8
19 20 21 21 23 24 25 27 27 26 27 27 27 21 12 9 20 13 7 2 5 13 16 15 18 17 20 18 19 21 19 21 18 16 18 17 20 20 21 20 18 8 6 8 9
20 22 23 25 25 26 28 28 27 27 27 28 19 12 10 16 9 7 8 9 15 16 19 18 16 15 17 17 19 17 17 17 21 19 18 18 20 20 22 19 8 6 9 9 8
20 23 24 25 27 29 30 28 28 29 29 20 15 7 11 23 9 6 9 9 11 17 18 20 19 15 10 17 17 19 20 21 22 21 22 18 23 25 21 9 10 9 9 8 8
19 21 24 24 27 31 31 29 29 29 18 14 10 8 8 10 11 15 17 21 13 10 15 16 14 17 19 17 16 15 18 20 19 18 16 15 19 19 10 10 12 10 10 8 9
20 19 22 24 28 32 30 30 27 16 10 4 4 9 10 3 9 10 12 18 17 20 21 15 13 17 16 17 16 16 18 20 21 13 11 14 15 8 12 9 10 10 11 9 9
19 18 21 24 28 31 31 27 18 13 7 8 9 6 10 6 6 10 9 8 11 12 15 16 11 16 19 17 18 19 20 21 19 15 10 17 20 18 18 13 11 11 9 10 9
18 18 19 23 28 27 27 18 5 8 12 12 12 17 23 18 9 9 9 9 12 12 18 20 17 22 26 24 23 21 23 18 15 10 6 15 18 18 17 19 15 12 11 10 10
16 14 18 22 25 25 14 8 5 6 14 19 24 25 32 27 13 14 10 10 16 17 19 18 24 23 23 22 22 23 22 22 20 18 8 15 21 19 19 17 17 13 10 10 11
15 16 18 20 25 12 8 3 5 12 8 13 18 13 13 16 17 18 16 15 19 19 20 21 19 24 24 22 21 22 22 19 22 18 9 15 22 22 22 21 20 10 13 11 13
15 15 15 20 14 9 8 2 8 9 6 7 7 5 7 5 9 19 20 18 17 24 20 20 22 18 16 26 22 22 19 19 21 17 14 17 15 15 16 11 11 16 16 14 13
18 14 11 14 15 12 6 9 10 2 6 6 8 8 8 9 6 8 8 15 25 21 14 21 16 23 20 21 19 20 14 15 20 15 17 21 12 14 21 14 9 13 11 14 14
17 13 11 15 11 11 9 11 5 7 13 5 7 9 10 11 7 5 5 9 12 25 21 21 12 13 21 18 15 8 13 14 11 15 15 17 16 12 15 14 10 4 5 13 14
15 13 11 12 9 1 9 12 7 9 1 9 6 7 7 6 10 8 8 14 9 14 21 19 22 13 10 15 14 15 10 6 4 10 13 14 14 17 9 3 4 7 5 11 13
13 13 14 13 12 8 11 8 13 9 19 7 3 8 11 5 7 8 9 12 10 12 12 19 20 24 16 15 12 19 18 7 11 9 11 18 9 14 15 8 7 5 5 11 14
13 15 16 15 12 11 8 13 11 14 14 7 11 12 10 6 5 7 12 13 4 6 9 4 14 2 22 22 17 15 16 18 18 15 8 5 9 10 11 8 6 8 9 9 13
15 14 19 11 12 15 9 23 17 13 8 6 14 4 14 10 7 6 11 3 6 3 8 1 5 2 10 9 16 25 10 12 11 15 12 13 15 10 2 10 9 4 10 10 11
10 4 4 15 15 7 13 18 17 4 4 7 10 7 9 0 5 4 5 6 1 2 7 6 5 9 5 10 12 13 17 13 12 13 10 9 5 2 5 8 11 9 4 7 9
5 5 9 16 8 7 13 16 11 10 10 11 6 8 9 1 4 2 4 5 5 6 7 5 4 6 8 5 9 11 14 19 11 14 12 13 11 13 6 5 10 14 4 5 4
4 8 6 14 8 12 13 15 16 14 14 15 13 7 4 8 4 5 1 4 6 4 5 5 4 6 5 8 5 7 9 7 9 7 14 10 6 7 4 4 9 12 12 5 2
3 4 7 7 10 14 15 16 15 16 18 17 14 12 12 13 10 7 2 1 0 2 3 5 8 9 8 7 7 3 9 9 6 7 11 15 16 17 15 15 14 13 13 13 5
3 6 6 5 11 15 14 9 18 16 13 13 18 20 16 15 15 16 15 12 8 7 8 4 10 11 13 14 14 14 13 14 16 14 14 13 15 16 16 14 12 14 14 14 15
3 5 10 13 9 17 16 18 15 15 16 14 14 14 16 18 16 7 13 12 10 5 5 3 8 10 12 14 15 18 20 20 21 20 21 18 19 18 17 19 19 20 20 19 16
6 20 8 6 14 12 12 19 18 16 9 18 13 11 12 11 14 12 10 10 9 6 3 4 4 3 10 10 9 10 17 19 20 22 20 20 18 15 15 19 18 18 20 20 19

GFSSW_925_spd_096.txt.gz
Wind_Speed
16 17 18 19 19 21 22 23 25 27 25 26 29 30 31 31 36 25 21 19 15 19 10 8 14 18 16 17 18 19 13 15 21 22 12 9 5 6 9 9 13 13 11 12 16
17 18 19 20 21 22 24 24 25 25 26 26 29 30 32 31 33 26 25 17 13 12 11 16 16 16 14 14 16 16 13 21 21 19 10 12 16 7 9 12 14 12 1 4 8
18 19 19 19 21 22 24 26 26 26 26 27 29 30 31 28 12 1 3 2 9 15 15 21 20 16 18 17 19 20 19 19 23 24 19 14 14 13 14 15 12 11 9 6 2
19 20 20 20 22 23 25 28 28 27 26 27 29 31 27 11 6 6 3 3 3 6 11 17 18 19 19 20 20 23 23 21 22 22 20 20 16 15 16 16 13 14 9 3 5
19 19 22 24 24 25 27 29 29 28 28 28 29 26 14 8 19 24 9 8 4 8 15 16 17 19 20 20 21 22 23 21 21 20 21 19 19 18 19 16 15 15 6 4 7
20 20 23 25 27 27 30 31 28 29 30 29 26 16 7 15 16 7 9 10 13 14 16 16 15 17 19 19 20 21 22 20 22 20 19 23 20 18 20 17 17 16 6 9 10
21 23 24 24 28 32 34 35 30 29 31 29 17 8 11 25 16 21 12 11 13 15 18 20 20 17 14 16 21 20 23 22 21 21 22 21 23 23 22 20 18 9 10 9 11
22 24 24 25 28 33 37 36 32 29 28 20 14 8 9 18 16 16 17 19 20 15 17 18 19 17 20 18 23 19 18 18 17 22 25 24 21 21 19 10 10 13 12 10 10
23 23 24 26 28 33 40 35 32 28 20 13 7 9 9 9 11 13 15 17 17 20 17 11 11 14 15 16 17 17 19 22 23 22 20 13 17 17 9 8 11 10 10 12 11
25 23 22 25 28 33 40 35 28 24 13 11 16 9 11 8 4 8 14 11 12 12 16 15 9 15 16 14 18 19 21 19 21 21 21 18 15 16 17 15 14 13 12 11 12
23 23 20 21 28 32 35 19 6 5 10 15 8 16 21 22 23 14 14 15 11 13 16 19 15 19 22 22 24 21 22 22 22 20 19 13 12 14 15 17 13 12 10 12 10
20 17 19 21 27 32 26 7 6 7 14 19 27 31 41 32 24 24 16 15 16 17 17 15 22 21 22 23 24 25 25 26 22 23 21 19 15 14 15 18 15 16 14 10 11
22 17 18 20 28 20 11 15 8 14 8 16 27 26 23 23 26 25 18 18 20 20 19 20 17 24 21 23 24 24 24 20 23 21 24 22 17 15 19 20 19 19 12 8 13
23 19 17 18 20 14 13 6 9 12 6 9 9 7 12 8 10 21 24 22 19 24 20 21 20 21 22 23 22 24 19 20 16 17 15 19 16 18 15 17 16 19 14 6 8
20 20 18 14 18 16 10 9 10 4 5 5 11 13 17 13 4 8 17 16 23 21 16 22 20 21 22 23 16 20 20 17 17 18 18 23 14 12 15 14 18 14 14 15 14
21 20 17 17 22 18 12 10 8 5 8 7 10 11 14 15 12 7 7 14 10 21 23 22 20 21 23 21 22 16 16 13 13 11 16 19 20 14 14 18 13 8 6 2 12
23 22 16 14 18 17 9 10 6 8 11 12 12 13 15 15 13 12 11 12 10 9 17 22 22 22 20 14 16 16 10 8 9 7 11 16 16 14 12 16 5 10 9 4 11
19 19 16 18 19 16 13 9 12 13 18 13 5 10 8 10 10 13 13 12 15 15 12 11 16 25 17 19 18 19 17 8 12 10 9 9 10 14 13 18 7 3 2 13 11
16 20 22 21 19 11 7 12 11 16 14 14 18 10 13 13 3 10 15 13 12 15 7 8 17 18 23 17 20 18 18 17 18 7 2 7 14 17 5 10 6 3 6 9 12
17 15 24 21 15 12 7 21 18 24 22 10 14 9 13 12 14 10 13 13 6 2 4 5 7 5 4 22 16 16 12 13 10 14 14 8 4 8 10 5 6 7 7 8 10
8 4 14 21 17 8 11 18 16 23 21 5 12 15 20 7 4 17 7 5 6 5 7 6 6 4 5 7 14 14 15 15 12 12 10 8 3 4 10 12 10 11 5 3 1
4 4 5 25 7 8 14 19 22 20 15 7 14 16 15 11 7 12 2 5 11 6 6 6 4 5 12 7 2 6 17 18 11 12 8 10 7 7 1 9 8 10 11 3 6
3 8 6 8 6 12 14 20 21 18 17 8 12 18 18 10 6 10 6 10 9 8 6 7 3 6 6 5 8 8 10 10 16 11 14 6 6 10 10 6 1 5 10 13 4
3 3 6 4 10 15 11 17 16 15 15 13 14 17 18 14 11 8 3 2 4 5 6 5 5 9 7 8 9 4 9 6 7 5 10 12 12 4 16 15 4 5 6 10 10
3 5 4 3 9 14 16 8 11 15 9 13 15 20 17 14 15 18 15 15 8 6 3 3 6 12 16 14 13 12 12 11 11 8 7 12 15 13 8 11 12 11 11 12 14
3 4 8 12 15 11 15 16 17 14 12 14 15 15 19 19 16 18 18 13 9 7 10 2 8 10 14 15 15 17 17 17 17 15 15 15 19 16 15 13 12 10 9 11 12
7 16 6 7 8 13 12 13 17 16 7 15 12 11 14 15 11 16 6 8 6 9 1 2 4 7 10 12 14 12 15 16 15 16 15 17 14 14 13 14 11 12 16 15 11

GFSSW_925_spd_099.txt.gz
Wind_Speed
15 16 16 17 19 20 21 22 23 24 25 26 28 31 32 34 37 24 9 19 12 16 15 6 7 14 18 6 9 2 3 12 11 14 17 9 5 4 5 4 3 7 8 9 31
16 15 16 18 19 21 22 24 26 26 26 27 29 31 32 34 32 20 24 16 14 11 17 12 7 11 5 5 5 8 4 14 12 17 12 13 7 6 1 4 3 3 5 25 28
18 18 18 19 20 22 24 27 28 27 27 28 30 31 32 29 8 6 3 3 8 12 16 14 16 9 10 7 10 7 14 14 16 17 14 9 10 6 7 6 6 4 3 8 12
19 20 21 21 22 25 29 31 31 29 28 28 30 31 29 8 6 4 1 2 4 5 9 6 6 9 8 10 10 13 16 15 17 18 14 12 7 8 5 8 6 8 3 6 8
19 20 22 23 24 27 31 35 35 30 29 29 29 26 12 3 12 17 28 14 4 6 12 9 8 8 12 8 11 15 15 16 18 14 11 14 9 9 12 9 8 9 8 8 7
19 21 24 27 27 28 32 35 37 34 29 28 27 17 3 8 14 14 8 13 7 13 11 12 9 10 10 11 12 12 14 16 8 9 7 13 9 4 15 10 11 10 11 9 10
21 23 25 26 28 30 33 37 40 35 29 27 21 6 7 22 14 28 24 18 16 16 7 20 23 8 6 7 11 9 12 13 14 8 9 10 14 16 15 15 16 11 9 9 9
24 25 26 26 28 32 35 41 43 31 28 24 12 6 8 22 21 27 20 19 18 20 24 19 20 6 4 6 10 7 7 7 5 7 11 10 21 23 16 16 16 18 9 8 8
25 28 28 26 28 32 37 44 37 28 25 14 7 7 10 13 7 17 18 15 17 20 22 18 9 3 4 3 5 4 10 15 14 11 11 9 18 19 17 9 7 8 9 9 9
23 25 25 25 26 32 40 44 29 16 3 5 8 4 10 8 5 7 9 12 6 6 6 7 4 4 2 3 11 7 11 13 17 13 13 16 20 18 10 7 10 10 10 10 11
21 25 26 24 26 33 39 22 6 2 2 7 8 8 13 12 25 11 12 12 8 8 9 9 7 11 11 13 15 11 13 17 13 12 11 11 14 13 9 4 7 9 9 10 14
23 26 26 25 25 31 30 4 8 6 11 15 22 28 38 32 17 25 25 8 8 13 8 9 20 15 13 12 17 19 20 20 19 14 15 15 17 16 11 6 7 8 9 10 16
22 22 23 21 24 23 16 23 19 16 5 13 16 16 14 15 19 33 10 12 14 14 15 17 8 18 17 17 18 18 17 12 17 14 13 13 19 13 11 6 10 15 9 8 22
20 20 21 20 16 13 16 20 19 14 4 10 9 9 11 9 8 19 29 13 9 16 12 16 15 19 20 20 18 17 12 16 17 9 8 0 17 16 16 19 15 18 18 9 17
18 19 20 14 14 10 16 29 23 6 5 8 8 8 6 13 3 5 16 13 21 17 9 17 8 13 19 18 19 15 11 13 13 10 7 4 11 5 12 21 19 9 12 13 22
16 18 20 18 13 22 22 22 11 4 8 7 7 8 8 11 7 0 4 6 3 12 15 17 11 7 6 12 12 6 4 8 9 2 9 10 12 4 10 16 15 16 13 14 23
19 20 18 16 8 19 17 13 3 5 9 9 6 10 17 13 12 12 10 12 8 6 14 14 21 17 11 10 13 9 7 1 2 2 6 8 11 12 15 19 23 18 9 11 21
20 16 17 17 21 20 14 4 8 10 16 18 16 14 12 14 19 16 11 10 14 12 4 8 5 17 11 15 7 6 7 6 8 5 3 9 7 6 10 17 20 13 7 15 19
17 13 15 22 21 18 4 3 5 7 5 16 21 8 5 11 4 3 11 7 9 15 8 4 7 3 8 19 10 6 9 9 10 4 3 4 6 10 15 21 11 5 4 13 16
11 12 13 22 19 14 4 10 11 13 19 17 14 8 10 13 11 14 4 3 8 3 4 2 3 4 10 14 12 11 4 8 6 13 7 5 5 3 16 13 5 15 6 11 15
4 4 13 12 15 4 6 5 12 18 17 11 15 14 14 8 6 4 9 8 10 13 8 1 1 5 6 2 15 5 11 2 3 9 5 2 4 6 4 7 10 14 9 9 6
2 3 3 5 5 2 2 5 8 20 21 19 7 7 10 14 5 10 4 1 5 15 6 6 1 1 7 10 10 8 7 9 8 5 3 7 7 7 9 7 10 10 18 14 9
2 4 7 10 3 3 5 14 18 19 20 12 10 5 9 9 6 8 2 2 7 8 8 6 3 1 2 11 14 2 1 3 9 6 10 3 3 6 13 11 14 5 17 15 13
2 4 2 3 3 3 5 6 12 13 16 15 8 10 6 7 10 5 8 4 2 3 7 4 3 5 3 3 6 7 11 8 9 4 6 6 6 9 9 6 9 5 3 9 7
2 4 3 4 4 8 9 10 14 7 5 10 3 6 8 9 10 7 12 10 15 3 4 5 4 6 6 9 10 12 10 3 8 12 2 5 7 6 10 10 17 4 13 16 19
1 2 4 4 6 8 3 4 12 14 5 8 9 8 7 8 10 10 12 8 3 7 1 3 5 7 6 5 8 14 12 9 9 10 5 5 10 3 4 8 5 14 13 16 19
5 8 2 5 5 5 3 12 10 18 10 6 10 11 11 7 5 12 13 3 1 5 7 2 1 3 3 7 10 6 7 10 11 8 4 5 8 11 7 11 13 13 13 13 14

GFSSW_925_spd_102.txt.gz
Wind_Speed
16 17 17 19 20 22 24 24 26 27 25 26 28 31 32 33 38 26 9 21 11 5 11 2 4 7 6 3 4 4 2 5 7 6 6 7 6 4 4 4 3 5 4 5 28
18 18 18 19 21 22 23 27 29 30 29 27 29 31 33 33 30 16 15 12 12 12 13 11 5 6 2 4 4 5 5 9 8 7 10 13 4 7 3 6 4 3 5 19 28
18 19 19 19 21 23 26 29 31 31 32 30 29 30 32 25 6 7 2 7 6 9 14 13 8 5 5 4 6 5 11 10 12 10 9 15 8 5 4 6 7 5 6 11 12
18 19 20 20 21 24 28 31 31 31 32 31 28 28 27 6 6 1 2 9 6 8 10 6 4 5 5 10 8 7 9 9 13 14 10 14 13 9 6 10 8 9 6 15 14
19 20 22 23 23 24 29 32 34 35 35 31 26 24 11 4 12 18 17 15 10 9 9 5 7 7 6 5 7 9 15 14 14 15 17 14 13 10 11 11 9 9 7 14 15
21 23 25 24 25 26 30 32 35 39 36 30 22 18 2 7 10 5 7 17 12 11 6 8 7 7 5 7 10 8 10 15 12 12 5 8 7 2 13 6 9 9 12 10 13
21 23 28 28 28 29 31 36 39 42 39 30 19 7 7 23 16 17 27 31 17 16 8 11 15 4 3 7 8 8 13 9 5 5 6 7 9 9 14 7 10 12 11 10 10
18 22 25 27 27 29 33 37 45 40 31 23 8 4 9 24 24 31 26 27 19 17 16 16 16 6 6 6 7 5 4 5 3 1 5 2 10 12 15 8 15 16 17 11 12
19 21 25 28 29 31 35 42 40 26 16 4 4 5 11 12 11 18 16 13 12 11 17 15 5 6 4 3 3 3 13 10 5 4 4 5 12 10 10 10 17 17 18 13 8
19 22 28 30 30 31 36 39 15 11 10 6 3 2 8 6 5 11 5 9 7 6 3 5 4 5 2 4 15 8 7 6 5 4 6 10 19 11 13 9 18 11 9 9 9
20 22 26 27 28 28 35 14 7 5 7 7 8 7 16 11 21 5 7 12 2 4 6 5 4 12 11 11 10 10 8 11 1 5 7 9 14 9 10 8 10 9 9 8 7
20 21 22 25 25 23 15 5 6 14 13 10 20 25 40 28 13 24 5 2 4 8 4 4 17 11 10 9 10 12 14 20 12 11 13 13 20 10 8 8 11 13 10 7 11
20 21 20 23 22 15 18 14 26 29 5 12 14 14 10 21 25 32 9 6 8 4 12 15 6 16 13 14 15 15 17 14 15 14 16 12 20 8 6 7 13 18 9 7 18
20 20 20 21 11 17 15 22 25 24 4 10 8 11 9 9 9 13 23 11 7 19 7 13 16 17 13 18 16 18 17 17 15 10 8 6 13 9 9 15 14 17 16 8 14
19 18 18 13 12 7 14 24 26 1 5 10 6 5 9 12 1 5 13 13 18 9 10 11 8 19 22 19 17 13 17 15 16 9 4 4 4 4 4 9 15 16 17 8 16
19 20 19 20 10 18 18 20 11 2 9 8 4 5 5 8 4 2 6 6 7 3 9 13 7 4 7 8 15 12 14 15 13 5 10 7 6 6 4 8 7 15 17 4 15
22 20 20 15 8 13 14 7 3 8 7 12 9 11 15 7 8 5 4 8 6 6 12 8 22 16 9 7 7 6 3 4 3 2 5 6 5 14 10 12 16 19 17 15 14
21 22 25 25 25 19 6 4 9 13 22 17 14 17 6 8 6 5 5 7 7 4 2 7 7 13 7 18 6 8 9 5 8 5 4 7 5 5 4 7 13 12 9 3 13
21 19 16 24 17 15 2 5 3 6 5 13 17 5 14 20 11 7 2 5 9 16 7 5 6 3 5 12 15 9 7 8 5 3 3 4 5 7 5 11 17 12 18 7 14
13 12 13 15 9 6 4 11 8 9 13 15 12 9 14 17 10 3 7 5 7 8 13 5 8 5 3 4 12 10 5 4 3 8 6 4 4 5 3 11 19 16 14 10 4
6 4 8 11 9 2 5 6 8 8 11 8 17 18 15 13 15 6 9 5 5 8 13 7 4 4 1 2 4 5 10 1 4 4 10 1 5 5 6 8 9 14 11 15 6
2 3 1 3 1 2 3 4 6 11 12 13 9 13 3 6 7 4 4 3 5 8 9 8 5 4 5 4 4 4 4 6 4 2 3 4 5 2 6 6 7 8 14 14 13
2 3 7 5 1 3 5 7 6 13 14 6 8 16 8 5 5 8 3 9 5 4 6 8 5 4 4 3 7 6 6 5 4 4 5 3 3 3 12 12 7 8 13 17 18
2 3 3 1 2 4 4 5 6 6 11 7 10 12 1 2 2 6 5 3 5 5 13 6 5 3 2 2 1 2 6 8 4 3 1 12 6 4 4 9 6 10 10 5 12
2 3 3 2 3 2 4 5 11 9 5 7 7 10 10 4 4 3 6 6 10 7 4 5 3 5 6 2 3 3 3 4 3 1 1 3 1 5 5 10 1 10 8 11 11
2 2 2 3 5 6 5 4 10 14 3 10 7 9 5 4 3 4 6 5 4 5 6 3 3 2 2 6 6 2 4 3 4 4 10 9 0 3 3 11 4 4 10 10 10
4 6 1 2 2 2 3 4 15 11 10 11 9 5 5 2 1 6 6 6 8 3 3 6 4 4 1 8 4 3 2 5 5 9 13 3 2 7 13 12 9 4 5 7 9

GFSSW_925_spd_108.txt.gz
Wind_Speed
16 18 19 21 22 23 23 25 28 28 27 29 30 31 30 31 35 26 7 10 4 6 13 9 8 9 5 3 4 4 2 5 6 8 6 3 2 2 3 4 4 3 3 5 2
16 16 17 20 22 24 25 26 28 27 27 28 30 32 30 29 31 14 8 10 8 6 11 12 6 7 2 3 3 5 5 10 7 7 6 2 1 2 5 7 6 6 2 5 11
17 18 20 21 23 25 26 29 29 27 27 27 28 30 30 22 6 5 3 12 7 5 5 4 7 6 3 3 5 5 7 5 6 7 4 3 6 1 2 8 8 8 10 2 5
16 17 18 20 23 25 30 32 31 30 29 27 27 26 24 8 6 0 3 15 11 3 5 3 3 5 5 7 6 5 7 8 4 6 2 7 2 5 7 11 11 11 7 5 9
17 18 20 21 24 27 32 35 34 33 34 30 24 20 9 4 11 13 19 11 3 4 5 3 4 5 5 5 4 7 3 7 7 7 6 7 14 9 11 14 11 11 7 10 10
18 18 20 23 25 29 33 37 35 33 33 31 20 11 1 5 7 7 9 10 5 3 1 6 6 6 4 5 7 3 8 14 9 9 6 10 18 2 12 5 9 10 11 10 11
18 18 21 23 28 31 36 38 35 33 30 24 14 4 3 19 14 19 24 30 28 17 4 13 9 2 1 4 5 5 8 7 7 6 7 5 7 14 13 7 10 11 8 8 12
16 19 23 26 30 32 39 39 32 28 16 16 3 8 8 13 17 20 17 17 15 21 21 20 13 4 5 5 5 3 4 3 4 10 6 8 25 3 9 6 9 9 9 8 9
19 20 23 26 30 35 38 34 26 8 13 8 6 3 10 11 7 9 20 8 14 5 14 5 7 7 3 4 3 4 5 5 4 7 4 10 17 3 1 3 8 9 8 9 10
17 19 22 25 31 36 36 24 11 6 10 3 3 2 7 5 8 22 14 6 5 4 3 4 3 4 2 5 12 5 6 4 6 3 6 8 18 7 9 4 9 9 12 10 10
16 18 20 25 28 27 34 8 8 6 8 6 13 11 21 22 29 12 5 11 4 2 5 5 4 19 16 10 10 9 5 8 2 4 3 7 16 7 9 8 9 9 9 11 9
17 19 21 24 27 19 24 7 6 10 14 15 22 27 33 22 13 17 19 4 4 7 4 3 16 6 9 9 10 9 14 19 4 5 6 11 27 13 6 8 9 10 11 11 7
16 19 22 24 20 16 12 16 21 23 6 6 8 8 5 9 8 5 10 7 9 13 13 13 8 15 11 7 12 16 19 9 8 1 7 3 25 16 9 6 8 8 9 9 11
16 18 21 24 5 21 3 21 22 12 4 7 5 6 2 3 7 9 13 9 8 22 10 11 17 14 4 12 10 16 10 8 9 5 6 5 10 2 5 9 5 9 9 10 9
14 16 18 16 10 7 11 20 22 1 4 3 5 1 11 4 19 3 2 4 23 8 9 22 7 11 16 18 12 8 10 12 7 6 2 3 4 5 2 3 8 5 9 12 11
14 14 14 12 10 6 9 17 5 4 7 8 6 22 22 27 14 9 7 6 3 8 7 15 2 9 13 8 18 7 3 3 3 4 5 8 7 3 3 4 4 6 12 16 14
14 15 15 9 3 5 8 4 4 2 10 9 13 20 27 16 13 8 9 5 5 3 7 13 10 3 5 5 5 7 7 2 1 3 6 10 7 9 5 3 6 4 10 14 15
14 17 15 8 7 5 1 5 4 4 4 7 11 28 13 16 12 15 10 5 5 3 1 6 5 16 7 7 7 11 14 5 7 4 4 7 6 5 10 8 7 5 10 15 18
15 14 7 6 1 8 4 4 4 3 4 6 17 10 13 17 12 10 7 6 2 8 3 3 5 4 11 9 9 5 9 8 3 1 2 4 4 8 5 7 7 6 12 13 14
10 8 5 5 7 3 3 3 4 4 9 7 7 6 16 23 13 8 5 11 13 12 5 4 3 3 4 5 7 9 7 3 1 6 7 3 3 4 2 6 7 5 7 8 15
4 3 6 10 4 3 2 4 5 8 9 4 7 13 18 13 8 7 10 6 18 12 13 3 3 5 1 4 8 4 5 4 5 5 5 2 5 4 4 4 8 4 6 9 16
2 2 7 3 3 1 2 3 7 7 6 8 9 11 8 8 5 4 7 7 17 15 8 5 4 4 7 5 2 1 4 10 5 7 2 3 5 5 7 8 7 5 8 7 16
1 2 1 3 1 2 4 4 4 4 4 3 5 6 10 5 4 9 5 8 9 12 4 5 3 2 1 3 5 3 2 2 5 3 6 5 4 2 4 7 6 7 7 9 14
2 2 3 0 1 2 3 4 4 5 5 5 8 8 9 4 3 5 9 4 7 2 12 4 3 6 3 2 8 6 6 6 4 5 7 3 4 5 4 1 5 6 7 10 11
1 3 2 2 2 3 3 3 4 6 3 5 4 10 10 4 5 5 5 7 10 6 5 1 5 3 7 8 5 5 8 12 4 1 6 3 2 2 5 5 4 6 7 7 11
3 2 2 2 3 3 3 3 4 5 3 5 6 15 11 4 4 13 11 5 5 7 6 2 2 4 6 9 5 1 3 12 5 3 4 4 6 5 6 6 8 7 7 5 8
5 1 3 3 2 2 3 1 4 8 6 7 10 12 7 6 9 17 15 13 10 7 4 4 1 2 2 6 9 2 6 9 4 2 4 2 4 5 5 8 7 7 7 4 7

GFSSW_925_spd_111.txt.gz
Wind_Speed
14 16 17 19 20 21 21 22 24 24 24 24 25 27 30 26 31 22 7 6 4 4 7 11 12 5 6 4 3 2 4 8 10 10 6 3 4 2 0 2 4 3 1 2 8
15 16 17 19 20 21 23 25 26 25 25 24 25 26 28 25 25 10 3 12 4 5 10 9 6 9 4 5 4 5 7 12 6 8 6 3 3 1 2 5 4 5 4 5 5
15 16 16 18 20 22 24 27 27 26 25 24 24 24 25 19 7 3 1 8 7 4 4 7 5 5 5 3 6 6 13 6 5 9 6 6 7 5 5 8 8 8 14 8 6
16 17 17 18 21 23 25 29 29 27 25 24 22 22 17 6 5 0 6 11 7 3 7 4 5 4 5 8 6 6 7 12 8 6 5 6 3 9 10 14 15 11 11 11 12
16 17 18 20 21 24 27 29 29 28 25 24 19 15 7 3 9 7 12 7 4 3 6 7 6 6 6 5 6 8 5 7 11 12 10 9 18 18 9 15 13 13 12 14 13
15 17 19 21 23 25 29 31 29 26 25 19 14 5 2 4 3 6 10 14 11 4 1 5 5 4 4 5 10 3 6 13 10 13 7 14 21 10 11 14 13 10 14 13 11
14 17 20 22 24 27 29 30 29 24 16 12 9 6 4 14 7 16 17 14 15 15 6 7 4 2 1 4 3 5 12 11 10 7 9 5 20 16 19 17 17 15 15 13 12
15 16 19 22 26 30 32 32 23 12 9 11 0 5 7 7 13 8 17 12 11 8 17 22 12 10 4 5 4 5 5 6 1 11 7 11 26 6 9 10 13 10 8 9 13
13 16 19 22 27 30 33 27 10 4 10 6 2 2 9 11 4 7 11 11 18 4 3 3 7 6 5 8 9 6 14 10 5 8 5 16 18 4 2 2 6 8 10 10 13
12 15 19 22 28 27 32 17 6 3 9 3 1 4 3 8 13 18 26 16 4 7 2 4 4 6 6 10 16 10 11 9 15 6 10 15 19 13 13 10 10 11 11 14 15
12 16 19 23 23 24 34 7 9 5 10 4 16 7 18 13 24 6 13 8 4 5 6 5 7 19 18 20 19 13 11 14 6 2 6 13 21 18 13 11 11 14 16 17 18
12 16 20 24 14 21 29 8 6 5 11 20 21 14 25 13 6 14 6 4 5 13 10 5 19 12 11 15 15 17 20 25 14 12 11 19 28 20 17 18 20 19 18 18 17
12 15 21 21 5 22 13 11 14 13 5 9 6 6 7 4 4 7 6 3 9 17 16 18 28 17 11 10 17 20 23 18 17 8 10 10 29 20 18 20 18 16 18 15 13
12 14 20 16 4 15 4 17 18 3 4 6 5 2 13 14 5 23 3 5 4 7 13 17 27 14 9 18 15 19 11 17 15 9 11 6 12 3 9 12 9 10 5 7 9
12 14 17 16 5 3 10 17 14 2 5 12 5 5 17 18 16 7 12 5 19 16 6 12 5 18 23 19 15 9 10 15 16 15 10 16 8 2 4 5 1 5 5 8 10
11 13 13 8 6 5 13 14 4 2 5 7 9 17 17 16 16 10 11 13 8 11 14 24 14 10 19 13 20 6 6 5 3 6 8 13 12 4 9 7 7 4 6 7 12
11 12 9 7 2 6 10 5 2 2 6 8 10 13 20 8 11 15 21 15 9 6 11 11 22 16 9 12 13 17 12 6 7 6 9 6 11 11 7 5 8 8 6 8 12
10 10 5 5 4 1 4 4 4 0 5 7 8 22 6 10 15 17 14 15 16 17 12 9 8 21 16 18 12 19 17 8 9 7 7 9 9 6 12 10 9 6 7 10 14
9 7 5 9 4 5 4 4 3 3 4 9 16 8 8 8 11 10 9 6 7 11 6 4 6 4 10 12 16 9 17 16 2 1 3 6 6 8 8 14 8 5 10 14 14
5 3 6 2 7 4 3 1 2 4 6 4 5 3 12 13 13 12 6 7 11 8 10 3 6 6 0 15 12 10 17 9 6 9 7 4 3 4 12 13 10 8 12 11 12
4 3 5 8 4 3 2 2 4 7 7 3 5 8 9 12 8 5 5 11 9 15 11 7 3 2 5 7 19 12 11 7 9 5 10 9 5 4 1 14 10 11 11 12 14
4 2 5 4 3 2 1 3 3 6 4 7 6 9 10 14 7 5 5 6 16 12 14 4 4 6 12 4 1 11 21 11 11 13 7 5 5 3 6 10 10 11 11 12 16
2 1 2 2 2 1 3 3 4 3 5 3 3 2 10 8 7 8 8 11 10 14 9 7 3 5 5 3 5 6 4 5 15 0 14 9 5 3 7 9 9 13 9 8 14
2 2 2 1 2 2 1 3 3 4 4 2 4 4 11 9 8 10 11 9 19 16 13 1 4 8 2 3 1 1 3 6 5 12 16 8 7 10 8 8 9 11 10 8 10
2 2 2 1 1 1 1 3 4 4 3 2 2 8 10 6 13 4 13 19 13 8 12 1 2 6 14 7 1 3 2 3 2 3 13 17 13 12 11 6 9 10 9 10 9
3 3 2 1 2 2 2 2 2 3 3 4 4 13 13 9 12 19 17 16 10 9 12 8 3 3 3 13 6 1 0 5 3 2 4 6 4 3 4 10 9 10 11 12 10
3 2 3 1 2 2 3 2 1 7 5 8 10 15 11 11 12 20 18 19 17 16 9 6 7 9 5 6 7 5 2 1 2 4 3 5 4 7 11 12 9 11 11 11 9

GFSSW_925_spd_114.txt.gz
Wind_Speed
11 12 14 15 16 17 19 21 22 22 20 21 22 24 24 24 27 12 10 6 8 7 2 6 9 11 12 11 10 6 11 16 19 18 13 3 10 6 2 6 3 2 2 3 5
11 12 13 14 16 17 19 21 23 22 21 20 20 23 24 22 20 9 2 9 9 5 7 12 12 12 9 13 8 13 15 22 17 14 11 6 10 5 8 13 9 7 4 5 5
12 13 14 15 17 19 20 21 24 23 22 21 21 21 20 16 7 4 1 7 9 1 5 8 6 11 16 12 15 13 23 17 13 14 16 15 14 12 12 16 14 13 5 8 8
13 13 14 16 18 19 22 24 24 23 21 20 20 18 13 6 8 3 4 11 6 3 6 6 7 12 12 20 18 17 18 18 18 17 14 17 17 15 16 17 15 12 13 13 13
12 14 16 18 19 21 23 24 25 25 23 18 14 12 6 5 5 4 8 9 6 3 9 10 12 13 16 11 18 19 19 18 16 19 19 17 20 21 23 16 19 16 16 17 15
12 14 15 18 20 23 25 27 27 22 15 10 9 4 3 7 1 8 13 14 12 10 9 10 11 13 14 15 17 13 14 17 17 18 20 22 24 22 18 13 22 19 19 19 17
12 13 16 17 21 24 27 26 24 13 8 9 7 3 5 7 8 10 8 8 6 9 14 13 10 11 5 13 13 14 18 19 19 19 19 15 25 27 21 22 25 24 20 19 18
10 13 15 18 23 24 27 29 11 6 9 8 3 2 4 4 10 13 14 6 10 10 10 15 16 12 14 13 15 13 17 17 13 11 19 18 25 3 2 10 14 15 17 15 16
11 13 15 20 23 24 27 23 5 4 8 5 1 5 3 5 24 21 20 21 25 12 7 6 7 12 14 15 16 17 19 21 15 10 13 18 19 15 6 12 16 13 13 12 13
10 12 16 20 18 22 26 6 4 4 8 3 1 8 4 15 25 24 18 17 12 15 11 6 6 11 16 16 20 16 20 18 22 17 17 22 23 17 14 12 12 12 13 14 16
9 12 16 18 15 20 21 3 3 3 10 5 10 4 8 18 12 14 19 20 11 12 16 13 10 21 21 23 26 22 24 22 18 7 13 17 21 20 18 20 18 18 20 19 18
8 12 15 16 11 18 14 7 6 2 6 3 5 5 8 8 15 11 22 10 14 14 15 15 24 29 19 21 22 24 26 28 21 17 14 21 28 25 23 22 21 20 21 22 22
8 12 15 12 8 10 18 11 2 1 3 4 3 2 5 19 15 9 22 16 15 15 11 19 37 12 23 18 21 24 25 20 21 16 17 20 31 25 26 27 24 23 24 21 18
7 11 14 7 3 6 4 8 6 5 2 7 5 3 9 17 4 15 18 16 15 17 16 17 19 21 24 25 23 23 20 19 18 13 16 14 22 15 4 8 11 14 12 10 9
7 10 12 13 3 3 7 11 6 4 5 6 4 6 16 15 14 3 19 13 21 22 21 33 23 11 18 34 19 25 17 15 15 15 16 21 11 11 11 13 11 8 5 6 4
6 7 8 5 3 4 9 9 3 4 0 4 7 15 20 14 11 10 19 14 13 22 25 32 26 25 24 19 24 18 12 11 10 10 14 20 16 11 12 10 7 5 5 1 3
5 6 6 4 3 8 8 3 4 2 3 5 8 13 18 15 12 16 16 16 11 13 16 26 28 28 27 25 21 25 18 10 10 10 17 9 13 18 4 6 7 7 5 3 5
3 5 7 5 4 4 3 1 1 2 4 8 9 17 6 12 12 15 15 9 13 16 15 16 21 22 19 28 26 23 25 12 19 13 14 12 10 9 13 14 9 9 5 4 6
5 6 3 7 4 4 2 1 2 2 2 7 14 8 10 13 11 10 14 4 4 6 7 11 11 22 18 25 25 26 22 28 18 13 8 12 16 8 7 15 14 9 6 4 6
6 6 5 3 4 3 1 3 1 1 4 3 5 3 14 15 12 15 8 5 10 8 4 5 14 15 8 15 22 24 23 21 14 19 20 18 18 8 14 17 16 10 7 5 8
4 3 3 4 3 0 1 2 2 1 2 2 5 9 12 12 13 17 6 15 8 24 21 10 7 8 7 10 19 17 16 19 20 16 15 14 12 8 14 17 15 10 7 7 9
2 3 4 4 2 1 3 2 2 2 1 3 6 9 11 13 16 14 8 14 17 20 24 3 6 8 14 4 5 22 21 24 14 23 16 12 7 5 8 16 13 11 10 10 10
2 3 1 2 3 4 3 3 4 3 2 2 4 3 10 14 9 8 15 18 15 23 11 11 6 12 6 6 7 4 18 19 21 15 19 15 10 7 10 13 13 14 12 10 11
2 3 3 1 1 2 2 4 2 3 6 5 8 8 12 13 10 13 20 12 18 20 14 11 6 6 8 16 2 6 2 9 19 15 16 15 15 10 11 14 14 13 11 10 9
0 2 1 5 5 6 4 3 4 2 2 5 5 5 11 7 19 10 20 24 16 10 10 14 9 12 15 19 11 2 12 10 10 20 17 16 15 12 14 12 13 12 10 9 9
3 3 3 4 6 9 5 4 5 3 3 5 9 9 14 15 15 20 23 21 13 13 16 13 8 16 18 9 12 3 4 3 12 14 16 12 19 11 12 9 11 11 11 9 8
3 2 2 5 7 6 6 6 3 2 5 8 8 14 15 16 17 23 23 24 22 21 18 9 7 11 7 14 5 4 9 2 3 3 4 10 3 5 12 12 10 10 9 9 9

GFSSW_925_spd_117.txt.gz
Wind_Speed
8 10 11 13 15 16 17 19 20 21 20 20 20 21 22 24 27 15 6 6 7 15 8 8 9 16 18 19 21 14 15 19 22 21 20 14 7 14 12 15 7 14 12 8 8
9 10 10 12 15 17 18 20 22 21 21 20 21 20 19 21 20 5 1 2 8 7 3 7 10 13 14 17 19 18 16 26 19 17 16 13 7 16 11 16 14 11 10 6 7
8 9 11 13 16 18 20 21 22 23 23 21 20 20 18 17 9 7 1 7 9 5 8 9 11 14 18 20 19 21 25 23 20 19 17 14 19 16 17 17 19 20 18 16 13
9 10 11 14 16 18 20 22 24 25 24 20 17 16 15 8 7 8 9 12 11 6 9 12 9 12 18 21 23 25 26 23 22 23 19 20 20 22 20 18 20 14 14 7 13
9 11 12 13 16 19 20 22 23 25 18 14 11 11 8 7 7 9 14 12 10 9 10 10 13 15 18 19 20 28 25 25 23 21 22 23 25 22 24 20 19 19 20 15 17
9 11 12 14 16 20 20 24 25 16 11 9 11 7 7 6 8 13 12 11 9 12 15 15 12 16 20 24 22 22 24 23 23 26 24 24 25 24 25 23 24 24 22 20 22
8 10 11 14 18 20 22 25 21 9 8 9 7 2 5 5 7 10 14 16 9 13 12 13 16 15 13 19 20 21 25 23 25 22 23 20 28 29 24 24 27 25 23 24 24
6 8 11 15 19 19 22 25 9 4 7 7 4 4 2 2 10 16 18 18 16 18 15 11 11 17 17 18 22 23 22 22 21 25 25 24 34 24 15 16 30 26 25 24 23
5 8 12 16 17 20 21 17 5 4 7 3 3 6 6 2 19 18 15 18 19 16 14 9 10 12 14 17 17 20 22 26 26 21 18 16 27 22 23 23 14 16 16 18 18
5 8 12 16 15 20 17 9 6 4 8 4 7 7 6 10 18 13 15 19 12 11 12 16 9 14 17 15 19 20 20 21 22 19 20 22 25 22 20 16 16 17 18 16 18
6 8 12 16 12 20 19 5 3 6 9 5 5 3 5 14 6 12 15 23 8 13 11 11 17 26 22 22 27 20 25 27 26 20 20 21 22 19 21 23 22 21 20 17 16
6 9 12 15 7 19 10 5 4 4 3 3 2 2 4 12 13 16 10 14 17 17 17 14 25 25 24 26 29 25 27 30 28 26 21 24 23 22 22 25 22 21 21 20 19
6 9 12 10 5 8 14 7 2 3 6 4 2 2 5 15 12 12 15 15 17 19 20 21 31 23 25 26 29 30 27 28 26 24 19 23 29 25 27 28 27 27 25 22 21
6 9 10 4 0 4 3 4 3 1 5 3 1 4 6 14 4 13 9 13 15 21 21 22 27 26 26 29 28 26 27 26 23 20 18 21 22 22 24 25 23 24 25 23 21
6 8 8 6 5 2 4 5 2 4 4 3 2 2 11 11 12 9 15 16 18 21 17 28 29 29 30 26 20 31 25 25 22 18 20 25 18 15 15 19 17 14 13 13 6
5 7 5 4 1 2 6 5 4 5 2 3 3 10 14 11 13 8 15 7 10 17 20 23 25 25 30 33 31 26 23 26 20 16 17 25 22 19 17 12 11 4 1 6 5
5 4 4 3 4 7 6 5 6 4 2 3 7 10 14 11 14 13 17 15 9 15 23 31 22 21 33 30 29 28 22 17 16 15 20 23 21 19 13 11 11 15 10 8 7
4 2 2 3 5 6 5 2 4 4 2 7 7 12 7 9 11 16 16 16 11 14 18 18 29 22 26 29 28 28 26 17 24 16 21 22 19 18 17 16 8 10 11 8 5
4 2 2 4 4 6 5 3 2 1 3 5 11 5 5 12 12 14 18 9 7 9 8 18 21 40 30 20 23 26 25 27 26 20 14 13 18 19 15 13 14 12 11 7 6
5 5 1 5 6 8 3 2 2 1 2 3 4 2 11 13 12 15 13 8 16 9 14 12 29 21 22 19 23 23 21 23 18 23 23 17 18 16 19 14 21 15 10 8 8
7 4 2 4 6 2 3 4 2 2 3 4 5 9 11 12 13 16 7 15 12 21 17 20 7 22 13 7 12 13 19 21 18 19 18 15 15 16 14 18 19 16 11 8 7
3 3 4 4 4 2 3 3 1 4 4 4 5 10 9 10 15 18 15 11 19 18 22 5 8 14 31 14 16 21 21 23 11 21 18 16 14 12 12 14 15 14 11 11 11
3 3 3 4 3 5 4 5 4 6 4 3 5 5 9 12 14 12 17 17 12 21 14 10 7 13 20 8 18 12 16 19 19 17 21 16 15 5 3 13 10 16 14 11 11
2 3 3 3 3 6 4 5 6 5 7 8 9 9 9 11 14 12 21 13 18 18 10 11 11 17 15 19 14 16 23 15 16 15 18 18 18 7 13 14 16 17 12 11 11
2 4 4 4 6 8 7 5 8 5 7 6 9 11 8 11 17 17 20 22 20 3 9 14 17 17 21 25 19 18 13 13 12 15 17 18 19 14 15 15 15 14 12 10 11
4 3 4 2 6 9 6 6 9 7 6 10 10 12 9 14 17 21 22 20 24 14 17 15 12 18 22 13 17 19 8 13 15 18 19 15 21 17 6 19 18 17 12 11 10
5 2 4 6 8 8 8 8 6 5 8 10 10 10 13 16 17 21 22 25 24 22 19 9 10 15 15 16 19 6 12 5 7 10 13 16 12 16 10 8 9 10 12 11 11

GFSSW_925_spd_120.txt.gz
Wind_Speed
6 9 9 11 13 14 15 16 18 18 18 19 20 21 22 26 28 14 2 4 7 13 8 10 11 13 16 15 19 18 15 18 24 24 22 20 22 7 4 13 19 5 6 11 14
8 8 10 12 14 15 15 16 17 17 19 20 20 19 20 24 20 5 3 3 8 11 11 11 10 10 11 16 14 17 16 25 20 23 22 22 20 8 7 17 16 10 8 7 11
10 10 12 13 13 14 15 16 18 19 21 19 17 18 19 18 10 6 4 8 13 13 13 16 16 11 15 15 18 20 24 21 24 26 25 24 24 13 13 15 11 17 11 10 9
10 10 11 11 12 14 15 16 18 20 17 15 15 16 18 5 3 3 15 13 12 12 13 11 11 14 15 16 18 23 26 23 24 24 24 24 23 19 17 20 17 14 11 17 18
11 12 11 10 12 15 16 17 19 20 14 13 15 14 7 6 6 10 14 12 12 11 13 13 14 15 17 18 18 22 24 25 25 22 24 24 24 22 23 17 19 16 17 14 7
10 10 10 11 14 16 17 19 22 14 10 11 13 11 6 6 7 9 11 14 11 9 12 11 12 17 16 20 20 21 25 25 24 24 22 24 24 20 25 20 21 20 19 17 15
8 10 10 13 15 15 17 19 18 8 7 8 9 4 6 4 6 12 12 11 12 16 12 15 11 11 12 19 15 20 22 23 24 21 25 22 25 27 22 22 23 23 22 21 21
7 8 10 14 15 16 16 17 11 4 7 6 2 6 2 2 5 17 14 14 14 15 18 22 15 13 15 14 20 22 23 20 19 22 24 22 30 24 22 22 26 25 22 23 22
7 7 10 14 14 16 14 14 6 2 5 2 5 5 5 0 13 16 11 14 20 12 14 11 12 17 14 13 15 18 19 24 28 22 26 24 34 24 22 20 22 23 19 23 21
7 7 10 14 12 16 15 10 4 5 7 8 6 5 4 7 14 13 10 16 19 12 14 9 9 15 11 11 17 19 17 21 21 20 25 22 27 22 13 21 19 19 13 12 15
6 7 11 13 9 16 19 5 3 5 6 4 5 3 3 9 14 12 15 18 12 14 13 13 15 14 19 21 26 23 24 28 27 25 22 24 23 23 18 18 20 19 12 15 14
6 8 11 12 6 13 12 4 5 2 3 4 3 2 2 8 11 6 15 8 14 13 16 15 19 19 21 25 26 27 28 29 28 23 20 21 24 26 25 18 18 17 17 18 17
6 8 10 8 4 4 12 7 4 5 4 6 2 2 2 9 8 8 6 10 11 15 17 17 23 23 22 26 28 26 24 29 28 25 18 18 23 26 28 28 21 22 21 22 16
7 9 8 5 4 3 4 6 5 4 4 10 6 5 4 10 9 13 3 11 13 17 17 12 16 24 23 26 25 28 28 30 27 22 17 17 18 20 21 24 26 26 25 24 21
8 8 6 5 9 2 5 5 3 2 3 5 7 3 6 7 6 7 9 11 19 15 12 21 24 25 25 28 29 30 29 25 24 25 20 23 14 20 20 24 26 25 27 25 24
7 7 4 1 2 4 4 3 1 3 5 7 3 2 7 8 7 10 11 13 15 12 17 21 24 28 25 19 21 25 28 28 25 17 18 20 19 15 17 23 23 14 14 15 7
7 6 4 5 3 4 4 4 3 6 5 7 1 5 10 6 9 8 15 13 10 8 16 25 21 24 8 28 28 23 22 15 17 15 14 22 19 15 16 23 26 10 13 10 9
5 3 3 3 4 5 4 3 5 4 2 5 3 9 10 5 8 13 15 15 12 14 16 16 27 19 25 31 20 25 19 15 22 15 16 21 21 19 25 25 17 10 13 10 10
3 4 5 1 5 5 3 5 3 1 3 3 9 7 3 7 9 12 14 8 6 13 9 16 28 30 24 21 21 10 15 19 21 23 14 14 17 23 24 19 20 16 16 10 8
4 5 4 1 4 6 4 7 1 2 1 3 3 0 5 9 10 11 10 7 14 13 15 17 26 19 24 21 16 13 16 13 13 21 20 17 20 12 19 17 12 16 15 11 12
4 3 4 2 2 4 4 2 3 5 2 3 4 5 8 10 9 12 11 13 8 15 14 16 6 23 21 14 14 12 10 16 15 16 14 13 13 16 6 19 17 17 16 13 18
5 2 4 2 3 5 7 4 4 7 5 4 3 5 7 8 12 13 13 14 14 17 18 8 7 14 29 12 9 15 14 17 9 20 13 14 17 19 13 6 14 16 16 17 16
3 4 3 1 3 7 3 3 5 5 6 3 4 3 4 10 10 12 16 13 9 14 13 8 5 14 22 7 19 24 22 22 20 17 16 12 16 14 8 11 12 17 13 6 18
3 1 3 4 6 8 6 7 8 5 6 5 7 7 9 10 10 13 16 15 14 16 4 6 6 13 14 19 20 21 26 26 16 8 11 13 18 16 1 10 12 16 18 9 17
3 3 4 3 4 10 8 5 9 6 7 5 4 10 12 10 13 15 17 19 19 15 15 12 17 19 20 23 24 18 20 16 13 11 6 15 15 8 11 16 14 13 14 14 15
3 2 3 7 5 9 4 9 10 9 6 6 10 10 10 13 12 17 19 17 18 21 18 18 13 20 21 23 18 26 13 16 12 13 14 15 15 18 14 9 6 12 12 18 16
3 4 4 4 6 8 8 10 6 7 4 7 9 10 12 13 15 17 18 20 22 21 20 18 9 15 19 18 23 7 11 9 6 5 12 12 11 15 14 16 12 24 24 18 17

GFSSW_925_spd_123.txt.gz
Wind_Speed
6 8 9 11 13 14 14 15 17 18 17 18 19 20 20 21 21 7 4 2 8 16 19 18 13 13 15 4 4 3 5 13 8 13 16 19 18 12 8 2 1 3 4 11 18
6 8 10 11 12 12 15 16 19 19 18 17 17 17 17 19 10 8 6 9 13 16 15 13 11 10 4 6 4 4 6 4 7 13 16 20 13 15 14 8 5 2 9 21 25
8 8 10 11 11 10 12 16 19 20 18 15 14 15 17 11 2 2 15 11 12 12 12 19 18 8 7 5 6 9 14 10 16 18 20 22 21 13 10 10 5 7 4 10 8
9 10 9 9 10 11 12 14 17 19 17 14 13 14 12 1 4 2 13 13 14 11 13 13 7 7 5 6 8 11 13 13 15 15 15 21 17 20 12 13 12 9 4 8 10
10 12 8 9 10 12 13 15 18 19 13 11 13 12 2 1 4 9 13 15 15 17 9 7 6 7 7 8 10 9 8 12 13 15 15 15 20 19 22 14 13 15 15 6 8
11 11 9 10 12 12 14 17 19 13 9 10 12 6 2 2 6 12 13 13 15 16 19 13 7 9 9 7 8 7 17 17 16 17 14 16 17 9 22 9 13 15 16 12 8
10 11 10 11 14 14 15 18 18 9 7 8 8 3 3 2 4 13 12 10 10 10 5 17 19 6 9 10 8 8 12 14 16 11 14 16 21 20 17 13 17 19 18 21 12
10 11 11 13 14 14 17 16 15 6 4 4 4 2 1 2 4 14 9 10 13 21 12 15 14 6 5 9 10 8 7 7 11 10 16 10 24 22 17 19 24 22 18 18 24
11 11 12 15 14 13 17 16 10 2 3 1 4 1 2 1 10 10 10 5 15 20 13 18 3 5 5 6 8 5 8 9 21 14 16 14 25 14 17 24 23 22 21 20 19
10 10 12 13 12 13 18 12 5 5 5 1 10 4 2 2 9 14 11 15 11 10 8 6 2 2 3 1 10 8 8 13 17 18 13 16 20 15 17 14 24 22 16 18 19
10 10 11 12 8 11 20 2 3 2 4 1 2 3 3 7 12 2 14 13 10 7 6 8 6 7 14 10 17 17 18 22 24 23 19 22 23 22 17 17 14 17 14 11 13
8 10 11 11 5 11 7 3 4 1 4 5 2 4 5 5 3 6 11 6 6 7 10 6 6 8 19 17 16 17 20 23 25 19 16 19 22 23 16 22 19 17 18 15 9
7 9 10 8 4 4 13 6 3 3 1 6 5 2 2 4 2 3 3 3 6 6 9 6 11 12 16 18 20 22 20 18 24 26 23 21 25 21 19 16 18 22 19 15 10
7 8 8 4 2 4 3 4 5 3 2 8 5 3 4 4 1 4 4 4 2 8 9 3 6 13 15 19 19 24 17 21 23 22 17 17 18 20 15 18 20 21 21 19 15
7 6 2 4 5 3 4 4 3 1 1 9 5 6 4 1 2 3 7 2 8 13 4 5 13 16 17 15 19 15 19 22 22 19 20 22 11 24 11 18 20 22 19 21 20
6 4 0 1 2 4 5 2 2 3 4 2 5 4 2 5 3 1 4 8 7 3 9 11 7 13 16 18 16 21 16 19 18 13 16 17 15 22 15 19 18 23 17 21 25
5 3 2 1 1 3 2 2 3 3 5 6 3 4 3 6 2 3 4 6 4 6 7 15 6 14 13 22 23 11 10 6 6 7 14 12 16 15 11 13 19 12 11 2 7
4 4 4 2 4 2 3 2 2 5 5 4 2 3 4 2 2 5 6 4 4 5 5 8 20 8 16 19 16 22 13 10 7 4 12 13 17 16 14 22 22 14 6 7 14
3 4 3 6 3 1 3 2 3 3 4 3 3 4 2 6 4 6 6 1 2 2 3 6 12 18 14 16 10 8 6 14 12 13 10 8 21 17 23 24 18 13 14 11 9
1 5 4 4 3 1 3 3 3 5 5 3 1 3 2 5 4 6 3 3 5 4 2 5 19 10 11 18 4 13 11 5 2 4 5 9 16 15 13 17 23 13 11 16 16
1 1 3 4 3 3 3 4 6 8 4 1 2 3 4 4 2 3 4 8 5 5 7 4 2 16 9 6 20 10 8 6 5 7 3 5 9 3 8 18 17 20 18 17 15
2 2 4 4 2 3 3 3 2 10 4 1 1 1 4 3 2 4 4 4 3 2 6 1 4 8 23 22 11 3 13 6 5 4 7 5 12 4 10 11 13 12 16 16 18
2 3 2 2 3 2 4 4 2 2 5 5 4 4 3 2 4 3 6 8 10 6 1 3 4 7 15 3 1 16 21 18 13 7 6 7 8 14 14 14 16 12 17 18 20
2 3 1 1 2 2 2 4 5 2 4 4 1 5 4 5 6 5 9 5 10 10 4 2 4 2 8 16 18 23 28 24 12 5 6 13 12 19 14 12 15 19 24 12 16
1 1 4 2 2 3 3 2 4 4 3 2 2 7 6 4 5 6 8 10 14 13 7 4 3 11 16 19 22 23 18 20 19 15 8 9 9 13 10 13 12 15 17 6 19
2 1 4 1 2 6 3 2 6 5 6 4 3 6 6 4 4 6 8 7 5 10 3 7 5 11 21 17 19 19 9 18 14 19 13 15 4 12 8 10 15 18 22 25 11
2 2 3 3 2 4 4 4 4 2 6 5 4 5 6 6 6 6 6 10 13 16 21 5 4 6 16 16 20 2 10 16 5 20 17 15 15 2 11 12 13 15 20 16 15

GFSSW_925_spd_126.txt.gz
Wind_Speed
8 9 11 12 11 11 12 14 15 16 16 16 16 17 16 18 6 4 3 4 9 14 17 14 9 8 4 4 2 3 1 2 5 5 8 15 16 5 8 6 10 8 4 8 21
9 10 11 13 13 12 13 14 15 17 17 18 16 16 16 16 4 9 8 8 10 10 12 11 8 9 1 3 2 4 4 6 7 6 14 16 22 15 12 17 21 14 13 9 27
10 11 12 13 14 13 14 16 17 18 19 17 15 15 16 8 0 2 9 10 13 10 9 12 9 1 3 0 4 4 8 9 10 13 15 18 20 15 9 16 9 4 9 14 1
10 12 13 12 14 15 15 16 17 19 19 16 15 15 9 1 4 4 8 9 11 10 8 10 4 3 2 4 4 5 9 7 8 11 9 11 10 20 9 18 11 8 6 8 11
11 12 14 13 12 14 16 16 17 18 17 14 14 12 2 1 1 5 7 7 7 10 10 4 6 5 3 5 8 4 5 9 10 12 8 11 12 10 23 7 9 12 7 10 10
10 12 13 13 13 14 15 17 17 18 15 13 12 8 3 4 3 7 4 6 9 10 10 6 0 3 4 3 2 6 10 14 7 13 9 9 17 5 24 10 7 12 14 9 12
9 11 13 13 13 14 16 17 17 17 12 10 8 5 4 3 3 10 10 7 9 8 3 12 6 3 4 7 3 7 10 15 13 7 8 4 19 13 21 15 18 12 17 17 11
8 11 11 14 13 15 15 17 16 15 10 6 6 2 4 1 2 7 4 8 8 13 11 12 6 4 4 3 6 5 4 6 2 6 7 3 19 21 16 12 18 20 15 21 22
8 9 11 13 13 14 16 15 15 10 6 5 4 1 3 3 5 9 9 5 12 12 7 9 6 4 5 4 4 4 6 8 21 3 9 3 16 18 13 14 18 19 20 19 21
6 9 11 13 12 11 16 14 6 6 5 4 6 3 3 0 5 13 6 9 3 5 6 9 5 3 4 6 5 10 12 12 16 11 9 21 21 25 19 17 19 15 12 12 18
6 9 11 13 10 8 16 2 3 2 2 4 3 3 1 6 6 0 9 4 6 6 4 4 5 2 4 4 6 6 10 18 23 17 13 15 23 24 20 20 19 19 17 15 14
12 10 10 11 8 7 3 3 1 1 3 6 3 2 3 1 2 4 3 4 5 3 4 6 1 3 6 8 11 14 17 21 26 19 17 18 24 26 26 25 25 21 18 17 11
15 11 8 7 4 4 9 5 0 2 1 3 5 3 3 4 3 3 3 1 2 4 4 2 5 6 12 11 13 14 13 16 19 25 23 21 27 21 22 20 24 24 22 19 17
15 9 7 3 1 2 1 2 1 2 3 3 4 3 3 5 3 2 5 4 2 4 4 2 7 11 12 12 8 19 9 14 21 18 16 11 24 27 24 25 24 25 21 17 13
12 10 6 4 1 3 3 2 2 0 2 7 5 7 3 3 3 0 1 3 3 5 4 3 8 13 11 6 11 13 15 20 19 20 19 29 13 25 15 22 22 20 22 14 15
13 8 8 3 4 4 3 4 3 2 5 6 5 4 1 1 3 2 5 6 2 4 4 1 4 2 4 13 11 16 11 23 23 10 9 30 16 22 19 20 19 19 21 12 13
13 11 10 9 4 3 3 3 2 3 8 7 5 5 2 2 3 3 4 6 3 6 5 9 3 3 5 21 10 10 14 6 5 1 12 14 15 22 15 13 19 19 16 13 12
11 10 9 9 6 3 4 2 3 5 4 3 5 5 4 5 3 3 3 3 2 3 3 5 5 4 7 11 8 14 4 5 7 9 18 18 10 10 10 10 14 17 17 2 8
11 9 6 10 8 6 2 2 5 2 4 6 4 4 5 4 5 5 3 5 3 3 3 4 4 12 11 5 3 3 4 14 10 11 9 4 8 11 8 13 11 11 13 8 11
11 8 4 8 8 6 3 4 3 4 5 2 3 3 4 3 4 4 1 3 2 1 4 4 14 5 4 12 3 4 9 7 6 7 6 5 7 5 13 14 15 21 13 12 13
7 4 7 7 8 4 3 4 3 7 4 3 2 3 4 3 5 3 4 4 1 1 2 1 4 10 5 1 13 7 5 4 7 6 7 6 4 18 22 18 19 22 6 18 6
5 3 9 8 3 2 3 4 8 4 5 3 3 3 3 4 3 2 4 3 1 2 2 4 3 4 19 22 10 1 11 10 4 9 5 5 5 10 12 16 19 22 19 14 14
3 3 3 3 4 2 3 4 3 6 4 3 3 1 3 3 2 5 2 2 8 4 3 2 3 6 11 5 4 9 17 17 14 13 11 8 6 10 13 12 11 16 20 10 12
3 3 3 2 1 3 3 3 4 3 4 4 3 5 4 1 2 2 0 2 6 2 4 0 3 7 6 12 12 14 22 22 9 12 4 7 12 15 16 17 13 9 11 12 11
2 2 5 3 1 4 1 1 7 4 3 4 2 3 3 3 1 2 3 3 5 1 2 2 2 5 14 16 16 19 15 19 11 20 8 16 11 13 12 11 8 12 12 19 18
3 3 2 4 6 5 2 3 3 5 6 4 5 5 6 3 3 2 1 2 5 3 1 1 4 6 14 14 10 14 11 15 10 17 21 20 9 19 10 9 14 13 15 19 18
4 2 3 2 4 5 4 3 4 5 5 6 7 5 4 2 3 5 7 7 8 6 2 2 2 2 7 8 16 2 13 15 8 17 14 12 13 22 3 9 10 10 14 15 15

GFSSW_925_spd_129.txt.gz
Wind_Speed
11 11 11 11 13 14 13 14 16 17 19 21 21 18 19 17 5 4 3 5 7 9 11 9 6 11 3 0 2 3 2 2 5 2 4 8 6 1 7 11 6 5 5 7 15
11 11 11 12 13 13 14 13 15 17 19 21 18 17 17 15 2 2 5 7 9 10 9 12 7 9 3 1 0 3 3 7 6 4 7 5 11 18 7 17 13 6 11 16 9
12 12 12 13 13 12 13 14 15 18 20 19 15 15 15 8 2 1 6 9 12 8 7 7 4 0 2 3 1 1 6 4 6 9 9 8 10 9 10 18 5 10 11 8 4
13 13 12 13 13 13 14 15 14 17 19 16 14 15 10 2 2 3 6 8 8 10 10 7 3 3 3 4 3 4 6 3 5 8 7 8 5 12 16 11 7 9 10 8 9
14 13 13 13 13 12 14 16 15 16 17 14 12 12 3 2 3 3 5 6 5 7 8 4 5 2 2 4 6 4 4 7 6 10 8 9 11 17 18 18 12 10 9 10 9
15 13 14 13 12 13 14 15 17 16 15 13 11 7 3 1 5 5 8 4 7 8 6 4 1 3 2 3 0 5 6 12 8 10 6 8 11 5 8 11 17 9 11 11 12
16 13 13 14 13 12 13 15 17 16 14 8 8 6 2 7 3 7 8 3 5 5 4 6 3 2 0 5 3 6 7 7 3 5 6 8 15 6 8 8 18 20 9 14 13
17 14 12 13 12 13 12 14 16 16 9 4 5 3 4 1 2 5 6 6 6 10 4 8 2 3 2 3 7 7 4 6 8 10 6 9 15 19 11 12 23 26 23 14 16
17 14 12 11 10 12 13 14 15 8 2 5 3 3 5 3 2 4 5 3 6 7 10 4 4 3 6 3 5 7 5 14 10 13 9 5 25 25 19 15 20 19 22 21 17
18 15 11 9 9 12 12 12 8 2 2 3 1 3 3 2 2 4 4 4 5 2 6 8 5 4 4 5 2 6 7 6 14 8 10 11 22 25 19 13 22 22 23 23 21
19 14 9 8 9 8 11 3 3 3 1 6 3 3 1 4 3 2 4 4 4 7 3 4 7 3 2 1 3 5 6 14 18 11 15 15 23 26 20 20 23 26 24 24 23
21 14 13 12 6 4 2 3 2 1 4 7 7 4 6 1 1 3 2 4 4 3 3 6 4 2 2 5 4 5 12 16 21 9 14 18 32 30 25 23 21 24 25 20 21
21 18 17 11 5 4 4 4 3 1 1 4 5 4 4 5 3 3 4 4 3 2 1 5 3 2 5 5 7 4 7 12 13 26 25 20 24 25 31 24 25 25 24 26 24
26 23 18 10 6 9 4 4 1 4 3 4 5 5 5 5 1 4 4 4 2 2 3 4 1 6 4 2 7 10 6 11 19 17 13 18 17 30 29 25 25 25 23 23 22
28 23 18 16 10 9 8 6 3 4 2 7 4 5 5 5 6 1 5 4 3 1 4 1 4 6 1 2 13 9 9 13 23 19 16 32 4 12 20 27 27 25 22 17 18
26 24 18 14 10 11 10 10 7 3 6 6 5 7 5 4 3 3 4 6 3 4 3 4 3 2 2 4 4 8 11 22 8 1 4 11 5 19 22 18 22 21 17 20 17
25 22 19 16 10 15 16 7 4 5 4 5 5 5 5 5 4 3 3 4 3 4 4 4 3 4 3 10 3 9 12 5 5 3 9 13 15 12 23 23 22 21 18 17 14
27 23 19 11 18 16 12 4 5 8 7 3 4 5 4 5 3 3 3 2 2 4 1 3 5 3 5 1 4 4 3 2 6 9 18 20 5 9 17 22 19 16 15 6 7
25 18 14 17 16 15 4 2 6 3 5 7 4 3 2 3 5 3 2 4 2 3 4 2 3 2 4 2 4 3 1 8 7 13 9 5 8 9 14 22 27 27 26 6 10
16 11 9 18 16 10 3 4 2 2 3 3 5 5 4 4 3 3 2 3 1 3 3 1 3 1 4 2 4 4 4 6 4 6 9 7 12 9 19 18 22 26 28 15 9
15 4 11 15 13 4 4 5 5 3 3 3 3 4 4 5 5 3 5 2 2 3 2 3 3 4 4 2 6 4 3 3 5 4 5 8 10 8 13 14 15 16 25 17 15
8 3 14 16 3 3 4 5 7 4 2 3 3 5 5 5 4 4 4 3 1 2 2 1 3 2 7 10 5 4 7 9 4 8 10 8 14 10 17 14 13 15 17 18 15
3 3 5 4 4 2 3 4 4 5 3 3 3 3 3 4 5 3 4 4 5 3 3 2 1 3 4 6 4 3 12 12 14 8 8 6 6 20 18 18 12 11 12 13 18
3 4 2 1 2 5 5 4 5 4 3 5 5 5 4 3 3 4 2 2 2 2 8 4 3 7 6 9 4 6 15 16 11 3 10 7 22 14 23 23 15 16 17 17 19
1 3 4 4 3 3 3 5 10 4 2 3 3 5 5 3 3 3 3 5 3 3 3 3 3 5 7 12 14 15 14 11 10 7 5 19 19 15 24 18 10 9 10 15 16
4 4 3 3 6 5 1 3 6 4 4 3 6 7 6 4 3 3 4 2 4 3 3 0 3 1 4 10 11 9 5 10 7 6 12 17 14 20 16 19 12 11 14 16 16
4 2 5 0 4 5 4 5 6 7 8 5 12 7 7 6 5 6 7 7 6 6 4 3 3 1 4 5 10 4 4 8 9 8 9 9 16 16 16 18 20 17 18 18 17